ftp/pub/palmer/observations_modified/2019/July/AR190708_BASE.txt

Download

Sample DateTime	Unit Id	WS Avg 2min	WD Avg 2min	WGS 10min	WGD 10min	Air Temp	Rel Humidity	Dew Point	Pyranometer	Quantum	Air Pressure	Snow Level	Rainfall	PW Current	Visibility	CBase 1	CBase 2	CBase 3	Vert Vis
2019/07/08  00:00:02  BASE  2.646    118  3.41628  120  -3.0  86    -5.0  0     0     1011.9   NA       0.0000   9999     4820  0     0    
2019/07/08  00:01:01  BASE  2.8812   116  3.41628  113  -3.0  85    -5.1  0     0     1011.9   NA       0.0000   9999     4860  0     0    
2019/07/08  00:02:01  BASE  3.02232  117  3.41628  113  -3.0  85    -5.2  0     0     1011.9   NA       0.0000   9999     4890  0     0    
2019/07/08  00:03:01  BASE  3.06348  116  3.44568  115  -3.0  84    -5.4  0     0     1011.9   NA       0.0000   9999     4890  0     0    
2019/07/08  00:04:01  BASE  3.16932  114  3.53976  124  -3.0  82    -5.6  0     0     1011.9   NA       0.0000   9999     4920  0     0    
2019/07/08  00:05:02  BASE  3.30456  116  3.62796  122  -3.0  81    -5.8  0     0     1011.9   NA       0.0000   9999     4890  0     0    
2019/07/08  00:06:01  BASE  3.53976  116  4.05132  119  -3.0  80    -5.9  0     0     1011.9   NA       0.0000   9999     4950  0     0    
2019/07/08  00:07:01  BASE  3.59856  117  4.05132  119  -3.0  80    -6.0  0     0     1011.9   NA       0.0000   9999     4890  0     0    
2019/07/08  00:08:01  BASE  3.71616  117  4.2042   118  -3.0  79    -6.1  0     0     1011.9   NA       0.0000   9999     4990  0     0    
2019/07/08  00:09:01  BASE  3.86904  119  4.2042   118  -3.0  79    -6.2  0     0     1011.9   NA       0.0000   9999     4950  0     0    
2019/07/08  00:10:02  BASE  3.82788  122  4.2042   120  -2.9  78    -6.2  0     0     1011.9   NA       0.0000   9999     4890  0     0    
2019/07/08  00:11:02  BASE  3.77496  123  4.2042   120  -2.9  78    -6.2  0     0     1011.9   NA       0.0000   9999     4950  0     0    
2019/07/08  00:12:01  BASE  3.54564  122  4.2042   120  -2.8  77    -6.2  0     0     1011.9   NA       0.0000   9999     4890  0     0    
2019/07/08  00:13:01  BASE  3.42216  120  4.2042   120  -2.8  77    -6.2  0     0     1011.9   NA       0.0000   9999     4890  0     0    
2019/07/08  00:14:01  BASE  3.65148  116  4.2042   120  -2.8  77    -6.2  0     0     1011.9   NA       0.0000   9999     4920  0     0    
2019/07/08  00:15:01  BASE  3.89256  112  4.2042   120  -2.9  78    -6.3  0     0     1011.9   NA       0.0000   9999     4920  0     0    
2019/07/08  00:16:01  BASE  4.01604  111  4.2042   107  -3.0  78    -6.2  0     0     1011.9   NA       0.0000   9999     4890  0     0    
2019/07/08  00:17:01  BASE  3.8808   112  4.2042   107  -3.1  79    -6.2  0     0     1011.9   NA       0.0000   9999     4890  0     0    
2019/07/08  00:18:01  BASE  3.5868   115  4.2042   107  -3.1  80    -6.1  0     0     1011.9   NA       0.0000   9999     4920  0     0    
2019/07/08  00:19:02  BASE  3.68676  116  4.2042   107  -3.1  80    -6.0  0     0     1011.9   NA       0.0000   9999     4950  0     0    
2019/07/08  00:20:01  BASE  3.79848  114  4.2042   107  -3.1  81    -5.9  0     0     1011.9   NA       0.0000   9999     5020  0     0    
2019/07/08  00:21:02  BASE  3.68676  112  4.2042   107  -3.1  81    -5.9  0     0     1011.9   NA       0.0000   9999     4990  0     0    
2019/07/08  00:22:01  BASE  3.61032  113  4.2042   107  -3.1  81    -5.9  0     0     1011.9   NA       0.0000   9999     4990  0     0    
2019/07/08  00:23:01  BASE  3.4692   112  4.2042   107  -3.1  81    -5.9  0     0     1011.9   NA       0.0000   9999     4950  0     0    
2019/07/08  00:24:02  BASE  3.53976  110  4.2042   107  -3.1  81    -5.9  0     0     1011.9   NA       0.0000   9999     4950  0     0    
2019/07/08  00:25:02  BASE  3.56916  109  4.2042   107  -3.1  81    -5.9  0     0     1011.8   NA       0.0000   9999     4990  6730  0    
2019/07/08  00:26:01  BASE  3.48096  106  4.1454   109  -3.1  81    -5.9  0     0     1011.8   NA       0.0000   9999     4890  0     0    
2019/07/08  00:27:01  BASE  3.42216  108  4.1454   109  -3.1  81    -5.9  0     0     1011.8   NA       0.0000   9999     4950  0     0    
2019/07/08  00:28:01  BASE  3.47508  112  4.1454   109  -3.1  81    -5.9  0     0     1011.8   NA       0.0000   9999     4950  0     0    
2019/07/08  00:29:01  BASE  3.52212  113  3.93372  114  -3.1  81    -5.9  0     0     1011.8   NA       0.0000   9999     4920  0     0    
2019/07/08  00:30:01  BASE  3.4398   116  3.93372  114  -3.1  81    -5.9  0     0     1011.9   NA       0.0000   9999     4920  0     0    
2019/07/08  00:31:01  BASE  3.31632  119  3.81024  113  -3.1  81    -5.9  0     0     1011.9   NA       0.0000   9999     4860  0     0    
2019/07/08  00:32:01  BASE  3.234    120  3.81024  113  -3.2  82    -5.9  0     0     1011.9   NA       0.0000   9999     4920  6530  0    
2019/07/08  00:33:01  BASE  3.1752   119  3.81024  113  -3.2  82    -5.8  0     0     1011.9   NA       0.0000   9999     4950  0     0    
2019/07/08  00:34:01  BASE  3.18108  115  3.78084  112  -3.1  82    -5.8  0     0     1011.9   NA       0.0000   9999     4920  0     0    
2019/07/08  00:35:02  BASE  3.33984  113  3.78084  112  -3.2  82    -5.8  0     0     1011.9   NA       0.0000   9999     4950  0     0    
2019/07/08  00:36:01  BASE  3.44568  116  3.78084  112  -3.2  82    -5.8  0     0     1011.9   NA       0.0000   9999     4990  0     0    
2019/07/08  00:37:01  BASE  3.46332  123  3.93372  129  -3.2  82    -5.8  0     0     1011.9   NA       0.0000   9999     4990  11520 12240
2019/07/08  00:38:01  BASE  3.4104   126  3.93372  129  -3.2  83    -5.7  0     0     1011.8   NA       0.0000   9999     5020  11480 12170
2019/07/08  00:39:01  BASE  3.35748  126  3.93372  129  -3.1  83    -5.6  0     0     1011.8   NA       0.0000   9999     11450 12110 0    
2019/07/08  00:40:01  BASE  3.25752  126  3.93372  129  -3.1  83    -5.5  0     0     1011.8   NA       0.0000   9999     4990  11550 12210
2019/07/08  00:41:02  BASE  3.25752  118  3.93372  129  -3.0  83    -5.4  0     0     1011.7   NA       0.0000   9999     5050  12210 0    
2019/07/08  00:42:02  BASE  3.31632  116  3.93372  129  -3.0  83    -5.4  0     0     1011.7   NA       0.0000   9999     5020  6530  12240
2019/07/08  00:43:01  BASE  3.31044  121  3.93372  129  -3.0  83    -5.5  0     0     1011.7   NA       0.0000   9999     12140 0     0    
2019/07/08  00:44:01  BASE  3.61032  123  4.263    126  -3.1  83    -5.5  0     0     1011.7   NA       0.0000   9999     12140 0     0    
2019/07/08  00:45:02  BASE  3.69264  124  4.263    126  -3.1  83    -5.6  0     0     1011.7   NA       0.0000   9999     14470 0     0    
2019/07/08  00:46:01  BASE  3.52212  123  4.263    126  -3.1  83    -5.6  0     0     1011.7   NA       0.0000   9999     6460  14500 0    
2019/07/08  00:47:01  BASE  3.47508  123  4.263    126  -3.1  83    -5.6  0     0     1011.7   NA       0.0000   9999     6460  14530 0    
2019/07/08  00:48:01  BASE  3.40452  124  4.263    126  -3.1  83    -5.6  0     0     1011.7   NA       0.0000   9999     6460  14570 0    
2019/07/08  00:49:01  BASE  3.43392  120  4.263    126  -3.1  83    -5.6  0     0     1011.7   NA       0.0000   9999     6500  14570 0    
2019/07/08  00:50:01  BASE  3.4104   120  4.263    126  -3.1  83    -5.7  0     0     1011.7   NA       0.0000   9999     6460  14630 0    
2019/07/08  00:51:02  BASE  3.34572  124  4.263    126  -3.1  83    -5.7  0     0     1011.7   NA       0.0000   9999     6400  14570 0    
2019/07/08  00:52:01  BASE  3.2046   124  4.263    126  -3.1  83    -5.6  0     0     1011.7   NA       0.0000   9999     6330  0     0    
2019/07/08  00:53:01  BASE  3.13404  119  4.263    126  -3.1  83    -5.6  0     0     1011.7   NA       0.0000   9999     6330  0     0    
2019/07/08  00:54:01  BASE  3.2046   119  3.96312  120  -3.1  83    -5.6  0     0     1011.7   NA       0.0000   9999     6300  14570 0    
2019/07/08  00:55:01  BASE  2.98116  128  3.96312  120  -3.1  83    -5.6  0     0     1011.7   NA       0.0000   9999     6330  14530 0    
2019/07/08  00:56:01  BASE  2.7636   126  3.93372  128  -3.1  83    -5.6  0     0     1011.7   NA       0.0000   9999     5120  6460  0    
2019/07/08  00:57:01  BASE  2.89296  121  3.83964  120  -3.1  83    -5.6  0     0     1011.7   NA       0.0000   9999     5090  0     0    
2019/07/08  00:58:01  BASE  2.98704  124  3.83964  120  -3.1  83    -5.6  0     0     1011.7   NA       0.0000   9999     5090  0     0    
2019/07/08  00:59:01  BASE  2.75184  125  3.83964  120  -3.1  83    -5.6  0     0     1011.7   NA       0.0000   9999     5090  0     0    
2019/07/08  01:00:02  BASE  2.59896  123  3.72204  122  -3.1  83    -5.6  0     0     1011.8   NA       0.0000   9999     5090  0     0    
2019/07/08  01:01:01  BASE  2.76948  115  3.62796  110  -3.1  83    -5.6  0     0     1011.9   NA       0.0000   9999     5090  0     0    
2019/07/08  01:02:01  BASE  3.00468  113  3.62796  110  -3.2  83    -5.7  0     0     1011.9   NA       0.0000   9999     5090  0     0    
2019/07/08  01:03:01  BASE  3.087    120  3.41628  123  -3.3  83    -5.8  0     0     1011.9   NA       0.0000   9999     5090  0     0    
2019/07/08  01:04:01  BASE  2.89296  129  3.51036  135  -3.4  83    -5.8  0     0     1011.9   NA       0.0000   9999     5120  0     0    
2019/07/08  01:05:01  BASE  2.76948  128  3.51036  135  -3.4  83    -5.9  0     0     1011.9   NA       0.0000   9999     5120  0     0    
2019/07/08  01:06:01  BASE  2.62836  122  3.51036  135  -3.3  83    -5.8  0     0     1012.0   NA       0.0000   9999     5120  0     0    
2019/07/08  01:07:01  BASE  2.36376  121  3.51036  135  -3.3  83    -5.7  0     0     1012.0   NA       0.0000   9999     5090  0     0    
2019/07/08  01:08:01  BASE  2.35788  113  3.51036  135  -3.2  83    -5.6  0     0     1012.0   NA       0.0000   9999     5090  0     0    
2019/07/08  01:09:01  BASE  2.42844  108  3.51036  135  -3.2  84    -5.6  0     0     1012.0   NA       0.0000   9999     5120  0     0    
2019/07/08  01:10:01  BASE  2.352    116  3.51036  135  -3.1  84    -5.5  0     0     1012.0   NA       0.0000   9999     5120  0     0    
2019/07/08  01:11:01  BASE  1.8816   120  3.51036  135  -3.1  84    -5.4  0     0     1012.0   NA       0.0000   9999     5120  0     0    
2019/07/08  01:12:01  BASE  1.78164  102  3.51036  135  -3.0  84    -5.3  0     0     1012.0   NA       0.0000   9999     5090  0     0    
2019/07/08  01:13:01  BASE  2.02272  86   3.51036  135  -3.0  84    -5.4  0     0     1012.0   NA       0.0000   9999     5090  0     0    
2019/07/08  01:14:01  BASE  2.16384  83   3.087    139  -3.0  84    -5.4  0     0     1012.0   NA       0.0000   9999     5090  0     0    
2019/07/08  01:15:02  BASE  2.24028  79   3.087    139  -3.1  83    -5.5  0     0     1012.0   NA       0.0000   9999     5090  0     0    
2019/07/08  01:16:01  BASE  2.1168   79   2.63424  104  -3.2  83    -5.6  0     0     1012.0   NA       0.0000   9999     5150  0     0    
2019/07/08  01:17:01  BASE  1.98744  89   2.63424  104  -3.2  83    -5.7  0     0     1012.0   NA       0.0000   9999     5120  0     0    
2019/07/08  01:18:01  BASE  1.8228   103  2.54016  105  -3.2  83    -5.7  0     0     1012.0   NA       0.0000   9999     5150  0     0    
2019/07/08  01:19:01  BASE  1.77576  100  2.54016  105  -3.2  83    -5.6  0     0     1012.0   NA       0.0000   9999     5090  0     0    
2019/07/08  01:20:01  BASE  1.84044  92   2.51076  81   -3.1  83    -5.6  0     0     1011.9   NA       0.0000   9999     5020  0     0    
2019/07/08  01:21:01  BASE  1.76988  91   2.51076  81   -3.1  83    -5.6  0     0     1011.9   NA       0.0000   9999     5450  0     0    
2019/07/08  01:22:01  BASE  1.74048  89   2.51076  81   -3.1  83    -5.6  0     0     1011.9   NA       0.0000   9999     5090  0     0    
2019/07/08  01:23:01  BASE  2.058    88   2.51076  81   -3.1  83    -5.6  0     0     1011.9   NA       0.0000   9999     4990  0     0    
2019/07/08  01:24:01  BASE  2.0286   93   2.48136  91   -3.2  83    -5.6  0     0     1011.9   NA       0.0000   9999     4690  5540  0    
2019/07/08  01:25:02  BASE  1.74048  95   2.48136  91   -3.2  83    -5.7  0     0     1011.9   NA       0.0000   9999     4590  5540  0    
2019/07/08  01:26:01  BASE  1.69344  83   2.48136  91   -3.2  83    -5.6  0     0     1011.9   NA       0.0000   9999     4530  5540  0    
2019/07/08  01:27:01  BASE  1.28184  80   2.48136  91   -3.1  83    -5.5  0     0     1011.9   NA       0.0000   9999     4400  5540  0    
2019/07/08  01:28:02  BASE  0.95844  87   2.48136  91   -3.0  84    -5.4  0     0     1011.9   NA       0.0000   9999     4300  5540  0    
2019/07/08  01:29:01  BASE  0.86436  86   2.48136  91   -2.9  84    -5.3  0     0     1011.9   NA       0.0000   9999     4170  5540  0    
2019/07/08  01:30:02  BASE  0.8232   85   2.48136  91   -2.8  84    -5.1  0     0     1011.9   NA       0.0000   9999     4170  5480  0    
2019/07/08  01:31:01  BASE  1.1172   89   2.48136  91   -2.7  84    -5.1  0     0     1011.9   NA       0.0000   9999     4040  5450  0    
2019/07/08  01:32:02  BASE  1.28184  95   2.48136  91   -2.7  84    -5.0  0     0     1011.9   NA       0.0000   9999     4070  5450  0    
2019/07/08  01:33:02  BASE  1.24068  100  2.0874   101  -2.7  84    -5.0  0     0     1011.9   NA       0.0000   9999     5480  0     0    
2019/07/08  01:34:01  BASE  1.21716  96   2.0874   101  -2.8  84    -5.1  0     0     1011.9   NA       0.0000   9999     5510  0     0    
2019/07/08  01:35:02  BASE  1.2054   88   1.90512  78   -2.8  84    -5.1  0     0     1011.9   NA       0.0000   9999     3740  0     0    
2019/07/08  01:36:01  BASE  1.0878   78   1.39356  101  -2.8  84    -5.1  0     0     1012.0   NA       0.0000   9999     3710  0     0    
2019/07/08  01:37:01  BASE  0.89964  69   1.39356  101  -2.8  84    -5.1  0     0     1012.0   NA       0.0000   9999     5480  0     0    
2019/07/08  01:38:01  BASE  0.78792  66   1.39356  101  -2.7  84    -5.1  0     0     1012.0   NA       0.0000   9999     5380  0     0    
2019/07/08  01:39:02  BASE  1.02312  53   1.54056  42   -2.7  84    -5.0  0     0     1012.0   NA       0.0000   9999     5280  0     0    
2019/07/08  01:40:01  BASE  1.44648  42   1.72284  39   -2.7  84    -5.0  0     0     1012.0   NA       0.0000   9999     5280  0     0    
2019/07/08  01:41:02  BASE  1.56996  34   1.72284  44   -2.8  84    -5.1  0     0     1012.0   NA       0.0000   9999     5710  0     0    
2019/07/08  01:42:01  BASE  1.39356  25   1.72284  44   -2.8  84    -5.2  0     0     1012.0   NA       0.0000   9999     5710  0     0    
2019/07/08  01:43:01  BASE  1.35828  19   1.72284  44   -3.0  84    -5.2  0     0     1012.0   NA       0.0000   9999     5280  5770  0    
2019/07/08  01:44:02  BASE  1.42296  7    1.72284  44   -3.0  84    -5.3  0     0     1012.0   NA       0.0000   9999     5280  5870  0    
2019/07/08  01:45:01  BASE  1.32888  353  1.72284  44   -3.1  85    -5.3  0     0     1012.1   NA       0.0000   9999     5250  5870  0    
2019/07/08  01:46:02  BASE  1.17012  356  1.72284  44   -3.2  85    -5.3  0     0     1012.0   NA       0.0000   9999     5250  5870  0    
2019/07/08  01:47:01  BASE  1.04076  9    1.72284  44   -3.2  86    -5.2  0     0     1012.0   NA       0.0000   9999     5250  0     0    
2019/07/08  01:48:02  BASE  0.96432  19   1.72284  44   -3.2  86    -5.2  0     0     1012.0   NA       0.0000   9999     5250  0     0    
2019/07/08  01:49:01  BASE  0.9114   25   1.72284  44   -3.2  87    -5.1  0     0     1012.0   NA       0.0000   9999     5280  5840  0    
2019/07/08  01:50:02  BASE  0.87024  24   1.72284  44   -3.1  87    -5.0  0     0     1012.0   NA       0.0000   9999     4630  5450  0    
2019/07/08  01:51:01  BASE  0.81732  20   1.69344  9    -3.1  88    -4.9  0     0     1012.0   NA       0.0000   9999     4590  5810  0    
2019/07/08  01:52:01  BASE  0.77028  21   1.69344  9    -3.1  88    -4.8  0     0     1012.0   NA       0.0000   9999     4460  5810  0    
2019/07/08  01:53:01  BASE  0.68796  37   1.63464  360  -3.0  88    -4.7  0     0     1012.0   NA       0.0000   9999     4460  5870  0    
2019/07/08  01:54:02  BASE  0.64092  50   1.35828  355  -3.0  88    -4.7  0     0     1012.1   NA       0.0000   9999     4400  5770  0    
2019/07/08  01:55:02  BASE  0.7056   50   1.24068  2    -3.0  88    -4.7  0     0     1012.1   NA       0.0000   9999     4200  5770  0    
2019/07/08  01:56:01  BASE  0.71736  50   1.0584   11   -3.0  88    -4.7  0     0     1012.0   NA       0.0000   9999     4170  0     0    
2019/07/08  01:57:01  BASE  0.71148  47   1.029    23   -3.0  88    -4.7  0     0     1012.0   NA       0.0000   9999     4790  0     0    
2019/07/08  01:58:01  BASE  0.75264  42   1.029    23   -3.0  88    -4.7  0     0     1012.0   NA       0.0000   9999     4720  0     0    
2019/07/08  01:59:01  BASE  0.81732  40   0.90552  38   -3.0  88    -4.7  0     0     1012.0   NA       0.0000   9999     4690  0     0    
2019/07/08  02:00:01  BASE  0.82908  43   0.90552  38   -3.0  88    -4.7  0     0     1012.0   NA       0.0000   9999     4170  0     0    
2019/07/08  02:01:01  BASE  0.7938   52   0.90552  38   -3.0  88    -4.7  0     0     1012.0   NA       0.0000   9999     4690  0     0    
2019/07/08  02:02:01  BASE  0.74676  57   0.90552  38   -3.0  88    -4.7  0     0     1012.0   NA       0.0000   9999     5870  0     0    
2019/07/08  02:03:01  BASE  0.61152  53   0.90552  38   -3.0  89    -4.6  0     0     1011.9   NA       0.0000   9999     2950  5910  0    
2019/07/08  02:04:01  BASE  0.28812  39   0.90552  38   -3.0  89    -4.6  0     0     1011.9   NA       0.0000   9999     3770  5840  0    
2019/07/08  02:05:02  BASE  0.05292  22   0.90552  38   -3.0  89    -4.6  0     0     1012.0   NA       0.0000   9999     4270  4950  0    
2019/07/08  02:06:02  BASE  0.18816  4    0.90552  38   -3.0  89    -4.6  0     0     1012.0   NA       0.0000   9999     4230  5940  0    
2019/07/08  02:07:01  BASE  0.51744  348  0.90552  38   -3.0  89    -4.6  0     0     1012.0   NA       0.0000   9999     4200  0     0    
2019/07/08  02:08:01  BASE  0.71148  344  0.90552  38   -3.1  89    -4.6  0     0     1012.0   NA       0.0000   9999     4170  5450  15220
2019/07/08  02:09:02  BASE  0.68796  352  0.84672  58   -3.1  89    -4.6  0     0     1012.0   NA       0.0000   9999     4070  5350  11650
2019/07/08  02:10:02  BASE  0.4116   4    0.84672  58   -3.1  89    -4.6  0     0     1011.9   NA       0.0000   9999     4040  5020  5870 
2019/07/08  02:11:02  BASE  0.31752  16   0.78792  343  -3.1  89    -4.6  0     0     1011.9   NA       0.0000   9999     4040  5220  11520
2019/07/08  02:12:02  BASE  0.5586   34   0.78792  343  -3.1  90    -4.6  0     0     1011.9   NA       0.0000   9999     4130  5090  11450
2019/07/08  02:13:02  BASE  0.77028  48   1.029    55   -3.2  90    -4.6  0     0     1011.9   NA       0.0000   9999     3670  5090  5710 
2019/07/08  02:14:01  BASE  0.9408   54   1.0878   55   -3.1  90    -4.5  0     0     1011.9   NA       0.0000   9999     3670  5050  5510 
2019/07/08  02:15:02  BASE  1.03488  58   1.1466   59   -3.1  90    -4.5  0     0     1011.9   NA       0.0000   9999     3870  5050  5540 
2019/07/08  02:16:01  BASE  1.13484  61   1.24068  64   -3.1  91    -4.5  0     0     1011.8   NA       0.0000   9999     3810  5510  15190
2019/07/08  02:17:02  BASE  1.16424  65   1.24068  64   -3.1  91    -4.4  0     0     1011.8   NA       0.0000   9999     3670  5380  15220
2019/07/08  02:18:02  BASE  1.12308  66   1.24068  64   -3.0  91    -4.3  0     0     1011.8   NA       0.0000   9999     3810  5680  0    
2019/07/08  02:19:01  BASE  1.12896  62   1.24068  64   -3.0  91    -4.3  0     0     1011.8   NA       0.0000   9999     3770  0     0    
2019/07/08  02:20:01  BASE  1.19952  61   1.29948  64   -3.0  90    -4.3  0     0     1011.7   NA       0.0000   9999     3710  5220  0    
2019/07/08  02:21:01  BASE  1.31124  61   1.48176  63   -3.0  90    -4.3  0     0     1011.8   NA       0.0000   9999     3640  11550 0    
2019/07/08  02:22:01  BASE  1.39356  60   1.48176  60   -2.9  90    -4.3  0     0     1011.7   NA       0.0000   9999     4070  0     0    
2019/07/08  02:23:01  BASE  1.35828  56   1.48176  60   -2.9  90    -4.3  0     0     1011.7   NA       0.0000   9999     3580  5480  0    
2019/07/08  02:24:01  BASE  1.2642   56   1.48176  60   -2.9  90    -4.3  0     0     1011.7   NA       0.0000   9999     3350  0     0    
2019/07/08  02:25:02  BASE  1.3818   62   1.63464  65   -2.9  90    -4.3  0     0     1011.7   NA       0.0000   9999     3740  0     0    
2019/07/08  02:26:02  BASE  1.55232  63   1.63464  65   -2.9  90    -4.3  0     0     1011.7   NA       0.0000   9999     3940  4890  0    
2019/07/08  02:27:02  BASE  1.55232  63   1.63464  65   -2.8  90    -4.2  0     0     1011.7   NA       0.0000   9999     2950  5120  0    
2019/07/08  02:28:01  BASE  1.5288   65   1.63464  65   -2.8  90    -4.2  0     0     1011.7   NA       0.0000   9999     3180  0     0    
2019/07/08  02:29:02  BASE  1.45824  65   1.63464  65   -2.8  90    -4.2  0     0     1011.7   NA       0.0000   9999     3250  4890  0    
2019/07/08  02:30:01  BASE  1.44648  62   1.63464  65   -2.8  90    -4.2  0     0     1011.7   NA       0.0000   9999     4000  0     0    
2019/07/08  02:31:01  BASE  1.40532  59   1.63464  65   -2.8  90    -4.2  0     0     1011.7   NA       0.0000   9999     3050  5350  0    
2019/07/08  02:32:01  BASE  1.27008  60   1.63464  65   -2.8  90    -4.2  0     0     1011.7   NA       0.0000   9999     4330  5250  0    
2019/07/08  02:33:02  BASE  1.22892  66   1.63464  65   -2.8  90    -4.2  0     0     1011.7   NA       0.0000   9999     3810  0     0    
2019/07/08  02:34:01  BASE  1.176    74   1.63464  65   -2.8  90    -4.2  0     0     1011.7   NA       0.0000   9999     6660  0     0    
2019/07/08  02:35:03  BASE  1.15836  76   1.60524  64   -2.8  90    -4.1  0     0     1011.7   NA       0.0000   9999     4000  0     0    
2019/07/08  02:36:02  BASE  1.2054   75   1.60524  64   -2.8  91    -4.1  0     0     1011.7   NA       0.0000   9999     3900  5090  0    
2019/07/08  02:37:01  BASE  1.19952  75   1.60524  64   -2.8  91    -4.1  0     0     1011.7   NA       0.0000   9999     3870  5090  6330 
2019/07/08  02:38:01  BASE  1.17012  76   1.60524  64   -2.7  91    -4.0  0     0     1011.7   NA       0.0000   9999     3050  5090  6270 
2019/07/08  02:39:02  BASE  1.13484  74   1.60524  64   -2.8  91    -4.0  0     0     1011.7   NA       0.0000   9999     3150  5510  0    
2019/07/08  02:40:02  BASE  1.06428  75   1.42296  62   -2.8  91    -4.0  0     0     1011.7   NA       0.0000   9999     3150  4300  5450 
2019/07/08  02:41:01  BASE  1.04076  78   1.35828  60   -2.8  91    -4.0  0     0     1011.7   NA       0.0000   9999     2890  4990  0    
2019/07/08  02:42:01  BASE  1.09368  77   1.32888  73   -2.8  91    -4.1  0     0     1011.7   NA       0.0000   9999     4070  4860  5320 
2019/07/08  02:43:01  BASE  1.13484  73   1.32888  73   -2.9  91    -4.1  0     0     1011.6   NA       0.0000   9999     4070  4760  6070 
2019/07/08  02:44:01  BASE  1.17012  67   1.32888  73   -2.9  91    -4.1  0     0     1011.6   NA       0.0000   9999     3970  6040  0    
2019/07/08  02:45:01  BASE  1.19364  66   1.32888  73   -2.9  91    -4.1  0     0     1011.6   NA       0.0000   9999     5180  0     0    
2019/07/08  02:46:02  BASE  1.16424  66   1.32888  73   -2.9  91    -4.1  0     0     1011.6   NA       0.0000   9999     4590  6000  0    
2019/07/08  02:47:01  BASE  1.09956  64   1.27008  73   -2.8  91    -4.0  0     0     1011.6   NA       0.0000   9999     4560  6000  0    
2019/07/08  02:48:02  BASE  1.1172   62   1.24068  57   -2.8  92    -4.0  0     0     1011.6   NA       0.0000   9999     4490  6000  0    
2019/07/08  02:49:02  BASE  1.22304  60   1.51116  64   -2.8  92    -4.0  0     0     1011.6   NA       0.0000   9999     4270  6040  0    
2019/07/08  02:50:02  BASE  1.19952  56   1.51116  64   -2.8  92    -4.0  0     0     1011.6   NA       0.0000   9999     4040  6000  0    
2019/07/08  02:51:02  BASE  1.07016  58   1.51116  64   -2.8  92    -4.0  0     0     1011.6   NA       0.0000   9999     4460  6000  0    
2019/07/08  02:52:02  BASE  1.02312  64   1.51116  64   -2.8  92    -4.0  0     0     1011.6   NA       0.0000   9999     4360  6070  0    
2019/07/08  02:53:02  BASE  0.96432  64   1.51116  64   -2.8  92    -4.0  0     0     1011.6   NA       0.0000   9999     4460  6100  0    
2019/07/08  02:54:01  BASE  0.89964  67   1.51116  64   -2.9  92    -4.0  0     0     1011.6   NA       0.0000   9999     4300  6100  0    
2019/07/08  02:55:02  BASE  0.8526   71   1.51116  64   -2.8  92    -4.0  0     0     1011.6   NA       0.0000   9999     4200  5220  0    
2019/07/08  02:56:02  BASE  0.87024  68   1.51116  64   -2.8  92    -3.9  0     0     1011.7   NA       0.0000   9999     4230  6200  0    
2019/07/08  02:57:02  BASE  0.86436  69   1.51116  64   -2.9  92    -4.0  0     0     1011.6   NA       0.0000   9999     4000  0     0    
2019/07/08  02:58:01  BASE  0.77616  75   1.51116  64   -2.9  92    -4.0  0     0     1011.6   NA       0.0000   9999     4000  5350  0    
2019/07/08  02:59:02  BASE  0.66444  82   1.32888  61   -2.9  92    -4.0  0     0     1011.6   NA       0.0000   9999     4100  5320  0    
2019/07/08  03:00:03  BASE  0.45276  85   1.18188  64   -2.9  92    -4.0  0     0     1011.6   NA       0.0000   9999     4000  5280  0    
2019/07/08  03:01:02  BASE  0.5586   89   1.1172   67   -2.9  92    -4.0  0     0     1011.6   NA       0.0000   9999     3970  5350  0    
2019/07/08  03:02:01  BASE  0.77028  105  1.1172   67   -2.8  92    -3.9  0     0     1011.6   NA       0.0000   9999     3940  4630  5350 
2019/07/08  03:03:01  BASE  0.84084  123  1.1172   67   -2.8  92    -4.0  0     0     1011.6   NA       0.0000   9999     4000  4790  0    
2019/07/08  03:04:01  BASE  0.87612  133  1.1172   67   -2.9  92    -4.0  0     0     1011.6   NA       0.0000   9999     3710  4790  5350 
2019/07/08  03:05:02  BASE  0.87024  137  1.1172   67   -2.9  92    -4.1  0     0     1011.7   NA       0.0000   9999     3670  6230  0    
2019/07/08  03:06:01  BASE  0.9408   136  1.0584   125  -3.0  92    -4.1  0     0     1011.7   NA       0.0000   9999     3540  6230  0    
2019/07/08  03:07:01  BASE  0.97608  135  1.0878   140  -3.1  92    -4.2  0     0     1011.7   NA       0.0000   9999     3510  6230  0    
2019/07/08  03:08:01  BASE  0.96432  137  1.0878   140  -3.2  92    -4.3  0     0     1011.7   NA       0.0000   9999     4100  6170  0    
2019/07/08  03:09:01  BASE  0.89964  141  1.0878   140  -3.2  92    -4.3  0     0     1011.7   NA       0.0000   9999     4000  6270  0    
2019/07/08  03:10:02  BASE  0.8526   145  1.0878   140  -3.2  93    -4.2  0     0     1011.7   NA       0.0000   9999     4070  6300  0    
2019/07/08  03:11:02  BASE  0.77028  150  1.0878   140  -3.2  93    -4.2  0     0     1011.7   NA       0.0000   9999     4630  6330  0    
2019/07/08  03:12:01  BASE  0.69972  144  1.0878   140  -3.1  93    -4.1  0     0     1011.7   NA       0.0000   9999     3250  4660  6370 
2019/07/08  03:13:01  BASE  0.69384  134  1.0878   140  -3.1  93    -4.1  0     0     1011.7   NA       0.0000   9999     3640  5050  6400 
2019/07/08  03:14:02  BASE  0.6762   126  1.0878   140  -3.0  93    -4.0  0     0     1011.7   NA       0.0000   9999     3380  4630  6400 
2019/07/08  03:15:02  BASE  0.57036  123  1.0878   140  -3.0  93    -4.0  0     0     1011.7   NA       0.0000   9999     3220  5220  6330 
2019/07/08  03:16:02  BASE  0.441    121  1.0878   140  -2.9  93    -3.9  0     0     1011.7   NA       0.0000   9999     3180  6370  0    
2019/07/08  03:17:01  BASE  0.57036  120  0.9996   142  -2.9  93    -3.9  0     0     1011.7   NA       0.0000   9999     3080  6330  0    
2019/07/08  03:18:02  BASE  0.7644   117  0.9702   143  -2.8  93    -3.8  0     0     1011.6   NA       0.0000   9999     3120  6370  0    
2019/07/08  03:19:02  BASE  0.77028  114  0.87612  114  -2.8  93    -3.8  0     0     1011.7   NA       0.0000   9999     3050  6400  0    
2019/07/08  03:20:03  BASE  0.8526   114  1.0878   113  -2.8  93    -3.7  0     0     1011.7   NA       0.0000   9999     2690  6430  0    
2019/07/08  03:21:02  BASE  0.9702   117  1.0878   113  -2.7  93    -3.7  0     0     1011.7   NA       0.0000   9999     4270  6400  0    
2019/07/08  03:22:02  BASE  1.05252  119  1.27008  122  -2.7  93    -3.7  0     0     1011.7   NA       0.0000   9999     5120  6430  0    
2019/07/08  03:23:02  BASE  1.12896  118  1.27008  122  -2.7  93    -3.7  0     0     1011.7   NA       0.0000   9999     5150  6460  0    
2019/07/08  03:24:01  BASE  1.15836  117  1.27008  122  -2.8  92    -3.8  0     0     1011.7   NA       0.0000   9999     5580  0     0    
2019/07/08  03:25:02  BASE  1.18188  116  1.27008  122  -2.8  92    -3.9  0     0     1011.7   NA       0.0000   9999     6630  0     0    
2019/07/08  03:26:02  BASE  1.30536  119  1.57584  131  -2.9  92    -4.0  0     0     1011.7   NA       0.0000   9999     6530  0     0    
2019/07/08  03:27:02  BASE  1.4406   122  1.63464  119  -3.0  92    -4.1  0     0     1011.7   NA       0.0000   9999     6690  0     0    
2019/07/08  03:28:01  BASE  1.5288   122  1.72284  125  -3.1  92    -4.2  0     0     1011.7   NA       0.0000   9999     6660  0     0    
2019/07/08  03:29:01  BASE  1.61112  124  1.75224  126  -3.1  92    -4.2  0     0     1011.7   NA       0.0000   9999     6330  0     0    
2019/07/08  03:30:02  BASE  1.66404  125  1.81692  125  -3.1  92    -4.2  0     0     1011.7   NA       0.0000   9999     4300  0     0    
2019/07/08  03:31:02  BASE  1.7052   125  1.81692  127  -3.2  93    -4.2  0     0     1011.7   NA       0.0000   9999     4270  0     0    
2019/07/08  03:32:02  BASE  1.7052   125  1.84632  125  -3.2  93    -4.2  0     0     1011.7   NA       0.0000   9999     6730  0     0    
2019/07/08  03:33:02  BASE  1.72872  123  2.0874   120  -3.2  93    -4.2  0     0     1011.6   NA       0.0000   9999     6560  0     0    
2019/07/08  03:34:02  BASE  1.64052  122  2.0874   120  -3.2  93    -4.2  0     0     1011.6   NA       0.0000   9999     6590  0     0    
2019/07/08  03:35:03  BASE  1.54056  122  2.0874   120  -3.2  93    -4.2  0     0     1011.6   NA       0.0000   9999     6630  0     0    
2019/07/08  03:36:02  BASE  1.63464  123  2.0874   120  -3.2  93    -4.2  0     0     1011.6   NA       0.0000   9999     6500  0     0    
2019/07/08  03:37:01  BASE  1.89336  126  2.24028  130  -3.2  93    -4.2  0     0     1011.6   NA       0.0000   9999     6370  0     0    
2019/07/08  03:38:01  BASE  2.06976  124  2.29908  121  -3.2  93    -4.1  0     0     1011.7   NA       0.0000   9999     4760  0     0    
2019/07/08  03:39:01  BASE  2.15796  122  2.59896  126  -3.2  94    -4.1  0     0     1011.7   NA       0.0000   9999     4820  0     0    
2019/07/08  03:40:02  BASE  2.26968  124  2.59896  126  -3.2  94    -4.0  0     0     1011.7   NA       0.0000   9999     6430  0     0    
2019/07/08  03:41:02  BASE  2.34024  127  2.59896  126  -3.1  94    -4.0  0     0     1011.7   NA       0.0000   9999     6200  0     0    
2019/07/08  03:42:02  BASE  2.27556  130  2.59896  126  -3.1  94    -3.9  0     0     1011.7   NA       0.0000   9999     6140  0     0    
2019/07/08  03:43:01  BASE  2.15796  128  2.59896  126  -3.0  94    -3.8  0     0     1011.7   NA       0.0000   9999     6100  0     0    
2019/07/08  03:44:01  BASE  2.2344   129  2.59896  126  -3.0  94    -3.8  0     0     1011.7   NA       0.0000   9999     6100  0     0    
2019/07/08  03:45:02  BASE  2.21088  131  2.59896  126  -3.0  94    -3.8  0     0     1011.7   NA       0.0000   9999     6140  0     0    
2019/07/08  03:46:01  BASE  2.04036  129  2.59896  126  -2.9  94    -3.8  0     0     1011.7   NA       0.0000   9999     6200  0     0    
2019/07/08  03:47:01  BASE  2.04036  127  2.59896  126  -2.9  94    -3.8  0     0     1011.7   NA       0.0000   9999     6370  0     0    
2019/07/08  03:48:02  BASE  2.09328  127  2.59896  126  -3.0  94    -3.8  0     0     1011.7   NA       0.0000   9999     6330  0     0    
2019/07/08  03:49:02  BASE  2.13444  129  2.56956  135  -2.9  94    -3.8  0     0     1011.7   NA       0.0000   9999     6230  0     0    
2019/07/08  03:50:02  BASE  2.22264  130  2.56956  135  -2.9  94    -3.8  0     0     1011.7   NA       0.0000   9999     6000  0     0    
2019/07/08  03:51:02  BASE  2.29908  128  2.56956  135  -2.9  94    -3.8  0     0     1011.7   NA       0.0000   9999     5870  0     0    
2019/07/08  03:52:01  BASE  2.41668  127  2.69304  133  -2.9  94    -3.7  0     0     1011.6   NA       0.0000   9999     5870  0     0    
2019/07/08  03:53:02  BASE  2.57544  130  2.90472  136  -2.9  94    -3.7  0     0     1011.6   NA       0.0000   9999     5910  0     0    
2019/07/08  03:54:01  BASE  2.63424  129  2.90472  136  -2.9  94    -3.7  0     0     1011.6   NA       0.0000   UP       9999  5910  0    
2019/07/08  03:55:02  BASE  2.65776  127  2.93412  127  -2.9  94    -3.7  0     0     1011.6   NA       0.0000   UP       9999  5970  0    
2019/07/08  03:56:02  BASE  2.66364  127  2.93412  127  -2.9  94    -3.7  0     0     1011.6   NA       0.0000   UP       9999  6000  0    
2019/07/08  03:57:02  BASE  2.62836  128  2.93412  127  -2.9  94    -3.8  0     0     1011.6   NA       0.0000   UP       9999  5970  0    
2019/07/08  03:58:01  BASE  2.56956  128  2.93412  127  -2.9  94    -3.8  0     0     1011.6   NA       0.0000   UP       9999  5910  0    
2019/07/08  03:59:02  BASE  2.5284   126  2.93412  127  -2.9  94    -3.7  0     0     1011.6   NA       0.0000   UP       9999  5910  0    
2019/07/08  04:00:03  BASE  2.5872   125  2.93412  127  -2.9  94    -3.7  0     0     1011.6   NA       0.0000   UP       9999  5770  0    
2019/07/08  04:01:02  BASE  2.59308  123  2.93412  127  -2.8  94    -3.7  0     0     1011.6   NA       0.0000   UP       9999  5710  0    
2019/07/08  04:02:02  BASE  2.63424  122  2.93412  127  -2.8  94    -3.6  0     0     1011.6   NA       0.0000   UP       9999  5810  0    
2019/07/08  04:03:01  BASE  2.56956  120  2.93412  127  -2.8  94    -3.7  0     0     1011.6   NA       0.0000   UP       9999  5770  0    
2019/07/08  04:04:02  BASE  2.3814   117  2.93412  127  -2.8  94    -3.7  0     0     1011.7   NA       0.0000   UP       9999  5940  0    
2019/07/08  04:05:02  BASE  2.19324  113  2.87532  122  -2.9  93    -3.8  0     0     1011.7   NA       0.0000   UP       9999  6070  0    
2019/07/08  04:06:02  BASE  2.18736  111  2.87532  122  -2.9  93    -3.9  0     0     1011.7   NA       0.0000   UP       9999  5970  0    
2019/07/08  04:07:02  BASE  2.3226   107  2.87532  122  -3.0  93    -3.9  0     0     1011.7   NA       0.0000   UP       9999  6100  0    
2019/07/08  04:08:02  BASE  2.43432  102  2.87532  122  -3.0  93    -4.0  0     0     1011.7   NA       0.0000   UP       9999  6070  0    
2019/07/08  04:09:01  BASE  2.51076  99   2.87532  122  -3.0  93    -4.0  0     0     1011.7   NA       0.0000   UP       9999  6070  0    
2019/07/08  04:10:01  BASE  2.49312  96   2.87532  122  -3.1  93    -4.1  0     0     1011.7   NA       0.0000   UP       9999  6100  0    
2019/07/08  04:11:01  BASE  2.44608  94   2.87532  122  -3.2  93    -4.2  0     0     1011.7   NA       0.0000   9999     6170  0     0    
2019/07/08  04:12:01  BASE  2.39316  91   2.59896  97   -3.3  93    -4.3  0     0     1011.7   NA       0.0000   9999     6330  0     0    
2019/07/08  04:13:02  BASE  2.35788  92   2.59896  97   -3.4  93    -4.3  0     0     1011.7   NA       0.0000   9999     6400  0     0    
2019/07/08  04:14:02  BASE  2.28144  92   2.59896  97   -3.4  94    -4.3  0     0     1011.7   NA       0.0000   9999     6300  0     0    
2019/07/08  04:15:02  BASE  2.18736  92   2.59896  97   -3.4  94    -4.2  0     0     1011.7   NA       0.0000   9999     6170  0     0    
2019/07/08  04:16:02  BASE  2.1168   92   2.59896  97   -3.3  94    -4.1  0     0     1011.7   NA       0.0000   9999     5940  0     0    
2019/07/08  04:17:02  BASE  2.12268  86   2.59896  97   -3.3  94    -4.1  0     0     1011.7   NA       0.0000   9999     5810  0     0    
2019/07/08  04:18:02  BASE  2.21676  78   2.59896  97   -3.2  94    -4.0  0     0     1011.7   NA       0.0000   9999     5250  0     0    
2019/07/08  04:19:02  BASE  2.36376  76   2.54016  74   -3.2  94    -4.0  0     0     1011.7   NA       0.0000   UP       9999  5150  0    
2019/07/08  04:20:03  BASE  2.4696   76   2.56956  78   -3.2  94    -4.1  0     0     1011.7   NA       0.0000   UP       9999  0     0    
2019/07/08  04:21:02  BASE  2.48136  79   2.63424  79   -3.3  94    -4.1  0     0     1011.7   NA       0.0000   UP       9999  0     0    
2019/07/08  04:22:02  BASE  2.39904  80   2.63424  79   -3.3  94    -4.1  0     0     1011.7   NA       0.0000   UP       9999  0     0    
2019/07/08  04:23:02  BASE  2.32848  78   2.63424  79   -3.3  94    -4.1  0     0     1011.7   NA       0.0000   UP       9999  0     0    
2019/07/08  04:24:02  BASE  2.2638   77   2.63424  79   -3.2  94    -4.1  0     0     1011.7   NA       0.0000   UP       9999  0     0    
2019/07/08  04:25:01  BASE  2.1462   75   2.63424  79   -3.2  94    -4.0  0     0     1011.7   NA       0.0000   UP       9999  0     0    
2019/07/08  04:26:02  BASE  2.12268  73   2.63424  79   -3.1  94    -4.0  0     0     1011.7   NA       0.0000   UP       9999  0     0    
2019/07/08  04:27:01  BASE  2.1168   72   2.63424  79   -3.1  94    -4.0  0     0     1011.7   NA       0.0000   UP       9999  6140  0    
2019/07/08  04:28:01  BASE  2.058    72   2.63424  79   -3.1  94    -4.0  0     0     1011.7   NA       0.0000   UP       9999  6140  0    
2019/07/08  04:29:01  BASE  1.9698   71   2.63424  79   -3.1  93    -4.0  0     0     1011.7   NA       0.0000   UP       9999  6230  0    
2019/07/08  04:30:02  BASE  1.86396  70   2.63424  79   -3.1  93    -4.0  0     0     1011.7   NA       0.0000   UP       9999  0     0    
2019/07/08  04:31:01  BASE  1.81104  69   2.42256  75   -3.0  93    -4.0  0     0     1011.7   NA       0.0000   UP       9999  0     0    
2019/07/08  04:32:01  BASE  1.7346   67   2.42256  75   -3.0  93    -4.0  0     0     1011.7   NA       0.0000   UP       9999  0     0    
2019/07/08  04:33:01  BASE  1.65816  67   2.26968  74   -3.0  93    -3.9  0     0     1011.7   NA       0.0000   UP       9999  0     0    
2019/07/08  04:34:01  BASE  1.63464  69   2.26968  74   -2.9  93    -3.9  0     0     1011.7   NA       0.0000   9999     3050  0     0    
2019/07/08  04:35:03  BASE  1.59936  70   2.26968  74   -2.9  93    -3.8  0     0     1011.7   NA       0.0000   9999     2890  0     0    
2019/07/08  04:36:02  BASE  1.5876   71   2.1756   74   -2.8  93    -3.8  0     0     1011.7   NA       0.0000   9999     2760  0     0    
2019/07/08  04:37:01  BASE  1.52292  71   2.0874   71   -2.8  93    -3.8  0     0     1011.7   NA       0.0000   9999     2690  0     0    
2019/07/08  04:38:01  BASE  1.45824  64   1.96392  69   -2.8  93    -3.8  0     0     1011.7   NA       0.0000   9999     2660  0     0    
2019/07/08  04:39:02  BASE  1.42296  58   1.93452  70   -2.8  93    -3.8  0     0     1011.7   NA       0.0000   9999     2660  0     0    
2019/07/08  04:40:02  BASE  1.36416  55   1.87572  67   -2.9  93    -3.9  0     0     1011.7   NA       0.0000   9999     2590  4460  0    
2019/07/08  04:41:02  BASE  1.34064  52   1.75224  67   -2.9  93    -3.9  0     0     1011.7   NA       0.0000   9999     2530  3900  0    
2019/07/08  04:42:01  BASE  1.3524   50   1.72284  71   -3.0  93    -4.0  0     0     1011.7   NA       0.0000   9999     2560  0     0    
2019/07/08  04:43:02  BASE  1.38768  51   1.69344  78   -3.0  93    -4.0  0     0     1011.7   NA       0.0000   9999     2660  4490  0    
2019/07/08  04:44:01  BASE  1.38768  50   1.69344  78   -3.0  93    -4.0  0     0     1011.7   NA       0.0000   9999     2690  3810  0    
2019/07/08  04:45:02  BASE  1.35828  47   1.69344  78   -3.0  93    -4.0  0     0     1011.7   NA       0.0000   9999     2690  3770  0    
2019/07/08  04:46:02  BASE  1.36416  47   1.54056  48   -3.1  93    -4.0  0     0     1011.7   NA       0.0000   9999     2720  3770  5510 
2019/07/08  04:47:01  BASE  1.34652  49   1.54056  48   -3.0  93    -3.9  0     0     1011.7   NA       0.0000   9999     2720  0     0    
2019/07/08  04:48:02  BASE  1.31124  53   1.54056  48   -3.0  94    -3.9  0     0     1011.7   NA       0.0000   9999     2560  0     0    
2019/07/08  04:49:02  BASE  1.37592  55   1.54056  52   -3.0  94    -3.9  0     0     1011.7   NA       0.0000   9999     2430  0     0    
2019/07/08  04:50:01  BASE  1.3818   53   1.54056  52   -3.0  94    -3.8  0     0     1011.7   NA       0.0000   9999     2530  4040  0    
2019/07/08  04:51:01  BASE  1.19952  50   1.54056  52   -3.0  94    -3.8  0     0     1011.7   NA       0.0000   9999     2530  0     0    
2019/07/08  04:52:01  BASE  1.00548  42   1.54056  52   -3.0  94    -3.8  0     0     1011.7   NA       0.0000   9999     2560  0     0    
2019/07/08  04:53:01  BASE  0.9114   32   1.54056  52   -2.9  94    -3.8  0     0     1011.7   NA       0.0000   9999     2590  0     0    
2019/07/08  04:54:02  BASE  0.93492  22   1.54056  52   -2.9  94    -3.8  0     0     1011.7   NA       0.0000   9999     2590  0     0    
2019/07/08  04:55:01  BASE  1.02312  15   1.54056  52   -2.9  94    -3.8  0     0     1011.7   NA       0.0000   9999     2560  0     0    
2019/07/08  04:56:02  BASE  1.07016  9    1.54056  52   -2.9  93    -3.8  0     0     1011.7   NA       0.0000   9999     2490  0     0    
2019/07/08  04:57:01  BASE  1.0878   0    1.54056  52   -2.9  93    -3.9  0     0     1011.7   NA       0.0000   9999     2400  0     0    
2019/07/08  04:58:02  BASE  1.09368  357  1.54056  52   -3.0  93    -3.9  0     0     1011.7   NA       0.0000   9999     2360  0     0    
2019/07/08  04:59:01  BASE  1.0584   2    1.45236  53   -3.0  93    -4.0  0     0     1011.7   NA       0.0000   9999     2530  0     0    
2019/07/08  05:00:02  BASE  1.06428  3    1.24068  48   -3.0  93    -4.0  0     0     1011.7   NA       0.0000   9999     2300  0     0    
2019/07/08  05:01:02  BASE  1.09368  3    1.1466   3    -3.0  93    -4.0  0     0     1011.7   NA       0.0000   9999     2430  0     0    
2019/07/08  05:02:02  BASE  1.1466   2    1.24068  360  -3.1  93    -4.0  0     0     1011.7   NA       0.0000   9999     2460  0     0    
2019/07/08  05:03:02  BASE  1.2642   355  1.57584  337  -3.1  93    -4.1  0     0     1011.7   NA       0.0000   9999     2360  0     0    
2019/07/08  05:04:02  BASE  1.39356  344  1.57584  337  -3.1  93    -4.0  0     0     1011.7   NA       0.0000   9999     2300  0     0    
2019/07/08  05:05:02  BASE  1.45236  341  1.57584  337  -3.1  93    -4.0  0     0     1011.7   NA       0.0000   9999     2230  0     0    
2019/07/08  05:07:00  BASE  1.50528  344  1.78752  343  -3.1  94    -4.0  0     0     1011.7   NA       0.0000   9999     2170  0     0    
2019/07/08  05:08:00  BASE  1.6464   344  1.87572  339  -3.1  94    -3.9  0     0     1011.7   NA       0.0000   9999     2200  0     0    
2019/07/08  05:09:00  BASE  1.84044  342  2.0874   340  -3.0  94    -3.8  0     0     1011.7   NA       0.0000   9999     5770  0     0    
2019/07/08  05:10:00  BASE  2.05212  340  2.24028  338  -3.0  95    -3.8  0     0     1011.7   NA       0.0000   9999     5810  0     0    
2019/07/08  05:11:01  BASE  2.27556  337  2.56956  334  -3.0  95    -3.7  0     0     1011.7   NA       0.0000   9999     5710  0     0    
2019/07/08  05:12:00  BASE  2.50488  336  2.66364  334  -3.0  95    -3.6  0     0     1011.7   NA       0.0000   9999     3670  0     0    
2019/07/08  05:13:00  BASE  2.48136  335  2.66364  334  -3.0  96    -3.6  0     0     1011.7   NA       0.0000   9999     3540  0     0    
2019/07/08  05:14:00  BASE  2.25792  334  2.66364  334  -3.0  96    -3.6  0     0     1011.7   NA       0.0000   9999     0     0     0    
2019/07/08  05:15:00  BASE  2.18736  333  2.66364  334  -3.1  96    -3.6  0     0     1011.7   NA       0.0000   9999     0     0     0    
2019/07/08  05:16:00  BASE  2.3226   335  2.66364  334  -3.1  96    -3.6  0     0     1011.7   NA       0.0000   9999     2690  0     0    
2019/07/08  05:17:00  BASE  2.64012  339  3.087    340  -3.1  97    -3.5  0     0     1011.7   NA       0.0000   9999     2690  0     0    
2019/07/08  05:18:00  BASE  2.97528  342  3.1752   343  -3.1  97    -3.5  0     0     1011.7   NA       0.0000   9999     2590  0     0    
2019/07/08  05:19:00  BASE  3.06936  342  3.1752   343  -3.1  97    -3.5  0     0     1011.7   NA       0.0000   9999     2530  3410  0    
2019/07/08  05:20:00  BASE  2.98704  339  3.1752   343  -3.1  97    -3.5  0     0     1011.7   NA       0.0000   9999     2490  0     0    
2019/07/08  05:21:00  BASE  2.86356  338  3.1752   343  -3.1  97    -3.5  0     0     1011.7   NA       0.0000   9999     2530  0     0    
2019/07/08  05:22:00  BASE  2.7636   338  3.1752   343  -3.1  97    -3.5  0     0     1011.7   NA       0.0000   9999     2430  0     0    
2019/07/08  05:23:00  BASE  2.76948  340  3.1752   343  -3.1  97    -3.5  0     0     1011.7   NA       0.0000   9999     2260  0     0    
2019/07/08  05:24:00  BASE  3.05172  343  3.48096  345  -3.1  98    -3.5  0     0     1011.7   NA       0.0000   9999     2360  0     0    
2019/07/08  05:25:00  BASE  3.3516   344  3.48096  344  -3.1  98    -3.4  0     0     1011.7   NA       0.0000   9999     2230  0     0    
2019/07/08  05:26:00  BASE  3.33984  344  3.48096  344  -3.2  98    -3.4  0     0     1011.7   NA       0.0000   9999     2170  3900  0    
2019/07/08  05:27:00  BASE  3.15168  343  3.48096  344  -3.2  98    -3.5  0     0     1011.7   NA       0.0000   9999     2100  0     0    
2019/07/08  05:28:00  BASE  3.02232  342  3.48096  344  -3.2  98    -3.5  0     0     1011.7   NA       0.0000   9999     2100  0     0    
2019/07/08  05:29:00  BASE  2.91648  341  3.48096  344  -3.2  98    -3.5  0     0     1011.6   NA       0.0000   9999     2030  0     0    
2019/07/08  05:30:00  BASE  2.88708  342  3.48096  344  -3.2  98    -3.4  0     0     1011.6   NA       0.0000   9999     2230  0     0    
2019/07/08  05:31:00  BASE  2.8518   343  3.48096  344  -3.1  98    -3.4  0     0     1011.6   NA       0.0000   9999     2170  0     0    
2019/07/08  05:32:00  BASE  2.69304  341  3.48096  344  -3.1  98    -3.4  0     0     1011.6   NA       0.0000   9999     2170  0     0    
2019/07/08  05:33:00  BASE  2.61072  339  3.48096  344  -3.1  98    -3.4  0     0     1011.6   NA       0.0000   9999     2130  3740  0    
2019/07/08  05:34:00  BASE  2.64012  336  3.48096  344  -3.2  98    -3.4  0     0     1011.6   NA       0.0000   9999     2100  3740  0    
2019/07/08  05:35:00  BASE  2.793    335  3.41628  343  -3.2  98    -3.4  0     0     1011.6   NA       0.0000   9999     1970  3640  0    
2019/07/08  05:36:00  BASE  2.98704  334  3.29868  338  -3.2  98    -3.5  0     0     1011.6   NA       0.0000   9999     1970  3380  0    
2019/07/08  05:37:00  BASE  3.08112  335  3.29868  338  -3.2  98    -3.5  0     0     1011.6   NA       0.0000   9999     1940  3410  0    
2019/07/08  05:38:00  BASE  3.02232  336  3.29868  338  -3.2  98    -3.5  0     0     1011.6   NA       0.0000   9999     1970  3380  0    
2019/07/08  05:39:00  BASE  2.85768  338  3.29868  338  -3.2  98    -3.5  0     0     1011.6   NA       0.0000   9999     1870  3280  0    
2019/07/08  05:40:00  BASE  2.92236  339  3.29868  338  -3.2  98    -3.5  0     0     1011.6   NA       0.0000   9999     1870  3220  0    
2019/07/08  05:41:00  BASE  2.93412  339  3.29868  338  -3.2  98    -3.5  0     0     1011.6   NA       0.0000   9999     1840  0     0    
2019/07/08  05:42:00  BASE  2.81652  341  3.29868  338  -3.2  98    -3.5  0     0     1011.6   NA       0.0000   9999     1900  0     0    
2019/07/08  05:43:00  BASE  2.81064  344  3.29868  338  -3.2  98    -3.5  0     0     1011.6   NA       0.0000   9999     1870  0     0    
2019/07/08  05:44:00  BASE  2.63424  346  3.29868  338  -3.3  98    -3.5  0     0     1011.6   NA       0.0000   9999     1770  0     0    
2019/07/08  05:45:00  BASE  2.34024  345  3.29868  338  -3.2  99    -3.4  0     0     1011.6   NA       0.0000   9999     2430  0     0    
2019/07/08  05:46:00  BASE  2.11092  341  3.234    335  -3.2  99    -3.4  0     0     1011.6   NA       0.0000   9999     0     0     0    
2019/07/08  05:47:00  BASE  1.9992   337  3.234    335  -3.2  99    -3.4  0     0     1011.6   NA       0.0000   9999     0     0     0    
2019/07/08  05:48:00  BASE  2.05212  335  3.1752   338  -3.2  99    -3.4  0     0     1011.6   NA       0.0000   9999     0     0     0    
2019/07/08  05:49:00  BASE  2.1756   332  3.1752   338  -3.2  99    -3.4  0     0     1011.6   NA       0.0000   9999     0     0     0    
2019/07/08  05:50:00  BASE  2.1756   331  3.0576   339  -3.2  99    -3.4  0     0     1011.6   NA       0.0000   9999     0     0     0    
2019/07/08  05:51:00  BASE  2.12856  330  3.02232  344  -3.2  99    -3.4  0     0     1011.6   NA       0.0000   9999     0     0     0    
2019/07/08  05:52:00  BASE  2.06388  327  3.02232  344  -3.3  99    -3.4  0     0     1011.6   NA       0.0000   9999     0     0     0    
2019/07/08  05:53:00  BASE  1.88748  324  2.63424  346  -3.3  99    -3.4  0     0     1011.6   NA       0.0000   9999     0     0     0    
2019/07/08  05:54:00  BASE  1.74636  318  2.38728  346  -3.3  99    -3.4  0     0     1011.6   NA       0.0000   9999     0     0     0    
2019/07/08  05:55:00  BASE  1.68756  314  2.29908  328  -3.3  99    -3.4  0     0     1011.6   NA       0.0000   9999     5020  0     0    
2019/07/08  05:56:00  BASE  1.5876   312  2.29908  328  -3.3  100   -3.4  0     0     1011.6   NA       0.0000   9999     4860  0     0    
2019/07/08  05:57:00  BASE  1.54056  313  2.29908  328  -3.3  100   -3.3  0     0     1011.6   NA       0.0000   9999     3510  0     0    
2019/07/08  05:58:00  BASE  1.45824  314  2.29908  328  -3.3  100   -3.3  0     0     1011.6   NA       0.0000   9999     2530  0     0    
2019/07/08  05:59:00  BASE  1.31124  313  2.29908  328  -3.3  100   -3.3  0     0     1011.6   NA       0.0000   9999     3310  4760  0    
2019/07/08  06:00:00  BASE  1.19364  314  2.29908  328  -3.3  100   -3.3  0     0     1011.6   NA       0.0000   9999     2530  4790  0    
2019/07/08  06:01:00  BASE  1.27596  315  2.21088  324  -3.3  100   -3.3  0     0     1011.6   NA       0.0000   9999     2490  0     0    
2019/07/08  06:02:00  BASE  1.42296  314  1.90512  320  -3.3  100   -3.3  0     0     1011.6   NA       0.0000   9999     2430  4040  0    
2019/07/08  06:03:00  BASE  1.37592  313  1.81692  314  -3.2  100   -3.2  0     0     1011.6   NA       0.0000   9999     2430  4690  0    
2019/07/08  06:04:00  BASE  1.2642   311  1.72284  313  -3.2  100   -3.2  0     0     1011.6   NA       0.0000   9999     2230  4630  0    
2019/07/08  06:05:00  BASE  1.12308  309  1.66404  318  -3.2  100   -3.2  0     0     1011.6   NA       0.0000   9999     2300  4690  0    
2019/07/08  06:06:00  BASE  0.98196  312  1.66404  318  -3.2  100   -3.2  0     0     1011.6   NA       0.0000   9999     2460  4820  0    
2019/07/08  06:07:00  BASE  0.92316  318  1.51116  313  -3.2  100   -3.2  0     0     1011.6   NA       0.0000   9999     2260  4130  0    
2019/07/08  06:08:00  BASE  0.9702   323  1.51116  313  -3.2  100   -3.2  0     0     1011.6   NA       0.0000   9999     2460  4790  5320 
2019/07/08  06:09:00  BASE  0.9996   326  1.51116  313  -3.2  100   -3.2  0     0     1011.6   NA       0.0000   9999     2590  4860  0    
2019/07/08  06:10:00  BASE  0.93492  324  1.51116  313  -3.2  100   -3.2  0     0     1011.6   NA       0.0000   9999     2560  5250  0    
2019/07/08  06:11:00  BASE  0.75852  320  1.51116  313  -3.2  100   -3.2  0     0     1011.6   NA       0.0000   9999     2690  4400  5320 
2019/07/08  06:12:00  BASE  0.31164  315  1.42296  320  -3.2  100   -3.2  0     0     1011.6   NA       0.0000   9999     2620  4070  4720 
2019/07/08  06:13:00  BASE  0        309  1.29948  311  -3.2  100   -3.2  0     0     1011.6   NA       0.0000   9999     2660  4920  0    
2019/07/08  06:14:00  BASE  0        308  1.18188  308  -3.2  100   -3.2  0     0     1011.6   NA       0.0000   9999     2760  4950  0    
2019/07/08  06:15:00  BASE  0        306  1.0584   325  -3.3  100   -3.3  0     0     1011.6   NA       0.0000   9999     2490  5020  0    
2019/07/08  06:16:00  BASE  0.0294   143  1.0584   325  -3.4  100   -3.4  0     0     1011.6   NA       0.0000   9999     3150  5050  0    
2019/07/08  06:17:00  BASE  0.147    124  1.0584   325  -3.5  100   -3.5  0     0     1011.6   NA       0.0000   9999     3050  4720  0    
2019/07/08  06:18:00  BASE  0.34692  113  1.029    330  -3.6  100   -3.6  0     0     1011.6   NA       0.0000   9999     3380  4720  0    
2019/07/08  06:19:00  BASE  0.30576  97   0.9702   106  -3.7  100   -3.7  0     0     1011.6   NA       0.0000   9999     3380  4760  5770 
2019/07/08  06:20:00  BASE  0.08232  64   0.9702   106  -3.7  100   -3.7  0     0     1011.6   NA       0.0000   9999     3350  4790  5740 
2019/07/08  06:21:00  BASE  0        24   0.9702   106  -3.6  100   -3.6  0     0     1011.6   NA       0.0000   9999     3480  4590  5810 
2019/07/08  06:22:00  BASE  0        356  0.9702   106  -3.5  100   -3.5  0     0     1011.6   NA       0.0000   9999     3540  5410  6270 
2019/07/08  06:23:00  BASE  0        357  0.9702   106  -3.4  100   -3.4  0     0     1011.6   NA       0.0000   9999     3480  5320  6200 
2019/07/08  06:24:01  BASE  0        3    0.9702   106  -3.4  100   -3.4  0     0     1011.6   NA       0.0000   9999     3840  5250  6170 
2019/07/08  06:25:00  BASE  0        9    0.9702   106  -3.3  100   -3.3  0     0     1011.7   NA       0.0000   9999     3870  0     0    
2019/07/08  06:26:00  BASE  0        26   0.9702   106  -3.3  100   -3.3  0     0     1011.7   NA       0.0000   9999     3870  0     0    
2019/07/08  06:27:00  BASE  0.6174   64   1.48176  91   -3.3  100   -3.3  0     0     1011.7   NA       0.0000   9999     6790  0     0    
2019/07/08  06:28:00  BASE  0.74088  90   1.48176  91   -3.3  100   -3.3  0     0     1011.7   NA       0.0000   9999     6300  0     0    
2019/07/08  06:29:00  BASE  0.24108  95   1.48176  91   -3.4  100   -3.4  0     0     1011.7   NA       0.0000   9999     5220  0     0    
2019/07/08  06:30:00  BASE  0.18816  89   1.48176  91   -3.4  100   -3.4  0     0     1011.7   NA       0.0000   9999     4400  0     0    
2019/07/08  06:31:00  BASE  0.46452  69   1.48176  91   -3.5  100   -3.5  0     0     1011.7   NA       0.0000   9999     3900  0     0    
2019/07/08  06:32:00  BASE  1.2348   58   2.35788  62   -3.5  100   -3.5  0     0     1011.7   NA       0.0000   9999     3710  0     0    
2019/07/08  06:33:00  BASE  1.89924  59   2.35788  59   -3.4  100   -3.4  0     0     1011.7   NA       0.0000   9999     3580  0     0    
2019/07/08  06:34:00  BASE  2.15796  61   2.35788  89   -3.4  100   -3.4  0     0     1011.7   NA       0.0000   9999     3670  0     0    
2019/07/08  06:35:00  BASE  1.77576  75   2.35788  89   -3.4  100   -3.4  0     0     1011.7   NA       0.0000   9999     3640  0     0    
2019/07/08  06:36:00  BASE  1.07604  106  2.35788  89   -3.4  100   -3.4  0     0     1011.7   NA       0.0000   9999     5540  0     0    
2019/07/08  06:37:00  BASE  0.88788  155  2.35788  89   -3.4  100   -3.4  0     0     1011.7   NA       0.0000   9999     6270  0     0    
2019/07/08  06:38:00  BASE  0.98196  190  2.35788  89   -3.3  100   -3.3  0     0     1011.7   NA       0.0000   9999     0     0     0    
2019/07/08  06:39:00  BASE  0.88788  206  2.35788  89   -3.3  100   -3.3  0     0     1011.7   NA       0.0000   9999     0     0     0    
2019/07/08  06:40:00  BASE  0.7056   227  2.35788  89   -3.2  100   -3.2  0     0     1011.7   NA       0.0000   9999     0     0     0    
2019/07/08  06:41:01  BASE  0.30576  249  2.35788  89   -3.2  100   -3.3  0     0     1011.7   NA       0.0000   9999     0     0     0    
2019/07/08  06:42:01  BASE  0        269  2.35788  89   -3.2  100   -3.3  0     0     1011.7   NA       0.0000   9999     6400  0     0    
2019/07/08  06:43:00  BASE  0        324  2.35788  89   -3.3  99    -3.4  0     0     1011.7   NA       0.0000   UP       9999  3740  0    
2019/07/08  06:44:00  BASE  0.05292  1    1.93452  97   -3.3  99    -3.4  0     0     1011.7   NA       0.0000   UP       9999  5320  0    
2019/07/08  06:45:00  BASE  0.05292  6    1.21128  199  -3.3  99    -3.5  0     0     1011.7   NA       0.0000   UP       9999  6370  0    
2019/07/08  06:46:00  BASE  0        17   1.21128  199  -3.3  99    -3.5  0     0     1011.7   NA       0.0000   UP       9999  6330  0    
2019/07/08  06:47:00  BASE  0.27636  11   1.21128  199  -3.3  98    -3.5  0     0     1011.7   NA       0.0000   UP       9999  6330  0    
2019/07/08  06:48:00  BASE  0.27636  351  0.93492  219  -3.2  98    -3.5  0     0     1011.7   NA       0.0000   UP       9999  3540  0    
2019/07/08  06:49:00  BASE  0.28224  331  0.87612  320  -3.2  98    -3.5  0     0     1011.7   NA       0.0000   UP       9999  3540  0    
2019/07/08  06:50:00  BASE  0.65856  319  0.90552  310  -3.2  98    -3.5  0     0     1011.7   NA       0.0000   UP       9999  3610  0    
2019/07/08  06:51:00  BASE  0.78792  311  1.0584   307  -3.2  98    -3.5  0     0     1011.7   NA       0.0000   UP       9999  3540  0    
2019/07/08  06:52:00  BASE  0.4116   303  1.0584   307  -3.2  97    -3.6  0     0     1011.7   NA       0.0000   UP       9999  3380  11450
2019/07/08  06:53:00  BASE  0        298  1.0584   307  -3.2  97    -3.6  0     0     1011.7   NA       0.0000   UP       9999  4990  0    
2019/07/08  06:54:00  BASE  0        295  1.0584   307  -3.2  97    -3.6  0     0     1011.7   NA       0.0000   UP       9999  4100  5380 
2019/07/08  06:55:00  BASE  0        296  1.0584   307  -3.2  98    -3.5  0     0     1011.7   NA       0.0000   UP       9999  4130  0    
2019/07/08  06:56:00  BASE  0        298  1.0584   307  -3.2  98    -3.5  0     0     1011.7   NA       0.0000   UP       9999  4200  0    
2019/07/08  06:57:00  BASE  0.05292  334  1.0584   307  -3.2  98    -3.5  0     0     1011.7   NA       0.0000   9999     4040  0     0    
2019/07/08  06:58:00  BASE  0.44688  103  1.0584   307  -3.3  98    -3.5  0     0     1011.7   NA       0.0000   9999     5640  0     0    
2019/07/08  06:59:00  BASE  0.80556  117  1.0584   307  -3.4  99    -3.6  0     0     1011.7   NA       0.0000   9999     3640  0     0    
2019/07/08  07:00:00  BASE  0.7938   122  1.0584   307  -3.5  99    -3.6  0     0     1011.7   NA       0.0000   UP       9999  5480  0    
2019/07/08  07:01:00  BASE  0.74088  127  0.90552  114  -3.5  99    -3.7  0     0     1011.7   NA       0.0000   UP       9999  5480  0    
2019/07/08  07:02:00  BASE  0.44688  128  0.90552  114  -3.6  99    -3.7  0     0     1011.7   NA       0.0000   UP       9999  5450  0    
2019/07/08  07:03:00  BASE  0.4998   114  0.9702   101  -3.5  99    -3.7  0     0     1011.7   NA       0.0000   UP       9999  5640  0    
2019/07/08  07:04:00  BASE  0.71736  112  0.9702   101  -3.5  99    -3.6  0     0     1011.7   NA       0.0000   UP       9999  5740  0    
2019/07/08  07:05:00  BASE  0.30576  120  0.9702   101  -3.4  99    -3.5  0     0     1011.7   NA       0.0000   UP       9999  5680  0    
2019/07/08  07:06:00  BASE  0        110  0.9702   101  -3.3  99    -3.5  0     0     1011.7   NA       0.0000   UP       9999  5680  0    
2019/07/08  07:07:00  BASE  0.39984  89   0.9702   81   -3.3  99    -3.5  0     0     1011.7   NA       0.0000   UP       9999  5640  0    
2019/07/08  07:08:00  BASE  0.78792  81   0.9702   81   -3.3  99    -3.4  0     0     1011.7   NA       0.0000   UP       9999  5480  0    
2019/07/08  07:09:00  BASE  0.78792  79   0.9702   81   -3.2  98    -3.4  0     0     1011.7   NA       0.0000   UP       9999  5180  0    
2019/07/08  07:10:00  BASE  0.54684  91   0.9702   81   -3.2  98    -3.5  0     0     1011.7   NA       0.0000   UP       9999  5280  0    
2019/07/08  07:11:00  BASE  0.31752  111  0.9702   81   -3.3  98    -3.5  0     0     1011.7   NA       0.0000   UP       9999  5450  0    
2019/07/08  07:12:00  BASE  0.17052  122  0.9702   81   -3.3  98    -3.6  0     0     1011.7   NA       0.0000   9999     5450  0     0    
2019/07/08  07:13:00  BASE  0        121  0.9702   81   -3.3  98    -3.6  0     0     1011.7   NA       0.0000   9999     4920  0     0    
2019/07/08  07:14:00  BASE  0        115  0.9702   81   -3.3  98    -3.5  0     0     1011.7   NA       0.0000   9999     4950  0     0    
2019/07/08  07:15:00  BASE  0        115  0.9702   81   -3.2  98    -3.5  0     0     1011.7   NA       0.0000   9999     4660  0     0    
2019/07/08  07:16:00  BASE  0        116  0.9702   81   -3.2  98    -3.4  0     0     1011.7   NA       0.0000   9999     5220  0     0    
2019/07/08  07:17:00  BASE  0        116  0.90552  72   -3.1  98    -3.4  0     0     1011.7   NA       0.0000   9999     4300  0     0    
2019/07/08  07:18:00  BASE  0        116  0.90552  72   -3.1  98    -3.4  0     0     1011.7   NA       0.0000   9999     3810  0     0    
2019/07/08  07:19:00  BASE  0        116  0.78792  101  -3.1  98    -3.4  0     0     1011.7   NA       0.0000   9999     3710  0     0    
2019/07/08  07:20:00  BASE  0        88   0.75852  101  -3.2  98    -3.4  0     0     1011.7   NA       0.0000   9999     3640  0     0    
2019/07/08  07:21:00  BASE  0        54   0        M    -3.2  98    -3.5  0     0     1011.7   NA       0.0000   9999     3480  0     0    
2019/07/08  07:22:00  BASE  0        49   0        M    -3.3  98    -3.5  0     0     1011.7   NA       0.0000   9999     3310  0     0    
2019/07/08  07:23:00  BASE  0        50   0        M    -3.3  98    -3.6  0     0     1011.7   NA       0.0000   9999     3150  0     0    
2019/07/08  07:24:00  BASE  0        50   0        M    -3.3  98    -3.6  0     0     1011.8   NA       0.0000   9999     2950  0     0    
2019/07/08  07:25:00  BASE  0        50   0        M    -3.3  98    -3.5  0     0     1011.8   NA       0.0000   9999     0     0     0    
2019/07/08  07:26:00  BASE  0        51   0        M    -3.2  98    -3.5  0     0     1011.9   NA       0.0000   9999     0     0     0    
2019/07/08  07:27:00  BASE  0        51   0        M    -3.2  98    -3.5  0     0     1011.9   NA       0.0000   9999     0     0     0    
2019/07/08  07:28:00  BASE  0        51   0        M    -3.2  98    -3.5  0     0     1011.8   NA       0.0000   UP       9999  0     0    
2019/07/08  07:29:00  BASE  0        41   0        M    -3.2  98    -3.5  0     0     1011.8   NA       0.0000   UP       9999  0     0    
2019/07/08  07:30:00  BASE  0        349  0        M    -3.2  98    -3.5  0     0     1011.7   NA       0.0000   UP       9999  0     0    
2019/07/08  07:31:00  BASE  0        288  0        M    -3.2  98    -3.5  0     0     1011.7   NA       0.0000   UP       8000  0     0    
2019/07/08  07:32:00  BASE  0        270  0        M    -3.2  98    -3.5  0     0     1011.7   NA       0.0000   UP       5000  0     0    
2019/07/08  07:33:00  BASE  0        269  0        M    -3.2  98    -3.5  0     0     1011.7   NA       0.0000   -SN      BR    5000  0    
2019/07/08  07:34:00  BASE  0.0294   268  0.63504  260  -3.2  98    -3.5  0     0     1011.7   NA       0.0000   -SN      BR    5000  0    
2019/07/08  07:35:00  BASE  0.14112  259  0.69384  251  -3.2  98    -3.4  0     0     1011.7   NA       0.0000   -SN      BR    5000  0    
2019/07/08  07:36:00  BASE  0.11172  248  0.69384  251  -3.2  99    -3.4  0     0     1011.7   NA       0.0000   -SN      BR    5000  0    
2019/07/08  07:37:00  BASE  0        246  0.69384  251  -3.3  99    -3.4  0     0     1011.7   NA       0.0000   -SN      BR    5000  0    
2019/07/08  07:38:00  BASE  0        249  0.69384  251  -3.3  99    -3.4  0     0     1011.7   NA       0.0000   -SN      BR    5000  0    
2019/07/08  07:39:00  BASE  0        253  0.69384  251  -3.4  99    -3.5  0     0     1011.7   NA       0.0000   -SN      BR    5000  0    
2019/07/08  07:40:00  BASE  0        255  0.69384  251  -3.4  99    -3.5  0     0     1011.7   NA       0.0000   -SN      BR    4300  0    
2019/07/08  07:41:00  BASE  0        256  0.69384  251  -3.4  99    -3.5  0     0     1011.7   NA       0.0000   -SN      BR    3900  0    
2019/07/08  07:42:00  BASE  0        257  0.69384  251  -3.3  100   -3.4  0     0     1011.7   NA       0.0000   -SN      BR    3700  0    
2019/07/08  07:43:00  BASE  0        269  0.69384  251  -3.3  100   -3.3  0     0     1011.7   NA       0.0000   -SN      BR    3900  0    
2019/07/08  07:44:00  BASE  0        301  0.69384  251  -3.3  100   -3.3  0     0     1011.7   NA       0.0000   -SN      BR    4100  0    
2019/07/08  07:45:00  BASE  0        318  0        M    -3.2  100   -3.2  0     0     1011.7   NA       0.0000   -SN      BR    4000  0    
2019/07/08  07:46:00  BASE  0        319  0        M    -3.3  100   -3.3  0     0     1011.7   NA       0.0000   -SN      BR    4200  0    
2019/07/08  07:47:00  BASE  0        342  0        M    -3.3  100   -3.3  0     0     1011.7   NA       0.0000   -SN      BR    3600  0    
2019/07/08  07:48:00  BASE  0        4    0        M    -3.4  100   -3.4  0     0     1011.7   NA       0.0000   -SN      BR    3400  0    
2019/07/08  07:49:00  BASE  0.21756  6    0.84672  8    -3.4  100   -3.4  0     0     1011.7   NA       0.0000   -SN      BR    3100  0    
2019/07/08  07:50:00  BASE  0.6468   11   0.93492  12   -3.5  100   -3.5  0     0     1011.7   NA       0.0000   -SN      BR    3100  0    
2019/07/08  07:51:00  BASE  0.91728  13   1.029    17   -3.5  100   -3.5  0     0     1011.7   NA       0.0000   -SN      BR    3900  0    
2019/07/08  07:52:00  BASE  0.96432  17   1.029    19   -3.5  100   -3.5  0     0     1011.7   NA       0.0000   -SN      BR    4700  0    
2019/07/08  07:53:00  BASE  0.89376  20   1.029    19   -3.6  100   -3.6  0     0     1011.7   NA       0.0000   -SN      BR    5000  0    
2019/07/08  07:54:00  BASE  0.78204  22   1.029    19   -3.6  100   -3.6  0     0     1011.7   NA       0.0000   -SN      BR    8000  0    
2019/07/08  07:55:00  BASE  0.71736  25   1.029    19   -3.6  100   -3.6  0     0     1011.7   NA       0.0000   -SN      BR    9000  0    
2019/07/08  07:56:00  BASE  0.69972  28   1.029    19   -3.6  100   -3.6  0     0     1011.7   NA       0.0000   -SN      BR    9999  0    
2019/07/08  07:57:00  BASE  0.69972  28   1.029    19   -3.7  100   -3.7  0     0     1011.7   NA       0.0000   -SN      BR    9999  0    
2019/07/08  07:58:00  BASE  0.69972  27   1.029    19   -3.7  100   -3.7  0     0     1011.7   NA       0.0000   -SN      BR    9999  0    
2019/07/08  07:59:00  BASE  0.65856  25   1.029    19   -3.7  100   -3.7  0     0     1011.7   NA       0.0000   -SN      BR    9999  0    
2019/07/08  08:00:00  BASE  0.67032  20   1.029    19   -3.6  100   -3.6  0     0     1011.7   NA       0.0000   -SN      BR    9999  0    
2019/07/08  08:01:00  BASE  0.71736  15   1.029    19   -3.6  100   -3.6  0     0     1011.7   NA       0.0000   -SN      BR    9999  1710 
2019/07/08  08:02:00  BASE  0.77028  12   0.9702   19   -3.6  100   -3.6  0     0     1011.7   NA       0.0000   -SN      9999  1610  0    
2019/07/08  08:03:00  BASE  0.77028  12   0.84672  11   -3.6  100   -3.6  0     0     1011.7   NA       0.0000   -SN      9999  1770  0    
2019/07/08  08:04:00  BASE  0.7056   12   0.84672  11   -3.6  100   -3.6  0     0     1011.7   NA       0.0000   -SN      9999  1670  0    
2019/07/08  08:05:00  BASE  0.65268  12   0.84672  11   -3.6  100   -3.6  0     0     1011.7   NA       0.0000   -SN      9999  1570  0    
2019/07/08  08:06:00  BASE  0.54096  16   0.84672  22   -3.6  100   -3.6  0     0     1011.7   NA       0.0000   -SN      9999  1570  0    
2019/07/08  08:07:00  BASE  0.59388  24   0.84672  22   -3.6  100   -3.6  0     0     1011.7   NA       0.0000   -SN      9999  1510  0    
2019/07/08  08:08:00  BASE  0.78792  29   0.90552  30   -3.7  100   -3.7  0     0     1011.7   NA       0.0000   -SN      9999  1510  0    
2019/07/08  08:09:00  BASE  0.85848  31   0.9702   30   -3.7  100   -3.7  0     0     1011.7   NA       0.0000   -SN      9999  1570  0    
2019/07/08  08:10:00  BASE  0.8526   29   0.9702   30   -3.7  100   -3.7  0     0     1011.7   NA       0.0000   -SN      9999  1540  0    
2019/07/08  08:11:00  BASE  0.7644   27   0.9702   30   -3.7  100   -3.7  0     0     1011.7   NA       0.0000   -SN      9999  1480  0    
2019/07/08  08:12:00  BASE  0.66444  21   0.9702   30   -3.7  100   -3.7  0     0     1011.7   NA       0.0000   -SN      9999  0     0    
2019/07/08  08:13:00  BASE  0.65268  16   0.9702   30   -3.7  100   -3.7  0     0     1011.7   NA       0.0000   -SN      9999  0     0    
2019/07/08  08:14:00  BASE  0.62328  14   0.9702   30   -3.7  100   -3.7  0     0     1011.7   NA       0.0000   -SN      9999  1380  0    
2019/07/08  08:15:00  BASE  0.68208  15   0.9702   30   -3.7  100   -3.7  0     0     1011.7   NA       0.0000   -SN      9999  1870  0    
2019/07/08  08:16:00  BASE  0.84672  25   1.0878   39   -3.8  100   -3.8  0     0     1011.7   NA       0.0000   -SN      9999  1670  3450 
2019/07/08  08:17:00  BASE  0.95256  28   1.0878   39   -3.8  100   -3.8  0     0     1011.7   NA       0.0000   -SN      9999  1640  3510 
2019/07/08  08:18:00  BASE  1.01136  25   1.0878   24   -3.8  100   -3.8  0     0     1011.7   NA       0.0000   -SN      9999  1710  3410 
2019/07/08  08:19:00  BASE  1.02312  25   1.0878   24   -3.8  100   -3.8  0     0     1011.7   NA       0.0000   -SN      9999  1640  0    
2019/07/08  08:20:00  BASE  0.97608  28   1.0878   24   -3.8  100   -3.8  0     0     1011.7   NA       0.0000   -SN      9999  1540  0    
2019/07/08  08:21:00  BASE  0.9408   33   1.0878   24   -3.8  100   -3.8  0     0     1011.7   NA       0.0000   -SN      9999  1510  0    
2019/07/08  08:22:00  BASE  0.92316  34   1.0878   24   -3.8  100   -3.8  0     0     1011.7   NA       0.0000   -SN      9999  1570  0    
2019/07/08  08:23:00  BASE  0.90552  34   1.0878   24   -3.8  100   -3.8  0     0     1011.7   NA       0.0000   -SN      9999  2230  0    
2019/07/08  08:24:00  BASE  0.98196  33   1.18188  39   -3.8  100   -3.8  0     0     1011.7   NA       0.0000   -SN      9999  3480  0    
2019/07/08  08:25:00  BASE  1.02312  30   1.18188  39   -3.8  100   -3.8  0     0     1011.7   NA       0.0000   -SN      9999  430   3540 
2019/07/08  08:26:00  BASE  1.02312  27   1.18188  39   -3.8  100   -3.8  0     0     1011.7   NA       0.0000   -SN      9999  3540  0    
2019/07/08  08:27:00  BASE  1.07016  28   1.18188  25   -3.8  100   -3.8  0     0     1011.7   NA       0.0000   -SN      9999  390   3610 
2019/07/08  08:28:00  BASE  1.13484  32   1.24068  34   -3.9  100   -3.9  0     0     1011.7   NA       0.0000   -SN      9999  3510  0    
2019/07/08  08:29:00  BASE  1.22304  36   1.29948  39   -3.9  100   -3.9  0     0     1011.7   NA       0.0000   -SN      9999  3450  0    
2019/07/08  08:30:00  BASE  1.28772  39   1.32888  39   -3.9  100   -3.9  0     0     1011.7   NA       0.0000   9999     3410  0     0    
2019/07/08  08:31:00  BASE  1.27596  40   1.32888  39   -3.9  100   -3.9  0     0     1011.7   NA       0.0000   9999     1800  0     0    
2019/07/08  08:32:00  BASE  1.2936   41   1.42296  44   -3.9  100   -3.9  0     0     1011.7   NA       0.0000   9999     1740  0     0    
2019/07/08  08:33:00  BASE  1.37592  41   1.48176  42   -3.9  100   -3.9  0     0     1011.7   NA       0.0000   9999     3510  0     0    
2019/07/08  08:34:00  BASE  1.36416  39   1.48176  42   -3.9  100   -3.9  0     0     1011.7   NA       0.0000   9999     2030  0     0    
2019/07/08  08:35:00  BASE  1.32888  37   1.48176  42   -3.9  100   -3.9  0     0     1011.7   NA       0.0000   9999     2590  3510  0    
2019/07/08  08:36:00  BASE  1.31712  33   1.48176  42   -3.9  100   -3.9  0     0     1011.8   NA       0.0000   9999     430   3410  0    
2019/07/08  08:37:00  BASE  1.31124  30   1.48176  42   -3.9  100   -3.9  0     0     1011.9   NA       0.0000   9999     390   3310  0    
2019/07/08  08:38:00  BASE  1.3524   28   1.51116  30   -3.9  100   -3.9  0     0     1011.9   NA       0.0000   9999     430   3380  0    
2019/07/08  08:39:00  BASE  1.34064  25   1.51116  30   -3.9  100   -3.9  0     0     1011.9   NA       0.0000   9999     1870  3350  0    
2019/07/08  08:40:00  BASE  1.29948  25   1.51116  14   -3.9  100   -3.9  0     0     1011.9   NA       0.0000   9999     2000  3350  0    
2019/07/08  08:41:00  BASE  1.34064  22   1.51116  19   -3.9  100   -3.9  0     0     1011.9   NA       0.0000   9999     490   3250  0    
2019/07/08  08:42:01  BASE  1.32888  19   1.51116  19   -3.9  100   -3.9  0     0     1011.9   NA       0.0000   9999     1840  3120  0    
2019/07/08  08:43:01  BASE  1.27596  20   1.51116  19   -4.0  100   -4.0  0     0     1011.8   NA       0.0000   9999     1710  3250  5280 
2019/07/08  08:44:01  BASE  1.31712  22   1.51116  19   -4.0  100   -4.0  0     0     1011.8   NA       0.0000   9999     1610  2400  0    
2019/07/08  08:45:01  BASE  1.34652  21   1.51116  19   -4.0  100   -4.0  0     0     1011.7   NA       0.0000   9999     1540  3050  0    
2019/07/08  08:46:01  BASE  1.34652  19   1.51116  19   -4.0  100   -4.0  0     0     1011.7   NA       0.0000   9999     1610  3120  0    
2019/07/08  08:47:01  BASE  1.35828  17   1.51116  19   -4.0  100   -4.0  0     0     1011.7   NA       0.0000   9999     1570  3050  0    
2019/07/08  08:48:01  BASE  1.4112   16   1.51116  19   -3.9  100   -3.9  0     0     1011.7   NA       0.0000   9999     1610  3020  0    
2019/07/08  08:49:01  BASE  1.42296  16   1.51116  19   -3.9  100   -3.9  0     0     1011.7   NA       0.0000   9999     1610  3020  0    
2019/07/08  08:50:01  BASE  1.4406   17   1.57584  21   -3.9  100   -3.9  0     0     1011.8   NA       0.0000   9999     1540  0     0    
2019/07/08  08:51:01  BASE  1.47     20   1.57584  21   -3.9  100   -3.9  0     0     1011.8   NA       0.0000   9999     1570  0     0    
2019/07/08  08:52:01  BASE  1.45236  21   1.57584  21   -3.9  100   -3.9  0     0     1011.8   NA       0.0000   9999     2850  0     0    
2019/07/08  08:53:01  BASE  1.4112   21   1.57584  21   -3.9  100   -3.9  0     0     1011.8   NA       0.0000   9999     2660  0     0    
2019/07/08  08:54:01  BASE  1.3524   22   1.57584  21   -3.9  100   -3.9  0     0     1011.8   NA       0.0000   9999     1870  0     0    
2019/07/08  08:55:01  BASE  1.323    22   1.57584  21   -3.9  100   -3.9  0     0     1011.8   NA       0.0000   9999     2530  0     0    
2019/07/08  08:56:01  BASE  1.3818   22   1.63464  16   -4.0  100   -4.0  0     0     1011.8   NA       0.0000   9999     2530  0     0    
2019/07/08  08:57:01  BASE  1.45236  18   1.63464  7    -4.0  100   -4.0  0     0     1011.8   NA       0.0000   9999     2000  0     0    
2019/07/08  08:58:01  BASE  1.49352  14   1.75224  12   -4.0  100   -4.0  0     0     1011.9   NA       0.0000   9999     1840  0     0    
2019/07/08  08:59:01  BASE  1.56996  15   1.75224  12   -4.0  100   -4.0  0     0     1011.9   NA       0.0000   9999     2460  0     0    
2019/07/08  09:00:01  BASE  1.617    18   1.75224  22   -4.0  100   -4.0  0     0     1011.9   NA       0.0000   9999     430   2490  0    
2019/07/08  09:01:01  BASE  1.71108  21   1.87572  19   -4.0  100   -4.0  0     0     1011.9   NA       0.0000   9999     1710  0     0    
2019/07/08  09:02:01  BASE  1.81692  23   2.0286   22   -4.0  100   -4.0  0     0     1011.9   NA       0.0000   9999     460   1840  0    
2019/07/08  09:03:01  BASE  1.84632  24   2.0286   22   -4.0  100   -4.0  0     0     1011.9   NA       0.0000   9999     1840  0     0    
2019/07/08  09:04:01  BASE  1.84632  27   2.0286   22   -4.0  100   -4.0  0     0     1011.8   NA       0.0000   9999     490   2430  0    
2019/07/08  09:05:01  BASE  1.90512  29   2.1462   33   -4.0  100   -4.0  0     0     1011.7   NA       0.0000   9999     460   2460  0    
2019/07/08  09:06:01  BASE  1.87572  28   2.1462   33   -4.1  100   -4.1  0     0     1011.7   NA       0.0000   9999     430   0     0    
2019/07/08  09:07:01  BASE  1.74636  26   2.1462   33   -4.1  100   -4.1  0     0     1011.7   NA       0.0000   9999     430   0     0    
2019/07/08  09:08:01  BASE  1.75224  24   2.1462   33   -4.1  100   -4.1  0     0     1011.7   NA       0.0000   9999     430   2430  0    
2019/07/08  09:09:01  BASE  1.75224  20   2.1462   33   -4.2  100   -4.2  0     0     1011.7   NA       0.0000   9999     460   2330  0    
2019/07/08  09:10:01  BASE  1.6464   17   2.1462   33   -4.2  100   -4.2  0     0     1011.7   NA       0.0000   9999     460   2230  0    
2019/07/08  09:11:01  BASE  1.5288   13   2.1462   33   -4.1  100   -4.1  0     0     1011.7   NA       0.0000   9999     460   2230  0    
2019/07/08  09:12:01  BASE  1.4112   7    2.1462   33   -4.1  100   -4.1  0     0     1011.7   NA       0.0000   9999     490   2200  0    
2019/07/08  09:13:01  BASE  1.24068  6    2.1462   33   -4.1  100   -4.1  0     0     1011.8   NA       0.0000   9999     1610  4130  0    
2019/07/08  09:14:01  BASE  1.07604  13   2.1462   33   -4.1  100   -4.1  0     0     1011.9   NA       0.0000   9999     520   2130  0    
2019/07/08  09:15:01  BASE  0.94668  21   1.90512  22   -4.1  100   -4.1  0     0     1011.9   NA       0.0000   9999     520   1800  0    
2019/07/08  09:16:01  BASE  0.8526   33   1.90512  22   -4.1  100   -4.1  0     0     1011.9   NA       0.0000   9999     1640  4070  0    
2019/07/08  09:17:01  BASE  0.87024  47   1.90512  22   -4.1  100   -4.1  0     0     1011.9   NA       0.0000   9999     1610  4070  0    
2019/07/08  09:18:01  BASE  0.87612  54   1.81692  15   -4.1  100   -4.1  0     0     1011.8   NA       0.0000   9999     590   1610  0    
2019/07/08  09:19:01  BASE  0.8232   51   1.72284  13   -4.1  100   -4.1  0     0     1011.7   NA       0.0000   9999     1540  4040  0    
2019/07/08  09:20:01  BASE  0.7644   44   1.63464  9    -4.1  100   -4.1  0     0     1011.7   NA       0.0000   9999     1510  0     0    
2019/07/08  09:21:01  BASE  0.7056   44   1.51116  360  -4.0  100   -4.0  0     0     1011.7   NA       0.0000   9999     1510  0     0    
2019/07/08  09:22:01  BASE  0.74676  32   1.21128  45   -4.0  100   -4.0  0     0     1011.7   NA       0.0000   9999     3610  0     0    
2019/07/08  09:23:01  BASE  0.95256  12   1.27008  6    -3.9  100   -3.9  0     0     1011.7   NA       0.0000   9999     1540  0     0    
2019/07/08  09:24:01  BASE  1.03488  10   1.27008  6    -3.9  100   -3.9  0     0     1011.7   NA       0.0000   9999     4200  0     0    
2019/07/08  09:25:01  BASE  1.07016  11   1.48176  360  -3.8  100   -3.8  0     0     1011.7   NA       0.0000   9999     3350  0     0    
2019/07/08  09:26:01  BASE  1.04076  8    1.48176  360  -3.8  100   -3.8  0     0     1011.7   NA       0.0000   9999     3510  0     0    
2019/07/08  09:27:01  BASE  1.01724  11   1.48176  38   -3.9  100   -3.9  0     0     1011.7   NA       0.0000   9999     3250  0     0    
2019/07/08  09:28:01  BASE  1.17012  21   1.57584  34   -3.9  100   -3.9  0     0     1011.7   NA       0.0000   9999     3280  0     0    
2019/07/08  09:29:01  BASE  1.31124  31   1.63464  48   -3.9  100   -3.9  0     0     1011.7   NA       0.0000   9999     3250  0     0    
2019/07/08  09:30:01  BASE  1.55232  44   2.058    54   -4.0  100   -4.0  0     0     1011.7   NA       0.0000   9999     3220  0     0    
2019/07/08  09:31:01  BASE  1.89336  50   2.21088  45   -4.0  100   -4.0  0     0     1011.7   NA       0.0000   9999     3050  0     0    
2019/07/08  09:32:01  BASE  2.0286   46   2.21088  45   -4.1  100   -4.1  0     0     1011.7   NA       0.0000   9999     3380  0     0    
2019/07/08  09:33:01  BASE  1.7934   39   2.21088  45   -4.2  100   -4.2  0     0     1011.7   NA       0.0000   9999     4330  0     0    
2019/07/08  09:34:01  BASE  1.66992  37   2.21088  45   -4.2  100   -4.2  0     0     1011.7   NA       0.0000   9999     4300  0     0    
2019/07/08  09:35:01  BASE  1.81692  39   2.21088  45   -4.2  100   -4.2  0     0     1011.7   NA       0.0000   9999     4330  0     0    
2019/07/08  09:36:01  BASE  1.90512  38   2.21088  45   -4.3  100   -4.3  0     0     1011.7   NA       0.0000   9999     3180  0     0    
2019/07/08  09:37:01  BASE  1.92864  36   2.21088  45   -4.3  100   -4.3  0     0     1011.7   NA       0.0000   9999     2920  0     0    
2019/07/08  09:38:01  BASE  1.9698   37   2.21088  45   -4.3  100   -4.3  0     0     1011.7   NA       0.0000   9999     2790  0     0    
2019/07/08  09:39:01  BASE  1.97568  38   2.21088  39   -4.4  100   -4.4  0     0     1011.7   NA       0.0000   9999     2620  0     0    
2019/07/08  09:40:01  BASE  1.9992   37   2.21088  39   -4.5  100   -4.5  0     0     1011.7   NA       0.0000   9999     2300  0     0    
2019/07/08  09:41:01  BASE  1.8522   40   2.21088  39   -4.5  100   -4.5  0     0     1011.7   NA       0.0000   9999     0     0     0    
2019/07/08  09:42:01  BASE  1.7934   42   2.21088  39   -4.5  100   -4.5  0     0     1011.7   NA       0.0000   9999     0     0     0    
2019/07/08  09:43:01  BASE  1.84044  37   2.21088  39   -4.5  100   -4.5  0     0     1011.7   NA       0.0000   9999     4430  0     0    
2019/07/08  09:44:01  BASE  1.7934   36   2.21088  39   -4.5  100   -4.5  0     0     1011.7   NA       0.0000   9999     0     0     0    
2019/07/08  09:45:01  BASE  1.78752  44   2.21088  39   -4.5  100   -4.5  0     0     1011.7   NA       0.0000   9999     0     0     0    
2019/07/08  09:46:01  BASE  1.86396  50   2.21088  39   -4.5  100   -4.5  0     0     1011.7   NA       0.0000   9999     0     0     0    
2019/07/08  09:47:01  BASE  2.0286   53   2.29908  53   -4.5  100   -4.5  0     0     1011.7   NA       0.0000   9999     0     0     0    
2019/07/08  09:48:01  BASE  1.9992   48   2.29908  53   -4.4  100   -4.4  0     0     1011.7   NA       0.0000   9999     0     0     0    
2019/07/08  09:49:01  BASE  1.87572  40   2.29908  53   -4.4  100   -4.4  0     0     1011.7   NA       0.0000   9999     0     0     0    
2019/07/08  09:50:01  BASE  1.83456  39   2.29908  53   -4.4  100   -4.4  0     0     1011.7   NA       0.0000   9999     0     0     0    
2019/07/08  09:51:01  BASE  1.77576  39   2.29908  53   -4.4  100   -4.4  0     0     1011.7   NA       0.0000   9999     0     0     0    
2019/07/08  09:52:01  BASE  1.72284  42   2.29908  53   -4.4  100   -4.4  0     0     1011.7   NA       0.0000   9999     0     0     0    
2019/07/08  09:53:01  BASE  1.80516  43   2.29908  53   -4.4  100   -4.4  0     0     1011.7   NA       0.0000   9999     0     0     0    
2019/07/08  09:54:01  BASE  1.90512  39   2.29908  53   -4.4  100   -4.4  0     0     1011.7   NA       0.0000   9999     0     0     0    
2019/07/08  09:55:01  BASE  1.90512  39   2.29908  53   -4.4  100   -4.4  0     0     1011.7   NA       0.0000   9999     0     0     0    
2019/07/08  09:56:01  BASE  1.91688  42   2.29908  53   -4.5  100   -4.5  0     0     1011.7   NA       0.0000   9999     0     0     0    
2019/07/08  09:57:01  BASE  2.0286   49   2.24028  53   -4.5  100   -4.5  0     0     1011.7   NA       0.0000   9999     0     0     0    
2019/07/08  09:58:01  BASE  1.99332  54   2.24028  53   -4.5  100   -4.5  0     0     1011.7   NA       0.0000   9999     0     0     0    
2019/07/08  09:59:01  BASE  1.82868  53   2.24028  53   -4.5  100   -4.5  0     0     1011.7   NA       0.0000   9999     0     0     0    
2019/07/08  10:00:01  BASE  1.79928  48   2.24028  53   -4.5  100   -4.5  0     0     1011.6   NA       0.0000   9999     0     0     0    
2019/07/08  10:01:01  BASE  1.7346   50   2.24028  53   -4.4  100   -4.4  0     0     1011.6   NA       0.0000   9999     0     0     0    
2019/07/08  10:02:01  BASE  1.68168  51   2.24028  53   -4.4  100   -4.4  0     0     1011.7   NA       0.0000   9999     0     0     0    
2019/07/08  10:03:01  BASE  1.8522   44   2.24028  53   -4.4  100   -4.4  0     0     1011.7   NA       0.0000   9999     0     0     0    
2019/07/08  10:04:01  BASE  1.95804  37   2.24028  53   -4.4  100   -4.4  0     0     1011.7   NA       0.0000   9999     0     0     0    
2019/07/08  10:05:01  BASE  1.90512  34   2.24028  53   -4.4  100   -4.4  0     0     1011.7   NA       0.0000   9999     0     0     0    
2019/07/08  10:06:01  BASE  1.98744  33   2.24028  37   -4.5  100   -4.5  0     0     1011.7   NA       0.0000   9999     0     0     0    
2019/07/08  10:07:01  BASE  2.04036  32   2.24028  37   -4.5  100   -4.5  0     0     1011.6   NA       0.0000   9999     0     0     0    
2019/07/08  10:08:01  BASE  1.9698   31   2.24028  37   -4.6  100   -4.6  0     0     1011.6   NA       0.0000   9999     4400  0     0    
2019/07/08  10:09:01  BASE  1.91688  31   2.24028  37   -4.6  100   -4.6  0     0     1011.6   NA       0.0000   9999     4330  0     0    
2019/07/08  10:10:01  BASE  2.00508  31   2.29908  29   -4.5  100   -4.5  0     0     1011.6   NA       0.0000   9999     0     0     0    
2019/07/08  10:11:01  BASE  2.26968  31   2.48136  33   -4.6  100   -4.6  0     0     1011.6   NA       0.0000   9999     0     0     0    
2019/07/08  10:12:01  BASE  2.37552  35   2.48136  33   -4.6  100   -4.6  0     0     1011.6   NA       0.0000   9999     4230  0     0    
2019/07/08  10:13:01  BASE  2.352    40   2.54016  44   -4.7  100   -4.7  0     0     1011.5   NA       0.0000   9999     0     0     0    
2019/07/08  10:14:01  BASE  2.42256  46   2.63424  52   -4.7  100   -4.7  0     0     1011.5   NA       0.0000   9999     0     0     0    
2019/07/08  10:15:01  BASE  2.42256  51   2.63424  52   -4.8  100   -4.8  0     0     1011.5   NA       0.0000   9999     0     0     0    
2019/07/08  10:16:01  BASE  2.30496  53   2.63424  52   -4.8  100   -4.8  0     0     1011.5   NA       0.0000   9999     0     0     0    
2019/07/08  10:17:01  BASE  2.14032  50   2.63424  52   -4.8  100   -4.8  0     0     1011.5   NA       0.0000   9999     0     0     0    
2019/07/08  10:18:01  BASE  1.99332  46   2.63424  52   -4.7  100   -4.7  0     0     1011.5   NA       0.0000   9999     0     0     0    
2019/07/08  10:19:01  BASE  1.8228   43   2.63424  52   -4.7  100   -4.7  0     0     1011.6   NA       0.0000   9999     0     0     0    
2019/07/08  10:20:01  BASE  1.58172  41   2.63424  52   -4.6  100   -4.6  0     0     1011.6   NA       0.0000   9999     0     0     0    
2019/07/08  10:21:01  BASE  1.32888  41   2.63424  52   -4.6  100   -4.6  0     0     1011.6   NA       0.0000   9999     0     0     0    
2019/07/08  10:22:01  BASE  1.0878   42   2.63424  52   -4.6  100   -4.6  0     0     1011.6   NA       0.0000   9999     0     0     0    
2019/07/08  10:23:01  BASE  0.98196  44   2.63424  52   -4.5  100   -4.5  0     0     1011.6   NA       0.0000   9999     0     0     0    
2019/07/08  10:24:01  BASE  1.03488  44   2.54016  52   -4.5  100   -4.5  0     0     1011.6   NA       0.0000   9999     0     0     0    
2019/07/08  10:25:01  BASE  1.14072  45   2.42256  59   -4.4  100   -4.4  0     0     1011.6   NA       0.0000   9999     0     0     0    
2019/07/08  10:26:01  BASE  1.25244  48   2.29908  50   -4.4  100   -4.4  0     0     1011.6   NA       0.0000   9999     0     0     0    
2019/07/08  10:27:01  BASE  1.34064  48   1.9992   44   -4.4  100   -4.4  0     0     1011.6   NA       0.0000   9999     0     0     0    
2019/07/08  10:28:01  BASE  1.38768  49   1.78752  44   -4.4  100   -4.4  0     0     1011.6   NA       0.0000   9999     0     0     0    
2019/07/08  10:29:01  BASE  1.3818   53   1.60524  41   -4.3  100   -4.3  0     0     1011.6   NA       0.0000   9999     0     0     0    
2019/07/08  10:30:01  BASE  1.42296  55   1.54056  61   -4.3  100   -4.3  0     0     1011.6   NA       0.0000   9999     0     0     0    
2019/07/08  10:31:01  BASE  1.46412  59   1.54056  61   -4.2  100   -4.2  0     0     1011.6   NA       0.0000   9999     4430  0     0    
2019/07/08  10:32:01  BASE  1.39356  63   1.54056  61   -4.2  100   -4.2  0     0     1011.6   NA       0.0000   9999     4430  0     0    
2019/07/08  10:33:01  BASE  1.36416  67   1.54056  61   -4.2  100   -4.2  0     0     1011.6   NA       0.0000   9999     4460  0     0    
2019/07/08  10:34:01  BASE  1.37004  67   1.54056  61   -4.2  100   -4.2  0     0     1011.6   NA       0.0000   9999     4430  0     0    
2019/07/08  10:35:01  BASE  1.45236  66   1.66404  66   -4.2  100   -4.2  0     0     1011.6   NA       0.0000   9999     4360  0     0    
2019/07/08  10:36:01  BASE  1.58172  64   1.72284  61   -4.2  100   -4.2  0     0     1011.6   NA       0.0000   9999     4400  0     0    
2019/07/08  10:37:01  BASE  1.66992  60   1.81692  60   -4.2  100   -4.2  0     0     1011.6   NA       0.0000   9999     4270  0     0    
2019/07/08  10:38:01  BASE  1.72872  57   1.81692  52   -4.2  100   -4.2  0     0     1011.6   NA       0.0000   9999     4300  0     0    
2019/07/08  10:39:01  BASE  1.72872  55   1.84632  60   -4.2  100   -4.2  0     0     1011.6   NA       0.0000   9999     4300  0     0    
2019/07/08  10:40:01  BASE  1.66404  55   1.84632  60   -4.2  100   -4.2  0     0     1011.6   NA       0.0000   9999     4270  0     0    
2019/07/08  10:41:01  BASE  1.60524  54   1.84632  60   -4.2  100   -4.2  0     0     1011.7   NA       0.0000   9999     4270  0     0    
2019/07/08  10:42:01  BASE  1.53468  51   1.84632  60   -4.2  100   -4.2  0     0     1011.7   NA       0.0000   9999     4300  0     0    
2019/07/08  10:43:01  BASE  1.4112   50   1.84632  60   -4.2  100   -4.2  0     0     1011.7   NA       0.0000   9999     4300  0     0    
2019/07/08  10:44:01  BASE  1.40532  50   1.84632  60   -4.2  100   -4.2  0     0     1011.7   NA       0.0000   9999     4330  0     0    
2019/07/08  10:45:01  BASE  1.45236  47   1.84632  60   -4.2  100   -4.2  0     0     1011.7   NA       0.0000   9999     4330  0     0    
2019/07/08  10:46:01  BASE  1.45236  40   1.84632  60   -4.3  100   -4.3  0     0     1011.7   NA       0.0000   9999     4230  0     0    
2019/07/08  10:47:01  BASE  1.42884  34   1.84632  60   -4.4  100   -4.4  0     0     1011.7   NA       0.0000   9999     4130  0     0    
2019/07/08  10:48:01  BASE  1.39944  34   1.84632  60   -4.4  100   -4.4  0     0     1011.7   NA       0.0000   9999     4230  0     0    
2019/07/08  10:49:01  BASE  1.45236  38   1.81692  55   -4.5  100   -4.5  0     0     1011.7   NA       0.0000   9999     4230  0     0    
2019/07/08  10:50:01  BASE  1.5582   41   1.75224  45   -4.6  100   -4.6  0     0     1011.7   NA       0.0000   9999     4360  0     0    
2019/07/08  10:51:01  BASE  1.66992  44   1.81692  47   -4.6  100   -4.6  0     0     1011.7   NA       0.0000   9999     4270  0     0    
2019/07/08  10:52:01  BASE  1.78752  52   1.87572  62   -4.5  100   -4.5  0     0     1011.7   NA       0.0000   9999     4400  0     0    
2019/07/08  10:53:01  BASE  1.74636  59   1.87572  62   -4.5  100   -4.5  0     0     1011.7   NA       0.0000   9999     0     0     0    
2019/07/08  10:54:01  BASE  1.5582   61   1.87572  62   -4.4  100   -4.4  0     0     1011.7   NA       0.0000   9999     4460  0     0    
2019/07/08  10:55:01  BASE  1.39944  63   1.87572  62   -4.3  100   -4.3  0     0     1011.7   NA       0.0000   9999     0     0     0    
2019/07/08  10:56:01  BASE  1.39356  67   1.87572  62   -4.3  100   -4.3  0     0     1011.6   NA       0.0000   9999     0     0     0    
2019/07/08  10:57:01  BASE  1.40532  60   1.87572  62   -4.2  100   -4.2  0     0     1011.6   NA       0.0000   9999     0     0     0    
2019/07/08  10:58:01  BASE  1.25832  55   1.87572  62   -4.2  100   -4.2  0     0     1011.6   NA       0.0000   9999     0     0     0    
2019/07/08  10:59:01  BASE  1.19952  59   1.87572  62   -4.2  100   -4.2  0     0     1011.6   NA       0.0000   9999     0     0     0    
2019/07/08  11:00:01  BASE  1.44648  53   1.87572  62   -4.2  100   -4.2  0     0     1011.6   NA       0.0000   9999     0     0     0    
2019/07/08  11:01:01  BASE  1.69344  42   1.87572  62   -4.2  100   -4.2  0     0     1011.6   NA       0.0000   9999     0     0     0    
2019/07/08  11:02:01  BASE  1.72872  39   1.81692  41   -4.2  100   -4.2  0     0     1011.6   NA       0.0000   9999     0     0     0    
2019/07/08  11:03:01  BASE  1.7346   35   1.81692  34   -4.3  100   -4.3  0     0     1011.7   NA       0.0000   9999     0     0     0    
2019/07/08  11:04:01  BASE  1.71108  30   1.81692  34   -4.4  100   -4.4  0     0     1011.7   NA       0.0000   9999     0     0     0    
2019/07/08  11:05:01  BASE  1.6464   27   1.81692  34   -4.4  100   -4.4  0     0     1011.7   NA       0.0000   9999     0     0     0    
2019/07/08  11:06:01  BASE  1.60524  32   1.81692  34   -4.5  100   -4.5  0     0     1011.7   NA       0.0000   9999     0     0     0    
2019/07/08  11:07:01  BASE  1.55232  35   1.81692  34   -4.5  100   -4.5  0     0     1011.7   NA       0.0000   9999     0     0     0    
2019/07/08  11:08:01  BASE  1.51116  36   1.81692  37   -4.5  100   -4.5  0     0     1011.7   NA       0.0000   9999     0     0     0    
2019/07/08  11:09:01  BASE  1.66404  36   2.1462   28   -4.5  100   -4.5  0     0     1011.7   NA       0.0000   9999     0     0     0    
2019/07/08  11:10:01  BASE  1.86984  32   2.1462   28   -4.5  100   -4.5  0     0     1011.7   NA       0.0000   9999     0     0     0    
2019/07/08  11:11:01  BASE  1.82868  28   2.1462   28   -4.5  100   -4.5  0     0     1011.7   NA       0.0000   9999     0     0     0    
2019/07/08  11:12:01  BASE  1.61112  27   2.1462   28   -4.5  100   -4.5  0     0     1011.7   NA       0.0000   9999     0     0     0    
2019/07/08  11:13:01  BASE  1.37004  31   2.1462   28   -4.5  100   -4.5  0     0     1011.7   NA       0.0000   9999     0     0     0    
2019/07/08  11:14:01  BASE  1.19364  30   2.1462   28   -4.6  100   -4.6  0     0     1011.7   NA       0.0000   9999     0     0     0    
2019/07/08  11:15:01  BASE  1.06428  26   2.1462   28   -4.5  100   -4.5  0     0     1011.7   NA       0.0000   9999     0     0     0    
2019/07/08  11:16:01  BASE  0.93492  24   2.1462   28   -4.5  100   -4.5  0     0     1011.7   NA       0.0000   9999     0     0     0    
2019/07/08  11:17:01  BASE  0.86436  24   2.1462   28   -4.4  100   -4.4  0     0     1011.7   NA       0.0000   9999     0     0     0    
2019/07/08  11:18:01  BASE  0.8526   22   2.1462   28   -4.3  100   -4.3  0     0     1011.7   NA       0.0000   9999     0     0     0    
2019/07/08  11:19:01  BASE  0.80556  21   2.0874   30   -4.2  100   -4.2  0     0     1011.7   NA       0.0000   9999     0     0     0    
2019/07/08  11:20:01  BASE  0.87612  24   1.90512  28   -4.2  100   -4.2  0     0     1011.7   NA       0.0000   9999     0     0     0    
2019/07/08  11:21:01  BASE  0.96432  28   1.63464  26   -4.2  100   -4.2  0     0     1011.7   NA       0.0000   9999     0     0     0    
2019/07/08  11:22:01  BASE  0.99372  33   1.42296  33   -4.1  100   -4.1  0     0     1011.7   NA       0.0000   9999     0     0     0    
2019/07/08  11:23:01  BASE  0.97608  40   1.29948  21   -4.1  100   -4.1  0     0     1011.7   NA       0.0000   9999     0     0     0    
2019/07/08  11:24:01  BASE  0.9702   45   1.18188  26   -4.1  100   -4.1  0     0     1011.8   NA       0.0000   9999     0     0     0    
2019/07/08  11:25:01  BASE  1.00548  49   1.1466   35   -4.2  100   -4.2  0     0     1011.9   NA       0.0000   9999     0     0     0    
2019/07/08  11:26:01  BASE  0.95844  55   1.1466   35   -4.2  100   -4.2  0     0     1011.9   NA       0.0000   9999     0     0     0    
2019/07/08  11:27:01  BASE  0.9702   57   1.1466   35   -4.2  100   -4.2  0     0     1011.9   NA       0.0000   9999     0     0     0    
2019/07/08  11:28:01  BASE  1.04664  54   1.21128  55   -4.1  100   -4.1  0     0     1011.9   NA       0.0000   9999     0     0     0    
2019/07/08  11:29:01  BASE  1.09368  52   1.29948  55   -4.1  100   -4.1  0     0     1011.9   NA       0.0000   9999     0     0     0    
2019/07/08  11:30:01  BASE  1.0878   49   1.29948  55   -4.1  100   -4.1  0     0     1012.0   NA       0.0000   9999     0     0     0    
2019/07/08  11:31:01  BASE  1.07604  49   1.29948  55   -4.1  100   -4.1  0     0     1012.0   NA       0.0000   9999     0     0     0    
2019/07/08  11:32:01  BASE  0.98196  53   1.29948  55   -4.2  100   -4.2  0     0     1012.0   NA       0.0000   9999     0     0     0    
2019/07/08  11:33:01  BASE  0.91728  57   1.29948  55   -4.2  100   -4.2  0     0     1012.0   NA       0.0000   9999     0     0     0    
2019/07/08  11:34:01  BASE  0.95844  60   1.29948  55   -4.3  100   -4.3  0     0     1012.1   NA       0.0000   9999     0     0     0    
2019/07/08  11:35:01  BASE  0.92904  58   1.29948  55   -4.3  100   -4.3  0     0     1012.1   NA       0.0000   9999     0     0     0    
2019/07/08  11:36:01  BASE  0.87024  59   1.29948  55   -4.3  100   -4.3  0     0     1012.1   NA       0.0000   9999     0     0     0    
2019/07/08  11:37:01  BASE  0.77616  71   1.29948  55   -4.3  100   -4.3  0     0     1012.1   NA       0.0000   9999     0     0     0    
2019/07/08  11:38:01  BASE  0.35868  85   1.29948  55   -4.3  100   -4.3  0     0     1012.1   NA       0.0000   9999     0     0     0    
2019/07/08  11:39:01  BASE  0.07644  76   1.27008  54   -4.3  100   -4.3  0     0     1012.1   NA       0.0000   9999     0     0     0    
2019/07/08  11:40:01  BASE  0.24696  71   1.27008  54   -4.3  100   -4.3  0     0     1012.0   NA       0.0000   9999     0     0     0    
2019/07/08  11:41:01  BASE  0.47628  80   1.0878   63   -4.3  100   -4.3  0     0     1012.0   NA       0.0000   9999     0     0     0    
2019/07/08  11:42:01  BASE  0.4998   74   1.0878   63   -4.3  100   -4.3  0     0     1012.0   NA       0.0000   9999     0     0     0    
2019/07/08  11:43:01  BASE  0.34104  66   1.0878   63   -4.3  100   -4.3  0     0     1012.0   NA       0.0000   9999     0     0     0    
2019/07/08  11:44:01  BASE  0.19404  60   0.9996   54   -4.3  100   -4.3  0     0     1012.0   NA       0.0000   9999     0     0     0    
2019/07/08  11:45:01  BASE  0.43512  73   0.9702   54   -4.3  100   -4.3  0     0     1012.0   NA       0.0000   9999     0     0     0    
2019/07/08  11:46:01  BASE  0.87612  85   1.35828  76   -4.2  100   -4.2  0     0     1012.1   NA       0.0000   9999     0     0     0    
2019/07/08  11:47:01  BASE  1.24656  75   1.75224  68   -4.2  100   -4.2  0     0     1012.1   NA       0.0000   9999     0     0     0    
2019/07/08  11:48:01  BASE  1.62288  65   1.81692  62   -4.2  100   -4.2  0     0     1012.1   NA       0.0000   9999     0     0     0    
2019/07/08  11:49:01  BASE  1.59348  59   1.81692  62   -4.2  100   -4.2  0     0     1012.1   NA       0.0000   9999     0     0     0    
2019/07/08  11:50:01  BASE  1.42884  53   1.81692  62   -4.3  100   -4.3  0     0     1012.1   NA       0.0000   9999     0     0     0    
2019/07/08  11:51:01  BASE  1.45824  52   1.93452  52   -4.3  100   -4.3  0     0     1012.1   NA       0.0000   9999     0     0     0    
2019/07/08  11:52:01  BASE  1.50528  52   1.93452  52   -4.4  100   -4.4  0     0     1012.1   NA       0.0000   9999     0     0     0    
2019/07/08  11:53:01  BASE  1.47     54   1.93452  52   -4.5  100   -4.5  0     0     1012.1   NA       0.0000   9999     0     0     0    
2019/07/08  11:54:01  BASE  1.44648  56   1.93452  52   -4.5  100   -4.5  0     0     1012.1   NA       0.0000   9999     0     0     0    
2019/07/08  11:55:01  BASE  1.47588  61   1.93452  52   -4.5  100   -4.5  0     0     1012.1   NA       0.0000   9999     0     0     0    
2019/07/08  11:56:01  BASE  1.37592  73   1.93452  52   -4.4  100   -4.4  0     0     1012.1   NA       0.0000   9999     0     0     0    
2019/07/08  11:57:01  BASE  1.22892  84   1.93452  52   -4.4  100   -4.4  0     0     1012.2   NA       0.0000   9999     0     0     0    
2019/07/08  11:58:01  BASE  1.25244  76   1.93452  52   -4.3  100   -4.3  0     0     1012.2   NA       0.0000   9999     0     0     0    
2019/07/08  11:59:01  BASE  1.31712  55   1.93452  52   -4.3  100   -4.3  0     0     1012.2   NA       0.0000   9999     0     0     0    
2019/07/08  12:00:01  BASE  1.42296  47   1.93452  52   -4.3  100   -4.3  0     0     1012.2   NA       0.0000   9999     0     0     0    
2019/07/08  12:01:01  BASE  1.47588  44   1.69344  76   -4.4  100   -4.4  0     0     1012.2   NA       0.0000   9999     0     0     0    
2019/07/08  12:02:01  BASE  1.55232  47   1.78752  52   -4.4  100   -4.4  0     0     1012.2   NA       0.0000   9999     0     0     0    
2019/07/08  12:03:01  BASE  1.57584  50   1.78752  52   -4.5  100   -4.5  0     0     1012.2   NA       0.0000   9999     0     0     0    
2019/07/08  12:04:01  BASE  1.4994   51   1.78752  52   -4.5  100   -4.5  0     0     1012.2   NA       0.0000   9999     0     0     0    
2019/07/08  12:05:01  BASE  1.47     55   1.78752  52   -4.5  100   -4.5  0     0     1012.2   NA       0.0000   9999     0     0     0    
2019/07/08  12:06:01  BASE  1.45824  66   1.78752  52   -4.5  100   -4.5  0     0     1012.2   NA       0.0000   9999     0     0     0    
2019/07/08  12:07:01  BASE  1.323    82   1.78752  52   -4.4  100   -4.4  0     0     1012.2   NA       0.0000   9999     0     0     0    
2019/07/08  12:08:01  BASE  1.31124  91   1.78752  52   -4.3  100   -4.3  0     0     1012.2   NA       0.0000   9999     0     0     0    
2019/07/08  12:09:01  BASE  1.2936   98   1.78752  52   -4.3  100   -4.3  0     0     1012.2   NA       0.0000   9999     0     0     0    
2019/07/08  12:10:01  BASE  1.06428  90   1.78752  52   -4.2  100   -4.2  0     0     1012.2   NA       0.0000   9999     0     0     0    
2019/07/08  12:11:01  BASE  1.14072  90   1.78752  52   -4.2  100   -4.2  0     0     1012.2   NA       0.0000   9999     0     0     0    
2019/07/08  12:12:01  BASE  1.19952  103  1.69344  100  -4.3  100   -4.3  0     0     1012.2   NA       0.0000   9999     0     0     0    
2019/07/08  12:13:01  BASE  1.27596  114  1.69344  100  -4.3  100   -4.3  0     0     1012.2   NA       0.0000   9999     0     0     0    
2019/07/08  12:14:01  BASE  1.41708  115  1.69344  100  -4.3  100   -4.3  0     0     1012.2   NA       0.0000   9999     0     0     0    
2019/07/08  12:15:01  BASE  1.323    110  1.69344  100  -4.3  100   -4.3  0     0     1012.2   NA       0.0000   9999     0     0     0    
2019/07/08  12:16:01  BASE  1.25244  112  1.69344  100  -4.3  100   -4.3  0     0     1012.2   NA       0.0000   9999     0     0     0    
2019/07/08  12:17:01  BASE  1.3524   115  1.69344  100  -4.2  100   -4.2  0     0     1012.2   NA       0.0000   9999     0     0     0    
2019/07/08  12:18:01  BASE  1.53468  118  1.75224  122  -4.2  100   -4.2  0     0     1012.2   NA       0.0000   9999     0     0     0    
2019/07/08  12:19:01  BASE  1.72284  121  1.90512  122  -4.3  100   -4.3  0     0     1012.2   NA       0.0000   9999     0     0     0    
2019/07/08  12:20:01  BASE  1.81692  123  1.96392  119  -4.3  100   -4.3  0     0     1012.2   NA       0.0000   9999     0     0     0    
2019/07/08  12:21:01  BASE  1.77576  121  1.96392  119  -4.3  100   -4.3  0     0     1012.2   NA       0.0000   9999     0     0     0    
2019/07/08  12:22:01  BASE  1.7346   120  1.96392  119  -4.4  100   -4.4  0     0     1012.2   NA       0.0000   9999     0     0     0    
2019/07/08  12:23:01  BASE  1.59936  117  1.96392  119  -4.3  100   -4.3  0     0     1012.2   NA       0.0000   9999     0     0     0    
2019/07/08  12:24:01  BASE  1.43472  114  1.96392  119  -4.3  100   -4.3  0     0     1012.3   NA       0.0000   9999     0     0     0    
2019/07/08  12:25:01  BASE  1.37004  114  1.96392  119  -4.2  100   -4.2  0     0     1012.3   NA       0.0000   9999     0     0     0    
2019/07/08  12:26:01  BASE  1.38768  114  1.96392  119  -4.1  100   -4.1  0     0     1012.3   NA       0.0000   9999     0     0     0    
2019/07/08  12:27:01  BASE  1.47588  113  1.96392  119  -4.1  100   -4.1  0     0     1012.3   NA       0.0000   9999     0     0     0    
2019/07/08  12:28:01  BASE  1.51704  112  1.96392  119  -4.1  100   -4.1  0     0     1012.3   NA       0.0000   9999     0     0     0    
2019/07/08  12:29:01  BASE  1.58172  111  1.96392  119  -4.1  100   -4.1  0     0     1012.3   NA       0.0000   9999     0     0     0    
2019/07/08  12:30:01  BASE  1.62876  109  1.90512  110  -4.2  100   -4.2  0     0     1012.3   NA       0.0000   9999     0     0     0    
2019/07/08  12:31:01  BASE  1.60524  105  1.90512  110  -4.3  100   -4.3  0     0     1012.3   NA       0.0000   9999     0     0     0    
2019/07/08  12:32:01  BASE  1.62876  100  1.90512  110  -4.4  100   -4.4  0     0     1012.3   NA       0.0000   9999     0     0     0    
2019/07/08  12:33:01  BASE  1.64052  78   1.90512  110  -4.4  100   -4.4  0     0     1012.3   NA       0.0000   9999     0     0     0    
2019/07/08  12:34:01  BASE  1.82868  60   2.32848  67   -4.4  100   -4.4  0     0     1012.3   NA       0.0000   9999     0     0     0    
2019/07/08  12:35:01  BASE  1.91688  61   2.32848  67   -4.4  100   -4.4  0     0     1012.3   NA       0.0000   9999     0     0     0    
2019/07/08  12:36:01  BASE  1.7346   67   2.32848  67   -4.4  100   -4.4  0     0     1012.3   NA       0.0000   9999     0     0     0    
2019/07/08  12:37:00  BASE  1.62876  73   2.32848  67   -4.4  100   -4.4  0     0     1012.3   NA       0.0000   9999     0     0     0    
2019/07/08  12:38:01  BASE  1.78752  78   2.32848  67   -4.4  100   -4.4  0     0     1012.3   NA       0.0000   9999     0     0     0    
2019/07/08  12:39:00  BASE  1.92864  93   2.32848  67   -4.4  100   -4.4  0     0     1012.3   NA       0.0000   9999     0     0     0    
2019/07/08  12:40:01  BASE  1.9698   108  2.32848  67   -4.5  100   -4.5  0     0     1012.2   NA       0.0000   9999     0     0     0    
2019/07/08  12:41:01  BASE  1.8228   114  2.32848  67   -4.6  100   -4.6  0     0     1012.2   NA       0.0000   9999     0     0     0    
2019/07/08  12:42:01  BASE  1.58172  118  2.32848  67   -4.7  100   -4.7  0     0     1012.2   NA       0.0000   9999     0     0     0    
2019/07/08  12:43:00  BASE  1.85808  120  2.38728  114  -4.8  100   -4.8  0     0     1012.2   NA       0.0000   9999     0     0     0    
2019/07/08  12:44:00  BASE  2.058    119  2.38728  114  -4.9  100   -4.9  0     0     1012.2   NA       0.0000   9999     0     0     0    
2019/07/08  12:45:01  BASE  2.03448  118  2.38728  114  -4.9  100   -4.9  0     0     1012.2   NA       0.0000   9999     0     0     0    
2019/07/08  12:46:00  BASE  2.18736  117  2.51076  118  -4.9  100   -4.9  0     0     1012.2   NA       0.0000   9999     0     0     0    
2019/07/08  12:47:01  BASE  2.32848  116  2.51076  118  -5.0  100   -5.0  0     0     1012.2   NA       0.0000   9999     0     0     0    
2019/07/08  12:48:01  BASE  2.2932   114  2.51076  118  -5.0  100   -5.0  0     0     1012.2   NA       0.0000   9999     0     0     0    
2019/07/08  12:49:00  BASE  2.19324  113  2.51076  118  -4.8  100   -4.8  0     0     1012.2   NA       0.0000   9999     0     0     0    
2019/07/08  12:50:01  BASE  2.058    113  2.51076  118  -4.6  100   -4.6  0     0     1012.2   NA       0.0000   9999     0     0     0    
2019/07/08  12:51:00  BASE  1.93452  113  2.51076  118  -4.4  100   -4.4  0     0     1012.2   NA       0.0000   9999     0     0     0    
2019/07/08  12:52:01  BASE  1.92864  115  2.51076  118  -4.0  100   -4.0  0     0     1012.2   NA       0.0000   9999     0     0     0    
2019/07/08  12:53:00  BASE  1.94628  119  2.51076  118  -3.7  100   -3.7  0     0     1012.2   NA       0.0000   9999     0     0     0    
2019/07/08  12:54:01  BASE  1.9404   120  2.51076  118  -3.6  100   -3.6  0     0     1012.2   NA       0.0000   9999     0     0     0    
2019/07/08  12:55:01  BASE  1.95216  121  2.51076  118  -3.6  100   -3.6  0     0     1012.2   NA       0.0000   9999     0     0     0    
2019/07/08  12:56:00  BASE  1.92276  120  2.38728  116  -3.7  100   -3.7  0     0     1012.2   NA       0.0000   9999     0     0     0    
2019/07/08  12:57:00  BASE  1.82868  121  2.32848  115  -3.8  100   -3.8  0     0     1012.2   NA       0.0000   9999     0     0     0    
2019/07/08  12:58:01  BASE  1.74636  122  2.21088  112  -3.8  100   -3.8  0     0     1012.2   NA       0.0000   9999     0     0     0    
2019/07/08  12:59:00  BASE  1.62288  120  2.0874   116  -3.7  100   -3.7  1     0     1012.2   NA       0.0000   9999     0     0     0    
2019/07/08  13:00:01  BASE  1.47588  116  2.058    119  -3.6  100   -3.6  1     0     1012.2   NA       0.0000   9999     0     0     0    
2019/07/08  13:01:00  BASE  1.37004  115  2.058    119  -3.6  100   -3.6  1     0     1012.2   NA       0.0000   9999     0     0     0    
2019/07/08  13:02:00  BASE  1.19364  110  2.058    119  -3.6  100   -3.6  1     0     1012.2   NA       0.0000   9999     0     0     0    
2019/07/08  13:03:00  BASE  1.176    98   2.058    119  -3.6  100   -3.6  1     0     1012.2   NA       0.0000   9999     0     0     0    
2019/07/08  13:04:00  BASE  1.39944  73   2.058    119  -3.7  100   -3.7  1     0     1012.2   NA       0.0000   9999     0     0     0    
2019/07/08  13:05:01  BASE  1.51116  55   1.9992   120  -3.8  100   -3.8  1     0     1012.1   NA       0.0000   9999     0     0     0    
2019/07/08  13:06:00  BASE  1.38768  53   1.90512  121  -3.9  100   -3.9  1     0     1012.2   NA       0.0000   9999     0     0     0    
2019/07/08  13:07:01  BASE  1.4112   51   1.87572  52   -4.0  100   -4.0  1     0     1012.2   NA       0.0000   9999     0     0     0    
2019/07/08  13:08:00  BASE  1.48176  49   1.87572  52   -4.2  100   -4.2  1     0     1012.2   NA       0.0000   9999     0     0     0    
2019/07/08  13:09:00  BASE  1.4994   53   1.87572  52   -4.2  100   -4.2  2     0     1012.2   NA       0.0000   9999     0     0     0    
2019/07/08  13:10:01  BASE  1.323    60   1.87572  52   -4.3  100   -4.3  2     0     1012.2   NA       0.0000   9999     0     0     0    
2019/07/08  13:11:01  BASE  1.05252  53   1.87572  52   -4.4  100   -4.4  2     0     1012.2   NA       0.0000   9999     0     0     0    
2019/07/08  13:12:00  BASE  1.13484  48   1.87572  52   -4.5  100   -4.5  2     0     1012.2   NA       0.0000   9999     0     0     0    
2019/07/08  13:13:00  BASE  1.04664  57   1.87572  52   -4.6  100   -4.6  2     0     1012.2   NA       0.0000   9999     0     0     0    
2019/07/08  13:14:01  BASE  0.94668  51   1.87572  52   -4.6  100   -4.6  2     0     1012.1   NA       0.0000   9999     0     0     0    
2019/07/08  13:15:00  BASE  1.0878   36   1.87572  52   -4.7  100   -4.7  2     0     1012.1   NA       0.0000   9999     0     0     0    
2019/07/08  13:16:01  BASE  1.12308  35   1.87572  52   -4.8  100   -4.8  3     0     1012.1   NA       0.0000   9999     0     0     0    
2019/07/08  13:17:00  BASE  1.176    38   1.81692  64   -4.8  100   -4.8  3     0     1012.1   NA       0.0000   9999     0     0     0    
2019/07/08  13:18:01  BASE  1.22892  38   1.81692  64   -4.8  100   -4.8  3     0     1012.1   NA       0.0000   9999     0     0     0    
2019/07/08  13:19:00  BASE  1.1466   42   1.63464  81   -4.8  100   -4.8  3     0     1012.1   NA       0.0000   9999     0     0     0    
2019/07/08  13:20:01  BASE  1.01724  40   1.63464  81   -4.8  100   -4.8  3     0     1012.1   NA       0.0000   9999     0     0     0    
2019/07/08  13:21:00  BASE  1.06428  28   1.63464  81   -4.8  100   -4.8  3     0     1012.1   NA       0.0000   9999     0     0     0    
2019/07/08  13:22:00  BASE  1.15836  18   1.35828  20   -4.8  100   -4.8  3     0     1012.1   NA       0.0000   9999     0     0     0    
2019/07/08  13:23:00  BASE  1.0584   9    1.35828  20   -4.7  100   -4.7  3     0     1012.1   NA       0.0000   9999     0     0     0    
2019/07/08  13:24:00  BASE  1.04076  358  1.35828  20   -4.7  100   -4.7  4     0     1012.1   NA       0.0000   9999     0     0     0    
2019/07/08  13:25:01  BASE  1.12896  353  1.35828  20   -4.7  100   -4.7  4     0     1012.1   NA       0.0000   9999     0     0     0    
2019/07/08  13:26:00  BASE  1.2054   352  1.35828  20   -4.7  100   -4.7  4     0     1012.1   NA       0.0000   9999     0     0     0    
2019/07/08  13:27:00  BASE  1.18776  344  1.35828  20   -4.7  100   -4.7  4     0     1012.1   NA       0.0000   9999     0     0     0    
2019/07/08  13:28:00  BASE  1.15836  340  1.35828  20   -4.7  100   -4.7  4     0     1012.2   NA       0.0000   9999     0     0     0    
2019/07/08  13:29:00  BASE  1.1466   350  1.35828  20   -4.7  100   -4.7  4     0     1012.1   NA       0.0000   9999     0     0     0    
2019/07/08  13:30:00  BASE  1.04076  1    1.35828  20   -4.7  100   -4.7  4     0     1012.1   NA       0.0000   9999     0     0     0    
2019/07/08  13:31:00  BASE  0.92904  8    1.35828  20   -4.7  99    -4.8  4     0     1012.1   NA       0.0000   9999     0     0     0    
2019/07/08  13:32:00  BASE  0.87024  15   1.32888  349  -4.7  99    -4.8  4     0     1012.1   NA       0.0000   9999     0     0     0    
2019/07/08  13:33:00  BASE  0.89376  13   1.32888  349  -4.7  99    -4.9  4     0     1012.1   NA       0.0000   9999     0     0     0    
2019/07/08  13:34:00  BASE  0.88788  11   1.32888  349  -4.7  99    -4.9  5     0     1012.1   NA       0.0000   9999     0     0     0    
2019/07/08  13:35:00  BASE  0.7938   9    1.32888  349  -4.7  98    -4.9  5     0     1012.1   NA       0.0000   9999     0     0     0    
2019/07/08  13:36:00  BASE  0.72912  4    1.32888  349  -4.7  98    -5.0  5     0     1012.1   NA       0.0000   9999     0     0     0    
2019/07/08  13:37:00  BASE  0.77028  4    1.32888  349  -4.7  98    -5.0  5     0     1012.1   NA       0.0000   9999     0     0     0    
2019/07/08  13:38:01  BASE  0.7644   7    1.32888  349  -4.7  98    -5.0  5     0     1012.2   NA       0.0000   9999     0     0     0    
2019/07/08  13:39:00  BASE  0.57036  10   1.0878   7    -4.7  98    -5.0  5     0     1012.2   NA       0.0000   9999     0     0     0    
2019/07/08  13:40:00  BASE  0.39984  12   1.0878   7    -4.7  98    -5.0  5     0     1012.2   NA       0.0000   9999     0     0     0    
2019/07/08  13:41:00  BASE  0.34104  7    1.0878   7    -4.7  97    -5.0  5     0     1012.2   NA       0.0000   9999     0     0     0    
2019/07/08  13:42:00  BASE  0.3234   355  1.0878   7    -4.7  97    -5.0  5     0     1012.2   NA       0.0000   9999     0     0     0    
2019/07/08  13:43:00  BASE  0.24108  347  0.9702   13   -4.6  97    -5.1  5     0     1012.2   NA       0.0000   9999     0     0     0    
2019/07/08  13:44:00  BASE  0.07644  346  0.87612  9    -4.6  97    -5.1  5     0     1012.2   NA       0.0000   9999     0     0     0    
2019/07/08  13:45:00  BASE  0        344  0.87612  9    -4.6  96    -5.1  5     0     1012.2   NA       0.0000   9999     0     0     0    
2019/07/08  13:46:00  BASE  0        341  0.87612  9    -4.6  96    -5.1  5     0     1012.2   NA       0.0000   9999     0     0     0    
2019/07/08  13:47:00  BASE  0        337  0.84672  2    -4.5  96    -5.1  6     0     1012.2   NA       0.0000   9999     0     0     0    
2019/07/08  13:48:00  BASE  0        331  0.69384  346  -4.5  96    -5.1  6     0     1012.2   NA       0.0000   9999     0     0     0    
2019/07/08  13:49:00  BASE  0        328  0.69384  346  -4.5  95    -5.1  6     0     1012.2   NA       0.0000   9999     0     0     0    
2019/07/08  13:50:01  BASE  0        328  0.69384  346  -4.5  95    -5.2  6     0     1012.2   NA       0.0000   9999     0     0     0    
2019/07/08  13:51:00  BASE  0        326  0.69384  346  -4.6  95    -5.3  6     0     1012.2   NA       0.0000   9999     0     0     0    
2019/07/08  13:52:00  BASE  0        322  0.63504  345  -4.6  95    -5.3  6     0     1012.2   NA       0.0000   9999     0     0     0    
2019/07/08  13:53:00  BASE  0.02352  320  0.60564  321  -4.6  94    -5.4  6     0     1012.2   NA       0.0000   9999     0     0     0    
2019/07/08  13:54:00  BASE  0.02352  322  0.60564  321  -4.6  94    -5.4  6     0     1012.2   NA       0.0000   9999     0     0     0    
2019/07/08  13:55:01  BASE  0        328  0.60564  321  -4.6  94    -5.4  6     0     1012.3   NA       0.0000   9999     0     0     0    
2019/07/08  13:56:00  BASE  0        336  0.60564  321  -4.6  94    -5.5  6     0     1012.3   NA       0.0000   9999     0     0     0    
2019/07/08  13:57:00  BASE  0        346  0.60564  321  -4.6  94    -5.4  6     0     1012.3   NA       0.0000   9999     0     0     0    
2019/07/08  13:58:00  BASE  0.09996  360  0.60564  13   -4.7  94    -5.4  6     0     1012.3   NA       0.0000   9999     0     0     0    
2019/07/08  13:59:00  BASE  0.43512  12   0.75852  20   -4.7  95    -5.4  6     0     1012.3   NA       0.0000   9999     0     0     0    
2019/07/08  14:00:01  BASE  0.69972  22   0.81732  29   -4.7  95    -5.4  7     0     1012.3   NA       0.0000   9999     0     0     0    
2019/07/08  14:01:00  BASE  0.8232   31   0.9996   37   -4.7  95    -5.4  7     0     1012.4   NA       0.0000   9999     0     0     0    
2019/07/08  14:02:00  BASE  0.96432  38   1.0878   45   -4.7  95    -5.4  7     0     1012.5   NA       0.0000   9999     0     0     0    
2019/07/08  14:03:00  BASE  1.02312  44   1.1466   52   -4.8  95    -5.4  7     0     1012.5   NA       0.0000   9999     0     0     0    
2019/07/08  14:04:00  BASE  1.09956  53   1.32888  64   -4.8  95    -5.4  7     0     1012.5   NA       0.0000   9999     0     0     0    
2019/07/08  14:05:00  BASE  1.00548  59   1.32888  64   -4.8  96    -5.4  7     0     1012.5   NA       0.0000   9999     0     0     0    
2019/07/08  14:06:00  BASE  0.77616  57   1.32888  64   -4.8  96    -5.4  7     0     1012.5   NA       0.0000   9999     0     0     0    
2019/07/08  14:07:00  BASE  0.59976  56   1.32888  64   -4.8  96    -5.4  7     0     1012.5   NA       0.0000   9999     0     0     0    
2019/07/08  14:08:00  BASE  0.59976  58   1.32888  64   -4.8  96    -5.4  8     0     1012.6   NA       0.0000   9999     0     0     0    
2019/07/08  14:09:00  BASE  0.34104  55   1.32888  64   -4.8  96    -5.4  8     0     1012.4   NA       0.0000   9999     0     0     0    
2019/07/08  14:10:00  BASE  0        43   1.32888  64   -4.8  96    -5.4  8     0     1012.6   NA       0.0000   9999     0     0     0    
2019/07/08  14:11:00  BASE  0.42924  40   1.32888  64   -4.7  95    -5.4  8     0     1012.6   NA       0.0000   9999     0     0     0    
2019/07/08  14:12:00  BASE  0.84672  47   1.32888  64   -4.7  95    -5.4  8     0     1012.6   NA       0.0000   9999     0     0     0    
2019/07/08  14:13:00  BASE  0.87612  48   1.32888  64   -4.7  95    -5.4  8     0     1012.6   NA       0.0000   9999     0     0     0    
2019/07/08  14:14:00  BASE  0.882    49   1.0584   45   -4.7  95    -5.4  8     0     1012.7   NA       0.0000   9999     0     0     0    
2019/07/08  14:15:00  BASE  0.4704   58   1.0584   45   -4.8  95    -5.4  9     0     1012.7   NA       0.0000   9999     0     0     0    
2019/07/08  14:16:00  BASE  0.05292  66   1.0584   45   -4.8  95    -5.5  9     0     1012.7   NA       0.0000   9999     0     0     0    
2019/07/08  14:17:00  BASE  0.16464  67   1.0584   45   -4.8  95    -5.5  9     0     1012.7   NA       0.0000   9999     0     0     0    
2019/07/08  14:18:00  BASE  0.64092  63   1.0878   56   -4.8  95    -5.5  9     0     1012.7   NA       0.0000   9999     0     0     0    
2019/07/08  14:19:00  BASE  1.029    55   1.1466   53   -4.8  95    -5.5  9     0     1012.7   NA       0.0000   9999     0     0     0    
2019/07/08  14:20:01  BASE  1.01136  57   1.1466   53   -4.8  95    -5.5  10    0     1012.7   NA       0.0000   9999     0     0     0    
2019/07/08  14:21:00  BASE  0.86436  64   1.1466   53   -4.8  95    -5.5  10    0     1012.7   NA       0.0000   9999     0     0     0    
2019/07/08  14:22:01  BASE  0.8526   68   1.1466   63   -4.8  95    -5.5  10    0     1012.7   NA       0.0000   9999     0     0     0    
2019/07/08  14:23:00  BASE  0.86436  70   1.1466   63   -4.8  95    -5.5  10    0     1012.7   NA       0.0000   9999     0     0     0    
2019/07/08  14:24:00  BASE  0.72912  72   1.1466   63   -4.8  95    -5.4  10    0     1012.7   NA       0.0000   9999     0     0     0    
2019/07/08  14:25:01  BASE  0.68796  76   1.1466   63   -4.7  95    -5.3  10    0     1012.7   NA       0.0000   9999     0     0     0    
2019/07/08  14:26:01  BASE  0.77616  79   1.1466   63   -4.6  96    -5.2  11    0     1012.7   NA       0.0000   9999     0     0     0    
2019/07/08  14:27:00  BASE  0.87612  75   1.1466   63   -4.6  96    -5.1  11    0     1012.6   NA       0.0000   9999     0     0     0    
2019/07/08  14:28:01  BASE  0.92316  68   1.1466   63   -4.5  96    -5.1  11    0     1012.5   NA       0.0000   9999     0     0     0    
2019/07/08  14:29:00  BASE  0.87612  62   1.21128  58   -4.5  96    -5.1  11    0     1012.6   NA       0.0000   9999     0     0     0    
2019/07/08  14:30:01  BASE  0.9996   60   1.35828  61   -4.6  95    -5.2  12    0     1012.6   NA       0.0000   9999     0     0     0    
2019/07/08  14:31:00  BASE  1.323    58   1.63464  54   -4.6  95    -5.3  12    0     1012.6   NA       0.0000   9999     0     0     0    
2019/07/08  14:32:00  BASE  1.4406   58   1.63464  54   -4.7  95    -5.4  12    0     1012.6   NA       0.0000   9999     0     0     0    
2019/07/08  14:33:00  BASE  1.47     58   1.63464  53   -4.8  95    -5.5  12    0     1012.6   NA       0.0000   9999     0     0     0    
2019/07/08  14:34:01  BASE  1.5582   56   1.69344  51   -4.8  95    -5.4  12    0     1012.6   NA       0.0000   9999     0     0     0    
2019/07/08  14:35:00  BASE  1.65816  56   1.87572  58   -4.8  95    -5.4  13    0     1012.5   NA       0.0000   9999     0     0     0    
2019/07/08  14:36:01  BASE  1.7934   56   2.0286   57   -4.7  96    -5.3  13    0     1012.5   NA       0.0000   9999     0     0     0    
2019/07/08  14:37:00  BASE  1.87572  60   2.0874   71   -4.7  96    -5.2  13    0     1012.5   NA       0.0000   9999     0     0     0    
2019/07/08  14:38:01  BASE  1.98744  68   2.1756   70   -4.6  97    -5.0  13    0     1012.3   NA       0.0000   9999     0     0     0    
2019/07/08  14:39:00  BASE  1.9698   73   2.1756   70   -4.5  97    -4.9  13    0     1012.4   NA       0.0000   9999     0     0     0    
2019/07/08  14:40:00  BASE  1.81692  75   2.1756   70   -4.4  98    -4.7  13    0     1012.3   NA       0.0000   9999     0     0     0    
2019/07/08  14:41:00  BASE  1.62288  78   2.1756   70   -4.4  98    -4.7  14    0     1012.3   NA       0.0000   9999     0     0     0    
2019/07/08  14:42:00  BASE  1.41708  79   2.1756   70   -4.5  98    -4.7  14    0     1012.3   NA       0.0000   9999     0     0     0    
2019/07/08  14:43:00  BASE  1.31712  73   2.1756   70   -4.5  98    -4.8  14    0     1012.3   NA       0.0000   9999     0     0     0    
2019/07/08  14:44:00  BASE  1.24068  65   2.1756   70   -4.6  98    -4.8  14    0     1012.3   NA       0.0000   9999     0     0     0    
2019/07/08  14:45:00  BASE  1.08192  61   2.1756   70   -4.6  98    -4.8  14    0     1012.3   NA       0.0000   9999     0     0     0    
2019/07/08  14:46:00  BASE  0.88788  59   2.1756   70   -4.6  99    -4.8  14    0     1012.3   NA       0.0000   9999     0     0     0    
2019/07/08  14:47:00  BASE  0.78792  58   2.1756   70   -4.7  99    -4.8  15    0     1012.3   NA       0.0000   9999     0     0     0    
2019/07/08  14:48:00  BASE  0.50568  67   2.1462   75   -4.7  99    -4.8  15    0     1012.3   NA       0.0000   9999     0     0     0    
2019/07/08  14:49:00  BASE  0.1176   81   2.1462   75   -4.7  99    -4.9  15    0     1012.3   NA       0.0000   9999     0     0     0    
2019/07/08  14:50:00  BASE  0        86   1.66404  80   -4.8  99    -4.9  15    0     1012.3   NA       0.0000   9999     0     0     0    
2019/07/08  14:51:00  BASE  0        88   1.45236  80   -4.8  99    -4.9  15    0     1012.3   NA       0.0000   9999     0     0     0    
2019/07/08  14:52:00  BASE  0        88   1.39356  59   -4.8  99    -4.9  15    0     1012.3   NA       0.0000   9999     0     0     0    
2019/07/08  14:53:00  BASE  0        90   1.35828  58   -4.8  99    -4.9  15    0     1012.3   NA       0.0000   9999     0     0     0    
2019/07/08  14:54:01  BASE  0        90   1.0878   63   -4.8  100   -4.9  16    0     1012.3   NA       0.0000   9999     0     0     0    
2019/07/08  14:55:00  BASE  0        92   0.87612  58   -4.8  100   -4.8  16    0     1012.3   NA       0.0000   9999     0     0     0    
2019/07/08  14:56:00  BASE  0        144  0.87612  58   -4.7  100   -4.7  16    0     1012.4   NA       0.0000   9999     0     0     0    
2019/07/08  14:57:00  BASE  0.07644  212  0.75852  73   -4.7  100   -4.7  16    0     1012.5   NA       0.0000   9999     0     0     0    
2019/07/08  14:58:00  BASE  0.42924  218  0.84672  212  -4.7  100   -4.7  16    0     1012.5   NA       0.0000   9999     0     0     0    
2019/07/08  14:59:00  BASE  0.6762   212  0.84672  212  -4.6  100   -4.7  16    0     1012.5   NA       0.0000   9999     0     0     0    
2019/07/08  15:00:00  BASE  0.80556  202  1.029    201  -4.6  100   -4.7  16    0     1012.6   NA       0.0000   9999     0     0     0    
2019/07/08  15:01:00  BASE  1.00548  200  1.42296  207  -4.6  99    -4.7  16    0     1012.6   NA       0.0000   9999     0     0     0    
2019/07/08  15:02:00  BASE  1.08192  206  1.42296  207  -4.6  99    -4.7  17    0     1012.6   NA       0.0000   9999     0     0     0    
2019/07/08  15:03:00  BASE  1.10544  208  1.42296  207  -4.6  99    -4.7  17    0     1012.7   NA       0.0000   9999     0     0     0    
2019/07/08  15:04:00  BASE  1.09368  210  1.42296  207  -4.6  99    -4.7  17    0     1012.7   NA       0.0000   9999     0     0     0    
2019/07/08  15:05:00  BASE  0.95256  213  1.42296  207  -4.6  99    -4.8  17    0     1012.7   NA       0.0000   9999     0     0     0    
2019/07/08  15:06:00  BASE  0.82908  210  1.42296  207  -4.7  99    -4.8  17    0     1012.8   NA       0.0000   9999     0     0     0    
2019/07/08  15:07:00  BASE  0.75852  207  1.42296  207  -4.7  99    -4.9  17    0     1012.8   NA       0.0000   9999     0     0     0    
2019/07/08  15:08:00  BASE  0.44688  224  1.42296  207  -4.8  99    -5.0  17    0     1012.8   NA       0.0000   9999     0     0     0    
2019/07/08  15:09:00  BASE  0.21756  282  1.42296  207  -4.8  99    -5.0  17    0     1012.8   NA       0.0000   9999     0     0     0    
2019/07/08  15:10:00  BASE  0.3528   327  1.42296  207  -4.8  99    -5.0  17    0     1012.9   NA       0.0000   9999     0     0     0    
2019/07/08  15:11:00  BASE  0.77028  337  1.42296  339  -4.9  99    -5.0  17    0     1012.9   NA       0.0000   9999     0     0     0    
2019/07/08  15:12:00  BASE  1.2054   340  1.48176  341  -4.8  99    -5.0  17    0     1013.0   NA       0.0000   9999     0     0     0    
2019/07/08  15:13:00  BASE  1.33476  346  1.48176  341  -4.8  99    -4.9  18    0     1013.0   NA       0.0000   9999     0     0     0    
2019/07/08  15:14:00  BASE  1.16424  354  1.48176  341  -4.7  99    -4.8  18    0     1013.0   NA       0.0000   9999     0     0     0    
2019/07/08  15:15:00  BASE  1.10544  354  1.48176  341  -4.7  100   -4.7  18    0     1013.0   NA       0.0000   9999     0     0     0    
2019/07/08  15:16:00  BASE  1.18776  2    1.48176  341  -4.7  100   -4.7  18    0     1013.0   NA       0.0000   9999     0     0     0    
2019/07/08  15:17:00  BASE  1.19952  12   1.48176  341  -4.7  100   -4.7  18    0     1013.0   NA       0.0000   9999     0     0     0    
2019/07/08  15:18:00  BASE  1.2348   21   1.48176  341  -4.8  100   -4.8  18    0     1013.0   NA       0.0000   9999     0     0     0    
2019/07/08  15:19:00  BASE  1.24068  30   1.48176  341  -4.8  100   -4.8  18    0     1013.0   NA       0.0000   9999     0     0     0    
2019/07/08  15:20:00  BASE  1.32888  33   1.57584  31   -4.9  100   -4.9  18    0     1013.0   NA       0.0000   9999     0     0     0    
2019/07/08  15:21:00  BASE  1.36416  38   1.57584  31   -5.0  100   -5.0  18    0     1013.0   NA       0.0000   9999     0     0     0    
2019/07/08  15:22:00  BASE  1.1466   37   1.57584  31   -5.0  100   -5.0  18    0     1013.0   NA       0.0000   9999     0     0     0    
2019/07/08  15:23:00  BASE  1.18776  35   1.63464  34   -5.1  100   -5.1  18    0     1013.0   NA       0.0000   9999     0     0     0    
2019/07/08  15:24:00  BASE  1.48764  34   1.90512  38   -5.1  100   -5.1  18    0     1013.0   NA       0.0000   9999     0     0     0    
2019/07/08  15:25:00  BASE  1.51116  29   1.90512  38   -5.1  100   -5.1  18    0     1013.0   NA       0.0000   9999     0     0     0    
2019/07/08  15:26:00  BASE  1.42296  23   1.90512  38   -5.1  100   -5.1  18    0     1013.0   NA       0.0000   9999     0     0     0    
2019/07/08  15:27:00  BASE  1.45824  24   1.90512  38   -5.1  100   -5.1  18    0     1013.0   NA       0.0000   9999     0     0     0    
2019/07/08  15:28:00  BASE  1.41708  32   1.90512  38   -5.1  100   -5.2  18    0     1013.0   NA       0.0000   9999     0     0     0    
2019/07/08  15:29:00  BASE  1.34652  33   1.90512  38   -5.1  99    -5.2  18    0     1013.0   NA       0.0000   9999     0     0     0    
2019/07/08  15:30:00  BASE  1.22304  33   1.90512  38   -5.1  99    -5.2  18    0     1013.0   NA       0.0000   9999     0     0     0    
2019/07/08  15:31:00  BASE  1.16424  40   1.90512  38   -5.1  99    -5.2  18    0     1013.0   NA       0.0000   9999     0     0     0    
2019/07/08  15:32:00  BASE  1.19952  37   1.90512  38   -5.0  99    -5.2  18    0     1013.0   NA       0.0000   9999     0     0     0    
2019/07/08  15:33:00  BASE  1.2348   27   1.90512  38   -5.0  99    -5.1  18    0     1013.0   NA       0.0000   9999     0     0     0    
2019/07/08  15:34:00  BASE  1.34652  26   1.75224  20   -5.0  99    -5.1  18    0     1013.0   NA       0.0000   9999     0     0     0    
2019/07/08  15:35:00  BASE  1.42296  31   1.75224  20   -5.0  99    -5.1  18    0     1013.0   NA       0.0000   9999     0     0     0    
2019/07/08  15:36:00  BASE  1.55232  38   1.75224  47   -5.0  99    -5.1  18    0     1013.0   NA       0.0000   9999     0     0     0    
2019/07/08  15:37:00  BASE  1.62288  46   1.75224  47   -5.0  99    -5.1  18    0     1013.0   NA       0.0000   9999     0     0     0    
2019/07/08  15:38:00  BASE  1.65816  47   1.81692  47   -5.0  99    -5.2  18    0     1012.9   NA       0.0000   9999     0     0     0    
2019/07/08  15:39:00  BASE  1.75224  48   1.90512  46   -5.0  98    -5.2  18    0     1012.9   NA       0.0000   9999     0     0     0    
2019/07/08  15:40:00  BASE  1.83456  51   1.90512  51   -4.9  98    -5.2  18    0     1012.9   NA       0.0000   9999     0     0     0    
2019/07/08  15:41:00  BASE  1.86396  50   1.93452  52   -4.9  98    -5.2  18    0     1012.9   NA       0.0000   9999     0     0     0    
2019/07/08  15:42:00  BASE  1.77576  49   1.93452  52   -4.9  98    -5.2  18    0     1012.9   NA       0.0000   9999     0     0     0    
2019/07/08  15:43:00  BASE  1.68756  50   1.93452  52   -4.9  98    -5.1  18    0     1012.9   NA       0.0000   9999     0     0     0    
2019/07/08  15:44:00  BASE  1.60524  47   1.93452  52   -4.9  98    -5.1  18    0     1012.9   NA       0.0000   9999     0     0     0    
2019/07/08  15:45:00  BASE  1.45824  44   1.93452  52   -4.8  98    -5.2  18    0     1012.9   NA       0.0000   9999     0     0     0    
2019/07/08  15:46:00  BASE  1.32888  42   1.93452  52   -4.8  97    -5.2  18    0     1013.0   NA       0.0000   9999     0     0     0    
2019/07/08  15:47:00  BASE  1.21716  41   1.93452  52   -4.8  97    -5.2  18    0     1013.0   NA       0.0000   9999     0     0     0    
2019/07/08  15:48:00  BASE  1.14072  40   1.93452  52   -4.9  97    -5.3  18    0     1013.0   NA       0.0000   9999     0     0     0    
2019/07/08  15:49:00  BASE  1.10544  36   1.93452  52   -4.9  97    -5.4  18    0     1013.0   NA       0.0000   9999     0     0     0    
2019/07/08  15:50:00  BASE  1.13484  34   1.93452  52   -4.9  96    -5.4  18    0     1013.0   NA       0.0000   9999     0     0     0    
2019/07/08  15:51:00  BASE  1.25244  37   1.78752  48   -5.0  96    -5.5  18    0     1013.0   NA       0.0000   9999     0     0     0    
2019/07/08  15:52:00  BASE  1.37004  40   1.75224  51   -5.0  96    -5.6  18    0     1013.0   NA       0.0000   9999     0     0     0    
2019/07/08  15:53:00  BASE  1.45824  44   1.69344  48   -5.0  96    -5.6  18    0     1013.0   NA       0.0000   9999     0     0     0    
2019/07/08  15:54:00  BASE  1.52292  48   1.60524  53   -5.0  96    -5.6  19    0     1013.0   NA       0.0000   9999     0     0     0    
2019/07/08  15:55:00  BASE  1.62876  52   1.78752  54   -5.0  96    -5.5  19    0     1013.0   NA       0.0000   9999     0     0     0    
2019/07/08  15:56:00  BASE  1.83456  55   2.0874   56   -5.0  96    -5.5  19    0     1012.9   NA       0.0000   9999     0     0     0    
2019/07/08  15:57:00  BASE  2.03448  56   2.1756   58   -4.9  96    -5.5  19    0     1012.9   NA       0.0000   9999     0     0     0    
2019/07/08  15:58:00  BASE  2.09916  56   2.1756   58   -4.9  96    -5.5  19    0     1012.9   NA       0.0000   9999     0     0     0    
2019/07/08  15:59:00  BASE  2.04036  54   2.1756   58   -4.9  95    -5.5  19    0     1012.9   NA       0.0000   9999     0     0     0    
2019/07/08  16:00:00  BASE  1.9698   53   2.1756   58   -4.9  95    -5.5  19    0     1012.9   NA       0.0000   9999     0     0     0    
2019/07/08  16:01:00  BASE  1.96392  54   2.1756   58   -4.9  95    -5.6  19    0     1012.9   NA       0.0000   9999     0     0     0    
2019/07/08  16:02:00  BASE  1.98156  57   2.1756   58   -4.9  95    -5.6  19    0     1012.9   NA       0.0000   9999     0     0     0    
2019/07/08  16:03:00  BASE  1.95804  58   2.1756   58   -4.9  95    -5.6  19    0     1012.9   NA       0.0000   9999     0     0     0    
2019/07/08  16:04:00  BASE  1.91688  56   2.1756   58   -4.9  95    -5.6  19    0     1012.9   NA       0.0000   9999     0     0     0    
2019/07/08  16:05:00  BASE  1.8228   54   2.1756   58   -4.9  95    -5.6  19    0     1012.9   NA       0.0000   9999     0     0     0    
2019/07/08  16:06:00  BASE  1.7346   52   2.1756   58   -4.9  95    -5.5  19    0     1012.9   NA       0.0000   9999     0     0     0    
2019/07/08  16:07:00  BASE  1.6464   50   2.1462   58   -4.8  95    -5.6  19    0     1012.9   NA       0.0000   9999     0     0     0    
2019/07/08  16:08:00  BASE  1.54056  48   2.0874   52   -4.8  95    -5.6  19    0     1012.9   NA       0.0000   9999     0     0     0    
2019/07/08  16:09:00  BASE  1.44648  44   2.0874   52   -4.8  94    -5.6  19    0     1012.9   NA       0.0000   9999     0     0     0    
2019/07/08  16:10:00  BASE  1.3524   38   2.058    54   -4.8  94    -5.5  19    0     1012.9   NA       0.0000   9999     0     0     0    
2019/07/08  16:11:00  BASE  1.34064  36   2.0286   58   -4.7  94    -5.6  19    0     1012.9   NA       0.0000   9999     0     0     0    
2019/07/08  16:12:00  BASE  1.323    38   1.9992   58   -4.7  94    -5.6  19    0     1012.9   NA       0.0000   9999     0     0     0    
2019/07/08  16:13:00  BASE  1.19364  40   1.96392  56   -4.7  93    -5.6  19    0     1012.9   NA       0.0000   9999     0     0     0    
2019/07/08  16:14:00  BASE  1.07604  40   1.84632  52   -4.7  93    -5.6  19    0     1012.9   NA       0.0000   9999     0     0     0    
2019/07/08  16:15:00  BASE  1.09956  40   1.75224  52   -4.7  93    -5.7  19    0     1012.9   NA       0.0000   9999     0     0     0    
2019/07/08  16:16:00  BASE  1.17012  38   1.66404  49   -4.7  93    -5.7  19    0     1012.9   NA       0.0000   9999     0     0     0    
2019/07/08  16:17:00  BASE  1.2054   38   1.57584  49   -4.8  93    -5.8  19    0     1012.9   NA       0.0000   9999     0     0     0    
2019/07/08  16:18:00  BASE  1.2348   38   1.48176  43   -4.8  92    -5.8  19    0     1012.9   NA       0.0000   9999     0     0     0    
2019/07/08  16:19:00  BASE  1.18776  39   1.39356  35   -4.8  92    -5.9  19    0     1012.9   NA       0.0000   9999     0     0     0    
2019/07/08  16:20:00  BASE  1.17012  41   1.39356  35   -4.8  92    -5.9  19    0     1012.9   NA       0.0000   9999     0     0     0    
2019/07/08  16:21:00  BASE  1.2936   42   1.42296  44   -4.8  92    -5.9  19    0     1012.9   NA       0.0000   9999     0     0     0    
2019/07/08  16:22:00  BASE  1.34064  44   1.42296  44   -4.8  92    -5.9  19    0     1012.9   NA       0.0000   9999     0     0     0    
2019/07/08  16:23:00  BASE  1.2936   43   1.42296  44   -4.8  92    -5.9  19    0     1012.9   NA       0.0000   9999     0     0     0    
2019/07/08  16:24:00  BASE  1.22304  41   1.42296  44   -4.9  92    -6.0  19    0     1013.0   NA       0.0000   9999     0     0     0    
2019/07/08  16:25:00  BASE  1.18776  40   1.42296  44   -4.9  92    -6.0  19    0     1013.0   NA       0.0000   9999     0     0     0    
2019/07/08  16:26:00  BASE  1.176    34   1.42296  44   -4.9  92    -6.0  19    0     1013.0   NA       0.0000   9999     0     0     0    
2019/07/08  16:27:00  BASE  1.07016  26   1.42296  44   -4.9  92    -6.0  19    0     1013.0   NA       0.0000   9999     0     0     0    
2019/07/08  16:28:00  BASE  1.03488  22   1.42296  44   -4.9  92    -6.0  20    0     1012.9   NA       0.0000   9999     0     0     0    
2019/07/08  16:29:00  BASE  1.1466   20   1.42296  44   -4.9  92    -6.0  19    0     1013.0   NA       0.0000   9999     0     0     0    
2019/07/08  16:30:00  BASE  1.30536  19   1.48176  16   -4.9  92    -6.0  20    0     1013.0   NA       0.0000   9999     0     0     0    
2019/07/08  16:31:00  BASE  1.45236  18   1.54056  23   -4.8  92    -5.9  19    0     1013.2   NA       0.0000   9999     0     0     0    
2019/07/08  16:32:00  BASE  1.5288   18   1.63464  13   -4.8  92    -5.9  20    0     1013.2   NA       0.0000   9999     0     0     0    
2019/07/08  16:33:00  BASE  1.53468  18   1.63464  18   -4.8  92    -5.9  20    0     1013.0   NA       0.0000   9999     0     0     0    
2019/07/08  16:34:00  BASE  1.52292  19   1.66404  16   -4.8  92    -5.9  20    0     1013.2   NA       0.0000   9999     0     0     0    
2019/07/08  16:35:00  BASE  1.45824  19   1.66404  16   -4.8  92    -5.9  20    0     1013.3   NA       0.0000   9999     0     0     0    
2019/07/08  16:36:00  BASE  1.4406   21   1.66404  16   -4.8  92    -5.9  20    0     1013.3   NA       0.0000   9999     0     0     0    
2019/07/08  16:37:00  BASE  1.45236  22   1.66404  16   -4.8  92    -5.9  20    0     1013.3   NA       0.0000   9999     0     0     0    
2019/07/08  16:38:00  BASE  1.42296  22   1.66404  16   -4.8  92    -5.9  20    0     1013.3   NA       0.0000   9999     0     0     0    
2019/07/08  16:39:00  BASE  1.34652  21   1.66404  16   -4.8  92    -5.9  20    0     1013.2   NA       0.0000   9999     0     0     0    
2019/07/08  16:40:00  BASE  1.37592  17   1.66404  16   -4.8  92    -5.9  20    0     1013.3   NA       0.0000   9999     0     0     0    
2019/07/08  16:41:00  BASE  1.45236  14   1.66404  16   -4.8  92    -5.9  20    0     1013.3   NA       0.0000   9999     0     0     0    
2019/07/08  16:42:00  BASE  1.39356  18   1.66404  16   -4.8  92    -5.9  21    0     1013.3   NA       0.0000   9999     0     0     0    
2019/07/08  16:43:00  BASE  1.50528  27   1.81692  34   -4.8  92    -5.9  21    0     1013.3   NA       0.0000   9999     0     0     0    
2019/07/08  16:44:00  BASE  1.7346   33   1.90512  38   -4.9  92    -6.0  21    0     1013.1   NA       0.0000   9999     0     0     0    
2019/07/08  16:45:00  BASE  1.78752  35   1.90512  38   -4.9  92    -6.0  21    0     1013.3   NA       0.0000   9999     0     0     0    
2019/07/08  16:46:00  BASE  1.66992  33   1.90512  38   -5.0  92    -6.1  21    0     1013.3   NA       0.0000   9999     0     0     0    
2019/07/08  16:47:00  BASE  1.62288  33   1.90512  38   -5.1  92    -6.2  21    0     1013.3   NA       0.0000   9999     0     0     0    
2019/07/08  16:48:00  BASE  1.82868  38   2.0874   42   -5.1  92    -6.2  21    0     1013.2   NA       0.0000   9999     0     0     0    
2019/07/08  16:49:00  BASE  2.0286   41   2.1756   37   -5.2  92    -6.3  21    0     1013.2   NA       0.0000   9999     0     0     0    
2019/07/08  16:50:00  BASE  2.15796  39   2.45196  41   -5.2  92    -6.3  20    0     1013.2   NA       0.0000   9999     0     0     0    
2019/07/08  16:51:00  BASE  2.24616  40   2.45196  41   -5.3  92    -6.4  20    0     1013.2   NA       0.0000   9999     0     0     0    
2019/07/08  16:52:00  BASE  2.26968  43   2.45196  41   -5.4  92    -6.4  19    0     1013.1   NA       0.0000   9999     0     0     0    
2019/07/08  16:53:00  BASE  2.34024  43   2.51076  40   -5.4  92    -6.4  19    0     1013.0   NA       0.0000   9999     0     0     0    
2019/07/08  16:54:00  BASE  2.43432  42   2.56956  43   -5.4  93    -6.4  18    0     1013.0   NA       0.0000   9999     0     0     0    
2019/07/08  16:55:00  BASE  2.47548  41   2.56956  44   -5.4  93    -6.4  18    0     1013.0   NA       0.0000   9999     0     0     0    
2019/07/08  16:56:00  BASE  2.5284   42   2.66364  44   -5.4  93    -6.3  18    0     1012.9   NA       0.0000   9999     0     0     0    
2019/07/08  16:57:00  BASE  2.49312  43   2.66364  44   -5.4  93    -6.3  18    0     1012.9   NA       0.0000   9999     0     0     0    
2019/07/08  16:58:00  BASE  2.3814   45   2.66364  44   -5.4  93    -6.3  18    0     1012.8   NA       0.0000   9999     0     0     0    
2019/07/08  16:59:00  BASE  2.31672  47   2.66364  44   -5.3  93    -6.2  18    0     1012.8   NA       0.0000   9999     0     0     0    
2019/07/08  17:00:00  BASE  2.21088  50   2.66364  44   -5.3  93    -6.2  18    0     1012.8   NA       0.0000   9999     0     0     0    
2019/07/08  17:01:00  BASE  2.13444  50   2.66364  44   -5.2  94    -6.1  18    0     1012.8   NA       0.0000   9999     0     0     0    
2019/07/08  17:02:00  BASE  2.08152  49   2.66364  44   -5.1  94    -5.9  18    0     1012.8   NA       0.0000   9999     0     0     0    
2019/07/08  17:03:00  BASE  1.94628  50   2.66364  44   -5.0  94    -5.8  18    0     1012.8   NA       0.0000   9999     0     0     0    
2019/07/08  17:04:00  BASE  1.83456  50   2.66364  44   -4.9  94    -5.8  18    0     1012.8   NA       0.0000   9999     0     0     0    
2019/07/08  17:05:00  BASE  1.80516  50   2.66364  44   -4.9  94    -5.7  18    0     1012.6   NA       0.0000   9999     0     0     0    
2019/07/08  17:06:00  BASE  1.80516  53   2.56956  43   -4.8  94    -5.7  18    0     1012.8   NA       0.0000   9999     0     0     0    
2019/07/08  17:07:00  BASE  1.75812  56   2.48136  45   -4.8  93    -5.7  18    0     1012.8   NA       0.0000   9999     0     0     0    
2019/07/08  17:08:00  BASE  1.6758   57   2.35788  47   -4.7  93    -5.6  18    0     1012.8   NA       0.0000   9999     0     0     0    
2019/07/08  17:09:00  BASE  1.63464  57   2.35788  47   -4.7  93    -5.6  18    0     1012.8   NA       0.0000   9999     0     0     0    
2019/07/08  17:10:00  BASE  1.54056  58   2.29908  45   -4.6  93    -5.6  18    0     1012.8   NA       0.0000   9999     0     0     0    
2019/07/08  17:11:00  BASE  1.43472  59   2.1462   49   -4.5  92    -5.6  18    0     1012.8   NA       0.0000   9999     0     0     0    
2019/07/08  17:12:00  BASE  1.31124  60   1.93452  54   -4.5  92    -5.5  18    0     1012.8   NA       0.0000   9999     0     0     0    
2019/07/08  17:13:00  BASE  1.2348   59   1.90512  51   -4.4  92    -5.5  18    0     1012.8   NA       0.0000   9999     0     0     0    
2019/07/08  17:14:00  BASE  1.28772  55   1.90512  51   -4.3  92    -5.5  18    0     1012.8   NA       0.0000   9999     0     0     0    
2019/07/08  17:15:00  BASE  1.31712  50   1.87572  56   -4.3  92    -5.5  19    0     1012.8   NA       0.0000   9999     0     0     0    
2019/07/08  17:16:00  BASE  1.31124  50   1.81692  54   -4.3  91    -5.5  19    0     1012.8   NA       0.0000   9999     0     0     0    
2019/07/08  17:17:00  BASE  1.33476  54   1.69344  59   -4.3  91    -5.5  19    0     1012.8   NA       0.0000   9999     0     0     0    
2019/07/08  17:18:00  BASE  1.39944  53   1.69344  59   -4.3  91    -5.6  19    0     1012.8   NA       0.0000   9999     0     0     0    
2019/07/08  17:19:00  BASE  1.52292  49   1.75224  46   -4.2  90    -5.6  19    0     1012.8   NA       0.0000   9999     0     0     0    
2019/07/08  17:20:00  BASE  1.60524  48   1.75224  46   -4.2  90    -5.6  19    0     1012.8   NA       0.0000   9999     0     0     0    
2019/07/08  17:21:00  BASE  1.55232  49   1.75224  46   -4.3  90    -5.7  19    0     1012.8   NA       0.0000   9999     0     0     0    
2019/07/08  17:22:00  BASE  1.44648  47   1.75224  46   -4.3  89    -5.7  19    0     1012.8   NA       0.0000   9999     0     0     0    
2019/07/08  17:23:00  BASE  1.31712  46   1.75224  46   -4.3  89    -5.8  19    0     1012.8   NA       0.0000   9999     0     0     0    
2019/07/08  17:24:00  BASE  1.22304  42   1.75224  46   -4.3  89    -5.8  19    0     1012.8   NA       0.0000   9999     0     0     0    
2019/07/08  17:25:00  BASE  1.28772  36   1.75224  46   -4.3  89    -5.9  19    0     1012.8   NA       0.0000   9999     0     0     0    
2019/07/08  17:26:00  BASE  1.41708  31   1.75224  46   -4.4  89    -6.0  19    0     1012.8   NA       0.0000   9999     0     0     0    
2019/07/08  17:27:00  BASE  1.35828  30   1.75224  46   -4.4  88    -6.1  20    0     1012.8   NA       0.0000   9999     0     0     0    
2019/07/08  17:28:00  BASE  1.31124  34   1.75224  46   -4.5  88    -6.1  20    0     1012.8   NA       0.0000   9999     0     0     0    
2019/07/08  17:29:00  BASE  1.34064  35   1.69344  51   -4.5  88    -6.1  20    0     1012.8   NA       0.0000   9999     0     0     0    
2019/07/08  17:30:00  BASE  1.28184  35   1.63464  49   -4.5  89    -6.1  19    0     1012.8   NA       0.0000   9999     0     0     0    
2019/07/08  17:31:00  BASE  1.2936   31   1.51116  33   -4.5  89    -6.1  19    0     1012.8   NA       0.0000   9999     0     0     0    
2019/07/08  17:32:00  BASE  1.37592  32   1.51116  33   -4.5  89    -6.0  18    0     1012.8   NA       0.0000   9999     0     0     0    
2019/07/08  17:33:00  BASE  1.35828  36   1.51116  33   -4.4  89    -6.0  18    0     1012.8   NA       0.0000   9999     0     0     0    
2019/07/08  17:34:00  BASE  1.29948  41   1.51116  33   -4.4  89    -6.0  18    0     1012.8   NA       0.0000   9999     0     0     0    
2019/07/08  17:35:00  BASE  1.38768  43   1.60524  43   -4.5  89    -6.1  18    0     1012.8   NA       0.0000   9999     0     0     0    
2019/07/08  17:36:00  BASE  1.49352  42   1.60524  43   -4.5  88    -6.1  18    0     1012.8   NA       0.0000   9999     0     0     0    
2019/07/08  17:37:00  BASE  1.43472  40   1.60524  43   -4.5  88    -6.2  17    0     1012.8   NA       0.0000   9999     0     0     0    
2019/07/08  17:38:00  BASE  1.21128  41   1.60524  43   -4.5  88    -6.2  17    0     1012.8   NA       0.0000   9999     0     0     0    
2019/07/08  17:39:00  BASE  0.8526   48   1.60524  43   -4.5  88    -6.2  17    0     1012.8   NA       0.0000   9999     0     0     0    
2019/07/08  17:40:00  BASE  0.6762   62   1.60524  43   -4.5  88    -6.2  17    0     1012.8   NA       0.0000   9999     0     0     0    
2019/07/08  17:41:00  BASE  0.57036  103  1.60524  43   -4.6  88    -6.3  17    0     1012.8   NA       0.0000   9999     0     0     0    
2019/07/08  17:42:00  BASE  0.22932  116  1.60524  43   -4.6  88    -6.3  17    0     1012.8   NA       0.0000   9999     0     0     0    
2019/07/08  17:43:00  BASE  0.08232  131  1.60524  43   -4.7  87    -6.4  17    0     1012.8   NA       0.0000   9999     0     0     0    
2019/07/08  17:44:00  BASE  0.08232  158  1.60524  43   -4.7  87    -6.5  16    0     1012.8   NA       0.0000   9999     0     0     0    
2019/07/08  17:45:00  BASE  0        159  1.57584  42   -4.8  87    -6.6  16    0     1012.8   NA       0.0000   9999     0     0     0    
2019/07/08  17:46:00  BASE  0        163  1.48176  40   -4.7  87    -6.5  16    0     1012.8   NA       0.0000   9999     0     0     0    
2019/07/08  17:47:00  BASE  0        171  1.24068  35   -4.7  87    -6.4  16    0     1012.8   NA       0.0000   9999     0     0     0    
2019/07/08  17:48:00  BASE  0.0294   178  0.87612  50   -4.6  87    -6.3  15    0     1012.8   NA       0.0000   9999     0     0     0    
2019/07/08  17:49:00  BASE  0.33516  187  0.81732  129  -4.5  87    -6.2  15    0     1012.8   NA       0.0000   9999     0     0     0    
2019/07/08  17:50:00  BASE  0.66444  190  0.81732  191  -4.4  87    -6.2  15    0     1012.8   NA       0.0000   9999     0     0     0    
2019/07/08  17:51:00  BASE  0.81144  190  1.0878   187  -4.4  87    -6.2  15    0     1012.8   NA       0.0000   9999     0     0     0    
2019/07/08  17:52:00  BASE  0.86436  194  1.0878   187  -4.4  87    -6.2  14    0     1012.9   NA       0.0000   9999     0     0     0    
2019/07/08  17:53:00  BASE  0.83496  199  1.0878   187  -4.4  87    -6.2  14    0     1012.9   NA       0.0000   9999     0     0     0    
2019/07/08  17:54:00  BASE  0.67032  202  1.0878   187  -4.4  87    -6.2  14    0     1012.7   NA       0.0000   9999     0     0     0    
2019/07/08  17:55:00  BASE  0.32928  203  1.0878   187  -4.4  87    -6.3  14    0     1013.0   NA       0.0000   9999     0     0     0    
2019/07/08  17:56:00  BASE  0.08232  204  1.0878   187  -4.4  87    -6.3  14    0     1013.0   NA       0.0000   9999     0     0     0    
2019/07/08  17:57:00  BASE  0        205  1.0878   187  -4.5  87    -6.3  14    0     1013.0   NA       0.0000   9999     0     0     0    
2019/07/08  17:58:00  BASE  0        200  1.0878   187  -4.5  87    -6.4  14    0     1013.0   NA       0.0000   9999     0     0     0    
2019/07/08  17:59:00  BASE  0        190  1.0878   187  -4.5  87    -6.3  14    0     1013.0   NA       0.0000   9999     0     0     0    
2019/07/08  18:00:00  BASE  0        182  1.0878   187  -4.5  87    -6.3  14    0     1013.0   NA       0.0000   9999     0     0     0    
2019/07/08  18:01:00  BASE  0        178  0.93492  197  -4.5  88    -6.2  14    0     1013.0   NA       0.0000   9999     0     0     0    
2019/07/08  18:02:00  BASE  0        168  0.93492  197  -4.5  88    -6.2  13    0     1013.0   NA       0.0000   9999     0     0     0    
2019/07/08  18:03:00  BASE  0        157  0.84672  192  -4.5  88    -6.2  13    0     1013.0   NA       0.0000   9999     0     0     0    
2019/07/08  18:04:00  BASE  0        152  0.66444  206  -4.6  89    -6.2  13    0     1013.0   NA       0.0000   9999     0     0     0    
2019/07/08  18:05:00  BASE  0        142  0        M    -4.6  89    -6.2  13    0     1013.1   NA       0.0000   9999     0     0     0    
2019/07/08  18:06:00  BASE  0        131  0        M    -4.7  90    -6.1  13    0     1013.1   NA       0.0000   9999     0     0     0    
2019/07/08  18:07:00  BASE  0        121  0        M    -4.7  90    -6.0  13    0     1013.2   NA       0.0000   9999     0     0     0    
2019/07/08  18:08:00  BASE  0        110  0        M    -4.6  90    -6.0  13    0     1013.2   NA       0.0000   9999     0     0     0    
2019/07/08  18:09:00  BASE  0        96   0        M    -4.7  91    -6.0  13    0     1013.2   NA       0.0000   9999     0     0     0    
2019/07/08  18:10:00  BASE  0.10584  94   0.66444  100  -4.7  91    -6.0  12    0     1013.2   NA       0.0000   9999     0     0     0    
2019/07/08  18:11:00  BASE  0.294    99   0.81732  97   -4.7  91    -6.0  12    0     1013.2   NA       0.0000   9999     0     0     0    
2019/07/08  18:12:00  BASE  0.3822   100  0.81732  97   -4.8  91    -6.0  12    0     1013.2   NA       0.0000   9999     0     0     0    
2019/07/08  18:13:00  BASE  0.44688  101  0.81732  106  -4.8  91    -6.0  12    0     1013.2   NA       0.0000   9999     0     0     0    
2019/07/08  18:14:00  BASE  0.68208  99   0.9996   85   -4.8  91    -6.1  12    0     1013.2   NA       0.0000   9999     0     0     0    
2019/07/08  18:15:00  BASE  0.75264  96   1.029    94   -4.8  91    -6.1  12    0     1013.2   NA       0.0000   9999     0     0     0    
2019/07/08  18:16:00  BASE  0.72324  85   1.1466   67   -4.7  90    -6.1  12    0     1013.2   NA       0.0000   9999     0     0     0    
2019/07/08  18:17:00  BASE  0.94668  74   1.24068  75   -4.7  90    -6.1  11    0     1013.2   NA       0.0000   9999     0     0     0    
2019/07/08  18:18:00  BASE  1.14072  73   1.39356  87   -4.7  89    -6.2  11    0     1013.2   NA       0.0000   9999     0     0     0    
2019/07/08  18:19:00  BASE  1.10544  75   1.39356  87   -4.7  89    -6.2  11    0     1013.2   NA       0.0000   9999     0     0     0    
2019/07/08  18:20:00  BASE  1.029    80   1.39356  87   -4.7  89    -6.3  11    0     1013.2   NA       0.0000   9999     0     0     0    
2019/07/08  18:21:00  BASE  1.04076  81   1.39356  87   -4.7  88    -6.3  11    0     1013.3   NA       0.0000   9999     0     0     0    
2019/07/08  18:22:00  BASE  1.00548  80   1.39356  87   -4.7  88    -6.3  11    0     1013.3   NA       0.0000   9999     0     0     0    
2019/07/08  18:23:00  BASE  0.90552  82   1.39356  87   -4.7  88    -6.3  11    0     1013.4   NA       0.0000   9999     0     0     0    
2019/07/08  18:24:00  BASE  0.7938   73   1.39356  87   -4.6  88    -6.4  10    0     1013.4   NA       0.0000   9999     0     0     0    
2019/07/08  18:25:00  BASE  0.71736  67   1.39356  87   -4.7  88    -6.4  10    0     1013.4   NA       0.0000   9999     0     0     0    
2019/07/08  18:26:00  BASE  0.71736  76   1.39356  87   -4.7  87    -6.5  10    0     1013.4   NA       0.0000   9999     0     0     0    
2019/07/08  18:27:00  BASE  0.6174   82   1.39356  87   -4.7  87    -6.6  10    0     1013.4   NA       0.0000   9999     0     0     0    
2019/07/08  18:28:00  BASE  0.28224  74   1.21128  83   -4.8  87    -6.7  10    0     1013.4   NA       0.0000   9999     0     0     0    
2019/07/08  18:29:00  BASE  0.02352  74   1.18188  92   -4.8  86    -6.7  10    0     1013.5   NA       0.0000   9999     0     0     0    
2019/07/08  18:30:00  BASE  0        79   1.18188  92   -4.8  86    -6.8  9     0     1013.6   NA       0.0000   9999     0     0     0    
2019/07/08  18:31:00  BASE  0        78   1.18188  92   -4.9  86    -6.8  9     0     1013.6   NA       0.0000   9999     0     0     0    
2019/07/08  18:32:00  BASE  0.11172  76   1.0584   80   -4.9  86    -6.9  9     0     1013.6   NA       0.0000   9999     0     0     0    
2019/07/08  18:33:00  BASE  0.4116   69   0.9702   68   -4.9  86    -6.9  9     0     1013.6   NA       0.0000   9999     0     0     0    
2019/07/08  18:34:00  BASE  0.4998   71   0.9702   68   -4.9  86    -6.9  9     0     1013.6   NA       0.0000   9999     0     0     0    
2019/07/08  18:35:00  BASE  0.45276  70   0.90552  66   -4.9  86    -6.8  9     0     1013.6   NA       0.0000   9999     0     0     0    
2019/07/08  18:36:00  BASE  0.57036  67   0.87612  65   -4.9  86    -6.8  8     0     1013.6   NA       0.0000   9999     0     0     0    
2019/07/08  18:37:00  BASE  0.46452  69   0.87612  65   -4.9  86    -6.8  8     0     1013.6   NA       0.0000   9999     0     0     0    
2019/07/08  18:38:00  BASE  0.45276  72   0.87612  65   -4.8  87    -6.7  8     0     1013.6   NA       0.0000   9999     0     0     0    
2019/07/08  18:39:00  BASE  0.69972  71   0.87612  65   -4.8  87    -6.7  8     0     1013.6   NA       0.0000   9999     0     0     0    
2019/07/08  18:40:00  BASE  0.78792  65   0.87612  65   -4.8  87    -6.7  8     0     1013.7   NA       0.0000   9999     0     0     0    
2019/07/08  18:41:00  BASE  0.8232   64   1.0584   62   -4.8  87    -6.7  8     0     1013.7   NA       0.0000   9999     0     0     0    
2019/07/08  18:42:00  BASE  0.882    66   1.0584   62   -4.8  87    -6.7  8     0     1013.7   NA       0.0000   9999     0     0     0    
2019/07/08  18:43:00  BASE  0.95256  64   1.18188  53   -4.9  87    -6.7  7     0     1013.7   NA       0.0000   9999     0     0     0    
2019/07/08  18:44:00  BASE  1.14072  55   1.45236  52   -4.9  87    -6.8  7     0     1013.7   NA       0.0000   9999     0     0     0    
2019/07/08  18:45:00  BASE  1.3524   52   1.51116  54   -4.9  87    -6.8  7     0     1013.7   NA       0.0000   9999     0     0     0    
2019/07/08  18:46:00  BASE  1.2642   52   1.51116  54   -5.0  87    -6.8  7     0     1013.8   NA       0.0000   9999     0     0     0    
2019/07/08  18:47:00  BASE  1.18188  50   1.51116  54   -5.0  87    -6.8  7     0     1013.8   NA       0.0000   9999     0     0     0    
2019/07/08  18:48:00  BASE  1.29948  49   1.54056  51   -5.0  87    -6.8  7     0     1013.8   NA       0.0000   9999     0     0     0    
2019/07/08  18:49:00  BASE  1.24068  48   1.54056  51   -5.0  87    -6.8  6     0     1013.8   NA       0.0000   9999     0     0     0    
2019/07/08  18:50:00  BASE  1.31712  48   1.54056  49   -5.0  88    -6.7  6     0     1013.8   NA       0.0000   9999     0     0     0    
2019/07/08  18:51:00  BASE  1.4994   50   1.54056  48   -5.0  88    -6.7  6     0     1013.8   NA       0.0000   9999     0     0     0    
2019/07/08  18:52:00  BASE  1.62876  47   1.84632  45   -5.0  88    -6.6  6     0     1013.8   NA       0.0000   9999     0     0     0    
2019/07/08  18:53:00  BASE  1.7346   46   1.84632  45   -5.0  89    -6.6  6     0     1013.8   NA       0.0000   9999     0     0     0    
2019/07/08  18:54:00  BASE  1.6464   48   1.84632  45   -5.1  89    -6.6  6     0     1013.9   NA       0.0000   9999     0     0     0    
2019/07/08  18:55:00  BASE  1.64052  49   1.84632  45   -5.1  89    -6.6  5     0     1013.9   NA       0.0000   9999     0     0     0    
2019/07/08  18:56:00  BASE  1.63464  52   1.84632  45   -5.1  89    -6.6  5     0     1013.9   NA       0.0000   9999     0     0     0    
2019/07/08  18:57:00  BASE  1.48176  55   1.84632  45   -5.1  89    -6.6  5     0     1013.9   NA       0.0000   9999     2400  0     0    
2019/07/08  18:58:00  BASE  1.32888  58   1.84632  45   -5.1  89    -6.5  5     0     1014.0   NA       0.0000   9999     2330  0     0    
2019/07/08  18:59:00  BASE  1.30536  60   1.84632  45   -5.1  90    -6.5  5     0     1014.0   NA       0.0000   9999     2300  0     0    
2019/07/08  19:00:00  BASE  1.2936   63   1.84632  45   -5.0  90    -6.4  5     0     1014.0   NA       0.0000   9999     2300  0     0    
2019/07/08  19:01:00  BASE  1.16424  65   1.84632  45   -5.0  90    -6.4  5     0     1014.0   NA       0.0000   9999     0     0     0    
2019/07/08  19:02:00  BASE  1.04664  64   1.84632  45   -5.0  90    -6.4  4     0     1014.0   NA       0.0000   9999     2330  0     0    
2019/07/08  19:03:00  BASE  0.97608  64   1.81692  49   -5.0  90    -6.4  4     0     1014.0   NA       0.0000   9999     2300  0     0    
2019/07/08  19:04:00  BASE  0.85848  62   1.81692  49   -5.0  90    -6.3  4     0     1014.0   NA       0.0000   9999     2260  0     0    
2019/07/08  19:05:00  BASE  1.01724  59   1.60524  54   -5.0  90    -6.4  4     0     1014.0   NA       0.0000   9999     2230  0     0    
2019/07/08  19:06:00  BASE  1.47588  57   2.1168   56   -5.0  90    -6.4  4     0     1014.0   NA       0.0000   9999     0     0     0    
2019/07/08  19:07:00  BASE  1.9992   55   2.48136  53   -5.0  89    -6.5  4     0     1014.0   NA       0.0000   9999     0     0     0    
2019/07/08  19:08:00  BASE  2.34024  53   2.48136  53   -5.0  89    -6.5  4     0     1014.0   NA       0.0000   9999     0     0     0    
2019/07/08  19:09:00  BASE  2.352    53   2.48136  53   -5.1  89    -6.6  4     0     1014.0   NA       0.0000   9999     0     0     0    
2019/07/08  19:10:00  BASE  2.24028  54   2.48136  53   -5.1  89    -6.6  3     0     1014.0   NA       0.0000   9999     0     0     0    
2019/07/08  19:11:00  BASE  2.10504  54   2.48136  53   -5.1  89    -6.7  3     0     1014.0   NA       0.0000   9999     0     0     0    
2019/07/08  19:12:00  BASE  2.1168   55   2.48136  53   -5.1  89    -6.7  3     0     1014.0   NA       0.0000   9999     0     0     0    
2019/07/08  19:13:00  BASE  2.1462   55   2.48136  53   -5.1  88    -6.7  3     0     1014.0   NA       0.0000   9999     0     0     0    
2019/07/08  19:14:00  BASE  2.16384  57   2.48136  53   -5.1  88    -6.7  3     0     1014.0   NA       0.0000   9999     0     0     0    
2019/07/08  19:15:00  BASE  2.16972  58   2.48136  53   -5.1  88    -6.7  3     0     1014.0   NA       0.0000   9999     0     0     0    
2019/07/08  19:16:00  BASE  2.16972  55   2.48136  53   -5.0  89    -6.6  3     0     1014.0   NA       0.0000   9999     0     0     0    
2019/07/08  19:17:00  BASE  2.18736  54   2.45196  55   -5.0  89    -6.6  3     0     1014.0   NA       0.0000   9999     0     0     0    
2019/07/08  19:18:00  BASE  2.22264  52   2.42256  54   -5.0  89    -6.5  3     0     1013.9   NA       0.0000   9999     0     0     0    
2019/07/08  19:19:00  BASE  2.32848  50   2.48136  49   -5.0  89    -6.5  2     0     1013.9   NA       0.0000   9999     0     0     0    
2019/07/08  19:20:00  BASE  2.36964  50   2.48136  51   -4.9  89    -6.5  2     0     1013.9   NA       0.0000   9999     0     0     0    
2019/07/08  19:21:00  BASE  2.37552  49   2.48136  49   -5.0  89    -6.5  2     0     1013.9   NA       0.0000   9999     0     0     0    
2019/07/08  19:22:00  BASE  2.39904  49   2.48136  48   -5.0  89    -6.5  2     0     1013.9   NA       0.0000   9999     0     0     0    
2019/07/08  19:23:00  BASE  2.32848  49   2.48136  48   -5.0  89    -6.5  2     0     1013.9   NA       0.0000   9999     0     0     0    
2019/07/08  19:24:00  BASE  2.12856  50   2.48136  48   -5.0  89    -6.5  2     0     1013.9   NA       0.0000   9999     0     0     0    
2019/07/08  19:25:00  BASE  1.92276  50   2.48136  48   -5.0  89    -6.5  2     0     1014.0   NA       0.0000   9999     0     0     0    
2019/07/08  19:26:00  BASE  1.81104  52   2.48136  48   -5.0  90    -6.4  2     0     1014.0   NA       0.0000   9999     0     0     0    
2019/07/08  19:27:00  BASE  1.72284  53   2.48136  48   -5.0  90    -6.3  2     0     1014.0   NA       0.0000   9999     0     0     0    
2019/07/08  19:28:00  BASE  1.5876   52   2.48136  48   -4.9  90    -6.3  2     0     1014.1   NA       0.0000   9999     0     0     0    
2019/07/08  19:29:00  BASE  1.48176  51   2.48136  48   -4.9  91    -6.2  1     0     1014.1   NA       0.0000   9999     0     0     0    
2019/07/08  19:30:00  BASE  1.38768  52   2.48136  48   -4.9  91    -6.1  1     0     1014.1   NA       0.0000   9999     0     0     0    
2019/07/08  19:31:00  BASE  1.37004  51   2.48136  48   -4.8  91    -6.1  1     0     1014.1   NA       0.0000   9999     0     0     0    
2019/07/08  19:32:00  BASE  1.47     48   2.38728  53   -4.8  91    -6.1  1     0     1014.1   NA       0.0000   9999     0     0     0    
2019/07/08  19:33:00  BASE  1.55232  47   2.0874   52   -4.8  91    -6.0  1     0     1014.1   NA       0.0000   9999     0     0     0    
2019/07/08  19:34:00  BASE  1.69932  46   2.058    51   -4.8  91    -6.0  1     0     1014.0   NA       0.0000   9999     0     0     0    
2019/07/08  19:35:00  BASE  1.88748  47   2.0286   50   -4.8  91    -6.0  1     0     1014.0   NA       0.0000   9999     0     0     0    
2019/07/08  19:36:00  BASE  1.9992   50   2.1462   52   -4.8  91    -6.1  1     0     1014.0   NA       0.0000   9999     0     0     0    
2019/07/08  19:37:00  BASE  2.08152  52   2.1756   54   -4.9  91    -6.1  1     0     1014.0   NA       0.0000   9999     0     0     0    
2019/07/08  19:38:00  BASE  2.06976  48   2.1756   54   -4.9  91    -6.2  1     0     1014.0   NA       0.0000   9999     0     0     0    
2019/07/08  19:39:00  BASE  1.9992   46   2.1756   54   -5.0  91    -6.2  0     0     1013.9   NA       0.0000   9999     0     0     0    
2019/07/08  19:40:00  BASE  1.96392  48   2.1756   54   -5.0  91    -6.2  0     0     1013.9   NA       0.0000   9999     0     0     0    
2019/07/08  19:41:00  BASE  1.91688  48   2.1756   54   -5.0  92    -6.2  0     0     1013.9   NA       0.0000   9999     0     0     0    
2019/07/08  19:42:00  BASE  1.89336  51   2.1756   54   -5.0  92    -6.2  0     0     1013.9   NA       0.0000   9999     0     0     0    
2019/07/08  19:43:00  BASE  1.85808  52   2.1756   54   -5.0  92    -6.1  0     0     1013.9   NA       0.0000   9999     0     0     0    
2019/07/08  19:44:00  BASE  1.86984  52   2.1756   54   -5.0  92    -6.1  0     0     1013.9   NA       0.0000   9999     0     0     0    
2019/07/08  19:45:00  BASE  1.96392  53   2.1756   54   -5.0  92    -6.1  0     0     1013.8   NA       0.0000   9999     0     0     0    
2019/07/08  19:46:00  BASE  2.02272  53   2.1756   54   -5.0  92    -6.1  0     0     1013.8   NA       0.0000   9999     0     0     0    
2019/07/08  19:47:00  BASE  1.99332  54   2.0874   54   -5.0  92    -6.1  0     0     1013.8   NA       0.0000   9999     0     0     0    
2019/07/08  19:48:00  BASE  1.911    54   2.0874   54   -5.0  92    -6.1  0     0     1013.8   NA       0.0000   9999     0     0     0    
2019/07/08  19:49:00  BASE  1.8522   53   2.0874   54   -5.0  92    -6.1  0     0     1013.8   NA       0.0000   9999     0     0     0    
2019/07/08  19:50:00  BASE  1.72284  53   2.0874   54   -5.0  92    -6.0  0     0     1013.8   NA       0.0000   9999     0     0     0    
2019/07/08  19:51:00  BASE  1.59348  53   2.0874   54   -5.0  93    -6.0  0     0     1013.8   NA       0.0000   9999     0     0     0    
2019/07/08  19:52:00  BASE  1.63464  53   2.0874   54   -4.9  93    -5.9  0     0     1013.9   NA       0.0000   9999     0     0     0    
2019/07/08  19:53:00  BASE  1.71696  51   2.0874   54   -4.9  93    -5.9  0     0     1013.9   NA       0.0000   9999     0     0     0    
2019/07/08  19:54:00  BASE  1.72284  50   2.0874   54   -4.9  93    -5.9  0     0     1013.9   NA       0.0000   9999     0     0     0    
2019/07/08  19:55:00  BASE  1.74048  49   2.0874   54   -4.9  93    -5.9  0     0     1013.9   NA       0.0000   9999     0     0     0    
2019/07/08  19:56:00  BASE  1.72872  48   2.0286   58   -4.9  93    -5.9  0     0     1013.9   NA       0.0000   9999     0     0     0    
2019/07/08  19:57:00  BASE  1.69344  49   1.93452  54   -4.9  93    -5.9  0     0     1013.9   NA       0.0000   9999     0     0     0    
2019/07/08  19:58:00  BASE  1.75224  48   1.93452  54   -5.0  93    -5.9  0     0     1013.9   NA       0.0000   9999     0     0     0    
2019/07/08  19:59:00  BASE  1.81104  45   1.90512  46   -5.0  93    -5.9  0     0     1013.9   NA       0.0000   9999     0     0     0    
2019/07/08  20:00:00  BASE  1.84632  41   1.96392  40   -5.0  93    -6.0  0     0     1013.9   NA       0.0000   9999     0     0     0    
2019/07/08  20:01:00  BASE  1.83456  39   1.96392  40   -5.1  93    -6.0  0     0     1013.9   NA       0.0000   9999     0     0     0    
2019/07/08  20:02:00  BASE  1.8816   35   2.0874   33   -5.1  93    -6.1  0     0     1013.9   NA       0.0000   9999     0     0     0    
2019/07/08  20:03:00  BASE  1.95804  32   2.0874   33   -5.2  93    -6.1  0     0     1013.8   NA       0.0000   9999     0     0     0    
2019/07/08  20:04:00  BASE  1.98744  34   2.1462   34   -5.2  93    -6.1  0     0     1013.8   NA       0.0000   9999     0     0     0    
2019/07/08  20:05:00  BASE  1.93452  37   2.1462   34   -5.2  94    -6.1  0     0     1013.8   NA       0.0000   9999     0     0     0    
2019/07/08  20:06:00  BASE  1.86396  39   2.1462   34   -5.2  94    -6.1  0     0     1013.8   NA       0.0000   9999     0     0     0    
2019/07/08  20:07:00  BASE  1.91688  37   2.1462   37   -5.3  94    -6.1  0     0     1013.8   NA       0.0000   9999     0     0     0    
2019/07/08  20:08:00  BASE  1.8816   34   2.1462   37   -5.3  94    -6.1  0     0     1013.8   NA       0.0000   9999     0     0     0    
2019/07/08  20:09:00  BASE  1.87572  36   2.1462   37   -5.3  94    -6.1  0     0     1013.8   NA       0.0000   9999     0     0     0    
2019/07/08  20:10:00  BASE  1.91688  39   2.1462   37   -5.3  94    -6.1  0     0     1013.8   NA       0.0000   9999     0     0     0    
2019/07/08  20:11:00  BASE  1.92864  39   2.1462   36   -5.3  94    -6.1  0     0     1013.8   NA       0.0000   9999     0     0     0    
2019/07/08  20:12:00  BASE  1.85808  35   2.1462   36   -5.3  94    -6.1  0     0     1013.8   NA       0.0000   9999     0     0     0    
2019/07/08  20:13:00  BASE  1.764    34   2.1462   36   -5.3  95    -6.0  0     0     1013.8   NA       0.0000   9999     0     0     0    
2019/07/08  20:14:00  BASE  1.764    36   2.1462   36   -5.2  95    -5.9  0     0     1013.7   NA       0.0000   9999     0     0     0    
2019/07/08  20:15:00  BASE  1.78752  35   2.1462   36   -5.2  95    -5.9  0     0     1013.7   NA       0.0000   9999     0     0     0    
2019/07/08  20:16:00  BASE  1.75812  32   2.1462   36   -5.2  95    -5.8  0     0     1013.7   NA       0.0000   9999     0     0     0    
2019/07/08  20:17:00  BASE  1.62288  32   2.1462   36   -5.2  95    -5.8  0     0     1013.7   NA       0.0000   9999     0     0     0    
2019/07/08  20:18:00  BASE  1.47     35   2.1462   36   -5.1  95    -5.8  0     0     1013.7   NA       0.0000   9999     0     0     0    
2019/07/08  20:19:00  BASE  1.55232  38   2.1462   36   -5.1  95    -5.8  0     0     1013.7   NA       0.0000   9999     0     0     0    
2019/07/08  20:20:00  BASE  1.617    35   2.1462   36   -5.1  96    -5.7  0     0     1013.7   NA       0.0000   9999     0     0     0    
2019/07/08  20:21:00  BASE  1.50528  35   1.90512  36   -5.1  96    -5.7  0     0     1013.7   NA       0.0000   9999     0     0     0    
2019/07/08  20:22:00  BASE  1.35828  41   1.90512  36   -5.1  96    -5.6  0     0     1013.7   NA       0.0000   9999     0     0     0    
2019/07/08  20:23:00  BASE  1.27008  41   1.90512  36   -5.0  96    -5.6  0     0     1013.8   NA       0.0000   9999     0     0     0    
2019/07/08  20:24:00  BASE  1.2348   37   1.87572  29   -5.0  96    -5.5  0     0     1013.8   NA       0.0000   9999     0     0     0    
2019/07/08  20:25:00  BASE  1.16424  33   1.87572  29   -5.0  96    -5.5  0     0     1013.8   NA       0.0000   9999     0     0     0    
2019/07/08  20:26:00  BASE  1.05252  31   1.72284  41   -4.9  96    -5.5  0     0     1013.8   NA       0.0000   9999     0     0     0    
2019/07/08  20:27:00  BASE  0.882    31   1.72284  41   -4.9  96    -5.4  0     0     1013.9   NA       0.0000   9999     0     0     0    
2019/07/08  20:28:00  BASE  0.38808  31   1.72284  41   -4.9  96    -5.4  0     0     1013.9   NA       0.0000   9999     0     0     0    
2019/07/08  20:29:00  BASE  0        31   1.69344  31   -4.8  96    -5.4  0     0     1013.9   NA       0.0000   9999     0     0     0    
2019/07/08  20:30:00  BASE  0        31   1.60524  34   -4.8  96    -5.4  0     0     1013.9   NA       0.0000   9999     0     0     0    
2019/07/08  20:31:00  BASE  0        31   1.39356  41   -4.8  96    -5.3  0     0     1013.9   NA       0.0000   9999     0     0     0    
2019/07/08  20:32:00  BASE  0        30   1.29948  38   -4.7  96    -5.3  0     0     1013.9   NA       0.0000   9999     0     0     0    
2019/07/08  20:33:00  BASE  0        23   1.24068  36   -4.7  96    -5.2  0     0     1013.9   NA       0.0000   9999     0     0     0    
2019/07/08  20:34:00  BASE  0.05292  9    1.21128  31   -4.7  96    -5.2  0     0     1013.9   NA       0.0000   9999     0     0     0    
2019/07/08  20:35:00  BASE  0.28224  1    1.029    31   -4.6  96    -5.2  0     0     1013.9   NA       0.0000   9999     0     0     0    
2019/07/08  20:36:00  BASE  0.59388  2    0.90552  31   -4.6  95    -5.3  0     0     1013.9   NA       0.0000   9999     0     0     0    
2019/07/08  20:37:00  BASE  0.74088  10   0.78792  16   -4.7  95    -5.4  0     0     1013.8   NA       0.0000   9999     0     0     0    
2019/07/08  20:38:00  BASE  0.79968  18   0.90552  22   -4.8  95    -5.5  0     0     1013.9   NA       0.0000   9999     0     0     0    
2019/07/08  20:39:00  BASE  0.93492  25   1.1466   26   -4.8  95    -5.5  0     0     1013.9   NA       0.0000   9999     0     0     0    
2019/07/08  20:40:00  BASE  1.19364  28   1.54056  28   -4.9  95    -5.6  0     0     1013.9   NA       0.0000   9999     0     0     0    
2019/07/08  20:41:00  BASE  1.47     29   1.69344  28   -5.0  95    -5.7  0     0     1013.9   NA       0.0000   9999     0     0     0    
2019/07/08  20:42:00  BASE  1.72872  32   1.96392  28   -5.2  95    -5.8  0     0     1013.9   NA       0.0000   9999     0     0     0    
2019/07/08  20:43:00  BASE  1.87572  37   1.96392  41   -5.3  95    -5.9  0     0     1013.9   NA       0.0000   9999     0     0     0    
2019/07/08  20:44:00  BASE  2.01096  39   2.26968  41   -5.4  95    -6.1  0     0     1013.9   NA       0.0000   9999     0     0     0    
2019/07/08  20:45:00  BASE  2.10504  38   2.26968  41   -5.5  95    -6.2  0     0     1013.9   NA       0.0000   9999     0     0     0    
2019/07/08  20:46:00  BASE  1.96392  39   2.26968  41   -5.5  95    -6.2  0     0     1013.9   NA       0.0000   9999     0     0     0    
2019/07/08  20:47:00  BASE  1.87572  41   2.26968  41   -5.6  95    -6.2  0     0     1013.9   NA       0.0000   9999     0     0     0    
2019/07/08  20:48:00  BASE  1.87572  38   2.26968  41   -5.6  95    -6.2  0     0     1013.9   NA       0.0000   9999     0     0     0    
2019/07/08  20:49:00  BASE  1.74048  34   2.26968  41   -5.5  95    -6.2  0     0     1013.9   NA       0.0000   9999     0     0     0    
2019/07/08  20:50:00  BASE  1.62876  30   2.26968  41   -5.5  95    -6.2  0     0     1013.9   NA       0.0000   9999     0     0     0    
2019/07/08  20:51:00  BASE  1.64052  24   2.26968  41   -5.4  95    -6.1  0     0     1013.9   NA       0.0000   9999     0     0     0    
2019/07/08  20:52:00  BASE  1.61112  18   2.26968  41   -5.3  95    -6.0  0     0     1014.0   NA       0.0000   9999     0     0     0    
2019/07/08  20:53:00  BASE  1.54644  11   2.26968  41   -5.3  95    -6.0  0     0     1014.0   NA       0.0000   9999     0     0     0    
2019/07/08  20:54:00  BASE  1.3818   8    2.24028  41   -5.3  95    -6.1  0     0     1014.0   NA       0.0000   9999     0     0     0    
2019/07/08  20:55:00  BASE  1.07604  10   2.0874   37   -5.3  94    -6.1  0     0     1014.0   NA       0.0000   9999     0     0     0    
2019/07/08  20:56:00  BASE  0.89964  6    2.0874   37   -5.3  94    -6.1  0     0     1014.1   NA       0.0000   9999     0     0     0    
2019/07/08  20:57:00  BASE  0.89376  357  2.0874   37   -5.3  94    -6.1  0     0     1014.1   NA       0.0000   9999     0     0     0    
2019/07/08  20:58:00  BASE  0.97608  349  1.75224  12   -5.2  94    -6.0  0     0     1014.2   NA       0.0000   9999     0     0     0    
2019/07/08  20:59:00  BASE  1.029    342  1.75224  12   -5.1  94    -6.0  0     0     1014.2   NA       0.0000   9999     0     0     0    
2019/07/08  21:00:00  BASE  1.0584   346  1.75224  12   -5.1  93    -6.0  0     0     1014.2   NA       0.0000   9999     0     0     0    
2019/07/08  21:01:00  BASE  1.12896  354  1.63464  6    -5.1  93    -6.0  0     0     1014.2   NA       0.0000   9999     0     0     0    
2019/07/08  21:02:00  BASE  1.15836  352  1.63464  6    -5.0  93    -6.0  0     0     1014.2   NA       0.0000   9999     0     0     0    
2019/07/08  21:03:00  BASE  1.22892  1    1.48176  18   -5.0  93    -6.0  0     0     1014.2   NA       0.0000   9999     0     0     0    
2019/07/08  21:04:00  BASE  1.4112   17   1.57584  23   -5.0  93    -6.1  0     0     1014.2   NA       0.0000   9999     0     0     0    
2019/07/08  21:05:00  BASE  1.4112   21   1.57584  23   -5.1  92    -6.1  0     0     1014.2   NA       0.0000   9999     0     0     0    
2019/07/08  21:06:00  BASE  1.37004  19   1.57584  20   -5.1  93    -6.1  0     0     1014.2   NA       0.0000   9999     0     0     0    
2019/07/08  21:07:00  BASE  1.42884  19   1.57584  20   -5.2  93    -6.2  0     0     1014.2   NA       0.0000   9999     0     0     0    
2019/07/08  21:08:00  BASE  1.48764  23   1.69344  36   -5.2  93    -6.2  0     0     1014.2   NA       0.0000   9999     0     0     0    
2019/07/08  21:09:00  BASE  1.72284  33   2.1462   39   -5.3  93    -6.2  0     0     1014.2   NA       0.0000   9999     0     0     0    
2019/07/08  21:10:00  BASE  2.01684  41   2.29908  42   -5.3  93    -6.3  0     0     1014.1   NA       0.0000   9999     0     0     0    
2019/07/08  21:11:00  BASE  2.12856  44   2.29908  42   -5.4  93    -6.3  0     0     1014.1   NA       0.0000   9999     0     0     0    
2019/07/08  21:12:00  BASE  2.16384  45   2.42256  50   -5.4  93    -6.4  0     0     1014.1   NA       0.0000   9999     0     0     0    
2019/07/08  21:13:00  BASE  2.28732  48   2.42256  51   -5.5  93    -6.5  0     0     1014.1   NA       0.0000   9999     0     0     0    
2019/07/08  21:14:00  BASE  2.39904  49   2.56956  48   -5.6  93    -6.5  0     0     1014.1   NA       0.0000   9999     0     0     0    
2019/07/08  21:15:00  BASE  2.45784  49   2.56956  48   -5.6  93    -6.5  0     0     1014.2   NA       0.0000   9999     0     0     0    
2019/07/08  21:16:00  BASE  2.28732  50   2.56956  48   -5.5  93    -6.5  0     0     1014.2   NA       0.0000   9999     0     0     0    
2019/07/08  21:17:00  BASE  2.01684  48   2.56956  48   -5.5  93    -6.4  0     0     1014.2   NA       0.0000   9999     0     0     0    
2019/07/08  21:18:00  BASE  1.90512  47   2.56956  48   -5.4  93    -6.4  0     0     1014.2   NA       0.0000   9999     0     0     0    
2019/07/08  21:19:00  BASE  1.7934   46   2.56956  48   -5.4  93    -6.4  0     0     1014.2   NA       0.0000   9999     0     0     0    
2019/07/08  21:20:00  BASE  1.63464  43   2.56956  48   -5.4  93    -6.3  0     0     1014.2   NA       0.0000   9999     0     0     0    
2019/07/08  21:21:00  BASE  1.59936  38   2.56956  48   -5.4  93    -6.3  0     0     1014.2   NA       0.0000   9999     0     0     0    
2019/07/08  21:22:00  BASE  1.57584  34   2.56956  48   -5.3  93    -6.3  0     0     1014.2   NA       0.0000   9999     0     0     0    
2019/07/08  21:23:00  BASE  1.48764  31   2.56956  48   -5.3  93    -6.2  0     0     1014.4   NA       0.0000   9999     0     0     0    
2019/07/08  21:24:00  BASE  1.45236  33   2.54016  52   -5.3  93    -6.2  0     0     1014.4   NA       0.0000   9999     0     0     0    
2019/07/08  21:25:00  BASE  1.39356  33   2.35788  51   -5.3  94    -6.2  0     0     1014.4   NA       0.0000   9999     0     0     0    
2019/07/08  21:26:00  BASE  1.30536  31   1.9992   47   -5.3  94    -6.1  0     0     1014.4   NA       0.0000   9999     0     0     0    
2019/07/08  21:27:00  BASE  1.3524   32   1.96392  43   -5.3  94    -6.1  0     0     1014.4   NA       0.0000   9999     0     0     0    
2019/07/08  21:28:00  BASE  1.48176  35   1.75224  45   -5.2  94    -6.0  0     0     1014.4   NA       0.0000   9999     0     0     0    
2019/07/08  21:29:00  BASE  1.5876   37   1.69344  35   -5.2  94    -6.1  0     0     1014.4   NA       0.0000   9999     0     0     0    
2019/07/08  21:30:00  BASE  1.71696  36   1.84632  35   -5.2  94    -6.1  0     0     1014.4   NA       0.0000   9999     0     0     0    
2019/07/08  21:31:00  BASE  1.86984  34   2.0874   34   -5.3  93    -6.2  0     0     1014.4   NA       0.0000   9999     0     0     0    
2019/07/08  21:32:00  BASE  1.98744  33   2.1462   36   -5.4  93    -6.3  0     0     1014.4   NA       0.0000   9999     0     0     0    
2019/07/08  21:33:00  BASE  2.10504  33   2.26968  34   -5.4  93    -6.4  0     0     1014.4   NA       0.0000   9999     0     0     0    
2019/07/08  21:34:00  BASE  2.15796  33   2.26968  31   -5.5  93    -6.5  0     0     1014.4   NA       0.0000   9999     0     0     0    
2019/07/08  21:35:00  BASE  2.10504  32   2.26968  31   -5.6  93    -6.5  0     0     1014.4   NA       0.0000   9999     0     0     0    
2019/07/08  21:36:00  BASE  1.98156  32   2.26968  31   -5.6  93    -6.5  0     0     1014.5   NA       0.0000   9999     0     0     0    
2019/07/08  21:37:00  BASE  1.92276  34   2.26968  31   -5.6  93    -6.6  0     0     1014.5   NA       0.0000   9999     0     0     0    
2019/07/08  21:38:00  BASE  1.85808  34   2.26968  31   -5.6  93    -6.6  0     0     1014.5   NA       0.0000   9999     0     0     0    
2019/07/08  21:39:00  BASE  1.72284  33   2.26968  31   -5.6  93    -6.6  0     0     1014.5   NA       0.0000   9999     0     0     0    
2019/07/08  21:40:00  BASE  1.62876  35   2.26968  31   -5.6  93    -6.6  0     0     1014.5   NA       0.0000   9999     0     0     0    
2019/07/08  21:41:00  BASE  1.62876  35   2.26968  31   -5.6  93    -6.6  0     0     1014.5   NA       0.0000   9999     0     0     0    
2019/07/08  21:42:00  BASE  1.72284  37   2.26968  31   -5.6  93    -6.5  0     0     1014.5   NA       0.0000   9999     0     0     0    
2019/07/08  21:43:00  BASE  1.8522   39   2.26968  31   -5.6  93    -6.5  0     0     1014.5   NA       0.0000   9999     0     0     0    
2019/07/08  21:44:00  BASE  2.00508  41   2.26968  40   -5.5  93    -6.5  0     0     1014.6   NA       0.0000   9999     0     0     0    
2019/07/08  21:45:00  BASE  2.27556  41   2.56956  40   -5.5  93    -6.5  0     0     1014.6   NA       0.0000   9999     0     0     0    
2019/07/08  21:46:00  BASE  2.45784  42   2.63424  48   -5.5  93    -6.5  0     0     1014.6   NA       0.0000   9999     0     0     0    
2019/07/08  21:47:00  BASE  2.52252  45   2.75184  47   -5.5  93    -6.4  0     0     1014.6   NA       0.0000   9999     0     0     0    
2019/07/08  21:48:00  BASE  2.65188  46   2.87532  47   -5.5  93    -6.4  0     0     1014.6   NA       0.0000   9999     0     0     0    
2019/07/08  21:49:00  BASE  2.72832  47   2.87532  47   -5.4  93    -6.4  0     0     1014.6   NA       0.0000   9999     0     0     0    
2019/07/08  21:50:00  BASE  2.64012  48   2.87532  47   -5.4  93    -6.4  0     0     1014.6   NA       0.0000   9999     0     0     0    
2019/07/08  21:51:00  BASE  2.57544  48   2.87532  47   -5.4  93    -6.3  0     0     1014.6   NA       0.0000   9999     0     0     0    
2019/07/08  21:52:00  BASE  2.64012  46   2.87532  47   -5.4  93    -6.3  0     0     1014.6   NA       0.0000   9999     0     0     0    
2019/07/08  21:53:00  BASE  2.65776  45   2.87532  47   -5.4  93    -6.3  0     0     1014.6   NA       0.0000   9999     0     0     0    
2019/07/08  21:54:00  BASE  2.54016  45   2.87532  47   -5.4  93    -6.3  0     0     1014.6   NA       0.0000   9999     0     0     0    
2019/07/08  21:55:00  BASE  2.36376  42   2.87532  47   -5.4  93    -6.3  0     0     1014.6   NA       0.0000   9999     0     0     0    
2019/07/08  21:56:00  BASE  2.16384  41   2.87532  47   -5.4  93    -6.3  0     0     1014.6   NA       0.0000   9999     0     0     0    
2019/07/08  21:57:00  BASE  2.04036  42   2.87532  47   -5.4  93    -6.3  0     0     1014.6   NA       0.0000   9999     0     0     0    
2019/07/08  21:58:00  BASE  2.07564  43   2.81064  49   -5.3  94    -6.2  0     0     1014.6   NA       0.0000   9999     0     0     0    
2019/07/08  21:59:00  BASE  2.10504  44   2.81064  49   -5.3  94    -6.1  0     0     1014.6   NA       0.0000   9999     0     0     0    
2019/07/08  22:00:00  BASE  2.02272  45   2.81064  49   -5.3  94    -6.1  0     0     1014.6   NA       0.0000   9999     0     0     0    
2019/07/08  22:01:00  BASE  1.9992   46   2.81064  49   -5.2  94    -6.0  0     0     1014.5   NA       0.0000   9999     0     0     0    
2019/07/08  22:02:00  BASE  2.0286   47   2.81064  49   -5.2  94    -6.0  0     0     1014.5   NA       0.0000   9999     0     0     0    
2019/07/08  22:03:00  BASE  2.03448  49   2.59896  45   -5.2  94    -6.0  0     0     1014.6   NA       0.0000   9999     0     0     0    
2019/07/08  22:04:00  BASE  1.9992   51   2.42256  40   -5.2  95    -5.9  0     0     1014.6   NA       0.0000   9999     0     0     0    
2019/07/08  22:05:00  BASE  1.97568  52   2.24028  48   -5.2  95    -5.9  0     0     1014.6   NA       0.0000   9999     0     0     0    
2019/07/08  22:06:00  BASE  2.04624  54   2.24028  48   -5.1  95    -5.8  0     0     1014.6   NA       0.0000   9999     0     0     0    
2019/07/08  22:07:00  BASE  2.09916  54   2.24028  48   -5.1  95    -5.8  0     0     1014.6   NA       0.0000   9999     0     0     0    
2019/07/08  22:08:00  BASE  2.09916  50   2.24028  48   -5.1  95    -5.8  0     0     1014.6   NA       0.0000   9999     0     0     0    
2019/07/08  22:09:00  BASE  2.13444  50   2.24028  51   -5.2  95    -5.9  0     0     1014.7   NA       0.0000   9999     0     0     0    
2019/07/08  22:10:00  BASE  2.16384  51   2.29908  50   -5.2  95    -5.9  0     0     1014.7   NA       0.0000   9999     0     0     0    
2019/07/08  22:11:00  BASE  2.09328  51   2.29908  50   -5.3  95    -5.9  0     0     1014.7   NA       0.0000   9999     0     0     0    
2019/07/08  22:12:00  BASE  2.01684  49   2.29908  50   -5.3  96    -5.9  0     0     1014.7   NA       0.0000   9999     0     0     0    
2019/07/08  22:13:00  BASE  2.00508  47   2.29908  50   -5.3  96    -5.9  0     0     1014.6   NA       0.0000   9999     0     0     0    
2019/07/08  22:14:00  BASE  2.03448  47   2.29908  50   -5.3  96    -5.8  0     0     1014.6   NA       0.0000   9999     0     0     0    
2019/07/08  22:15:00  BASE  2.10504  48   2.29908  50   -5.3  96    -5.8  0     0     1014.6   NA       0.0000   9999     0     0     0    
2019/07/08  22:16:00  BASE  2.19324  48   2.29908  49   -5.3  96    -5.8  0     0     1014.6   NA       0.0000   9999     0     0     0    
2019/07/08  22:17:00  BASE  2.25204  48   2.35788  52   -5.3  96    -5.8  0     0     1014.6   NA       0.0000   9999     0     0     0    
2019/07/08  22:18:00  BASE  2.31672  50   2.48136  53   -5.3  96    -5.8  0     0     1014.6   NA       0.0000   9999     0     0     0    
2019/07/08  22:19:00  BASE  2.4696   49   2.69304  44   -5.3  96    -5.8  0     0     1014.6   NA       0.0000   9999     0     0     0    
2019/07/08  22:20:00  BASE  2.59896  46   2.93412  50   -5.3  96    -5.9  0     0     1014.6   NA       0.0000   9999     0     0     0    
2019/07/08  22:21:00  BASE  2.69304  47   2.93412  50   -5.3  96    -5.8  0     0     1014.6   NA       0.0000   9999     0     0     0    
2019/07/08  22:22:00  BASE  2.77536  51   2.93412  50   -5.3  96    -5.8  0     0     1014.6   NA       0.0000   9999     0     0     0    
2019/07/08  22:23:00  BASE  2.65188  54   2.93412  50   -5.3  97    -5.7  0     0     1014.6   NA       0.0000   9999     0     0     0    
2019/07/08  22:24:00  BASE  2.42844  55   2.93412  50   -5.2  97    -5.7  0     0     1014.6   NA       0.0000   9999     0     0     0    
2019/07/08  22:25:00  BASE  2.25204  54   2.93412  50   -5.2  97    -5.6  0     0     1014.6   NA       0.0000   9999     0     0     0    
2019/07/08  22:26:00  BASE  2.16972  52   2.93412  50   -5.2  97    -5.6  0     0     1014.6   NA       0.0000   9999     0     0     0    
2019/07/08  22:27:00  BASE  2.24028  49   2.93412  50   -5.3  97    -5.7  0     0     1014.6   NA       0.0000   9999     0     0     0    
2019/07/08  22:28:00  BASE  2.25792  44   2.93412  50   -5.3  97    -5.7  0     0     1014.6   NA       0.0000   9999     0     0     0    
2019/07/08  22:29:00  BASE  2.15208  40   2.93412  50   -5.3  97    -5.7  0     0     1014.6   NA       0.0000   9999     0     0     0    
2019/07/08  22:30:00  BASE  2.12268  42   2.90472  55   -5.3  97    -5.8  0     0     1014.6   NA       0.0000   9999     0     0     0    
2019/07/08  22:31:00  BASE  2.10504  41   2.90472  55   -5.4  97    -5.8  0     0     1014.7   NA       0.0000   9999     0     0     0    
2019/07/08  22:32:00  BASE  2.15796  37   2.69304  57   -5.4  97    -5.8  0     0     1014.7   NA       0.0000   9999     0     0     0    
2019/07/08  22:33:00  BASE  2.205    35   2.45196  50   -5.5  97    -5.9  0     0     1014.7   NA       0.0000   9999     0     0     0    
2019/07/08  22:34:00  BASE  2.1462   35   2.45196  50   -5.6  97    -5.9  0     0     1014.7   NA       0.0000   9999     0     0     0    
2019/07/08  22:35:00  BASE  2.01096  34   2.45196  50   -5.6  97    -5.9  0     0     1014.7   NA       0.0000   9999     0     0     0    
2019/07/08  22:36:00  BASE  1.92864  37   2.42256  48   -5.6  98    -5.9  0     0     1014.7   NA       0.0000   9999     0     0     0    
2019/07/08  22:37:00  BASE  2.04624  40   2.32848  33   -5.6  98    -5.9  0     0     1014.7   NA       0.0000   9999     0     0     0    
2019/07/08  22:38:00  BASE  2.18148  36   2.59896  30   -5.6  98    -5.8  0     0     1014.7   NA       0.0000   9999     0     0     0    
2019/07/08  22:39:00  BASE  2.31672  31   3.1164   33   -5.5  98    -5.8  0     0     1014.7   NA       0.0000   9999     0     0     0    
2019/07/08  22:40:00  BASE  2.68716  30   3.1164   33   -5.5  98    -5.8  0     0     1014.7   NA       0.0000   9999     0     0     0    
2019/07/08  22:41:00  BASE  2.8224   32   3.1164   33   -5.5  98    -5.8  0     0     1014.7   NA       0.0000   9999     0     0     0    
2019/07/08  22:42:00  BASE  2.71656  34   3.1458   40   -5.5  98    -5.8  0     0     1014.7   NA       0.0000   9999     0     0     0    
2019/07/08  22:43:00  BASE  2.89296  36   3.29868  34   -5.5  98    -5.7  0     0     1014.7   NA       0.0000   9999     0     0     0    
2019/07/08  22:44:00  BASE  2.8518   35   3.29868  34   -5.6  99    -5.7  0     0     1014.7   NA       0.0000   9999     0     0     0    
2019/07/08  22:45:00  BASE  2.61072  34   3.29868  34   -5.6  99    -5.7  0     0     1014.7   NA       0.0000   9999     0     0     0    
2019/07/08  22:46:00  BASE  2.5284   35   3.29868  34   -5.6  99    -5.7  0     0     1014.7   NA       0.0000   9999     0     0     0    
2019/07/08  22:47:00  BASE  2.5284   34   3.29868  34   -5.6  99    -5.7  0     0     1014.7   NA       0.0000   9999     0     0     0    
2019/07/08  22:48:00  BASE  2.5872   31   3.29868  34   -5.6  99    -5.7  0     0     1014.7   NA       0.0000   9999     0     0     0    
2019/07/08  22:49:00  BASE  2.45784  33   3.29868  34   -5.6  99    -5.7  0     0     1014.8   NA       0.0000   9999     0     0     0    
2019/07/08  22:50:00  BASE  2.33436  35   3.29868  34   -5.6  99    -5.7  0     0     1014.8   NA       0.0000   9999     0     0     0    
2019/07/08  22:51:00  BASE  2.36964  35   3.29868  34   -5.5  99    -5.6  0     0     1014.8   NA       0.0000   9999     0     0     0    
2019/07/08  22:52:00  BASE  2.24616  35   3.29868  34   -5.4  100   -5.5  0     0     1014.7   NA       0.0000   9999     0     0     0    
2019/07/08  22:53:00  BASE  2.14032  33   2.93412  29   -5.4  100   -5.4  0     0     1014.7   NA       0.0000   9999     0     0     0    
2019/07/08  22:54:00  BASE  2.10504  35   2.93412  29   -5.3  100   -5.3  0     0     1014.7   NA       0.0000   9999     0     0     0    
2019/07/08  22:55:00  BASE  2.21088  32   2.93412  29   -5.3  100   -5.3  0     0     1014.7   NA       0.0000   9999     0     0     0    
2019/07/08  22:56:00  BASE  2.25204  30   2.93412  29   -5.3  100   -5.3  0     0     1014.7   NA       0.0000   9999     0     0     0    
2019/07/08  22:57:00  BASE  2.1462   29   2.81064  29   -5.3  100   -5.3  0     0     1014.7   NA       0.0000   9999     0     0     0    
2019/07/08  22:58:00  BASE  2.1756   31   2.63424  33   -5.3  100   -5.3  0     0     1014.7   NA       0.0000   9999     0     0     0    
2019/07/08  22:59:00  BASE  2.27556  34   2.63424  33   -5.3  100   -5.3  0     0     1014.7   NA       0.0000   9999     0     0     0    
2019/07/08  23:00:00  BASE  2.18148  33   2.63424  33   -5.2  100   -5.3  0     0     1014.6   NA       0.0000   9999     0     0     0    
2019/07/08  23:01:00  BASE  2.11092  32   2.59896  29   -5.2  99    -5.3  0     0     1014.6   NA       0.0000   9999     0     0     0    
2019/07/08  23:02:00  BASE  2.07564  29   2.59896  29   -5.2  99    -5.3  0     0     1014.6   NA       0.0000   9999     0     0     0    
2019/07/08  23:03:00  BASE  1.84632  29   2.59896  29   -5.2  99    -5.3  0     0     1014.6   NA       0.0000   9999     0     0     0    
2019/07/08  23:04:00  BASE  1.6464   29   2.59896  29   -5.2  99    -5.3  0     0     1014.6   NA       0.0000   9999     0     0     0    
2019/07/08  23:05:00  BASE  1.65816  23   2.59896  29   -5.1  99    -5.3  0     0     1014.6   NA       0.0000   9999     0     0     0    
2019/07/08  23:06:00  BASE  1.76988  19   2.59896  29   -5.1  99    -5.2  0     0     1014.5   NA       0.0000   9999     0     0     0    
2019/07/08  23:07:00  BASE  1.79928  19   2.56956  30   -5.0  99    -5.1  0     0     1014.5   NA       0.0000   9999     0     0     0    
2019/07/08  23:08:00  BASE  1.80516  17   2.56956  30   -4.9  99    -5.1  0     0     1014.5   NA       0.0000   9999     0     0     0    
2019/07/08  23:09:00  BASE  1.74636  14   2.48136  36   -4.9  99    -5.0  0     0     1014.5   NA       0.0000   9999     0     0     0    
2019/07/08  23:10:00  BASE  1.71108  14   2.48136  36   -4.8  99    -5.0  0     0     1014.5   NA       0.0000   9999     0     0     0    
2019/07/08  23:11:00  BASE  1.68756  14   2.058    31   -4.7  98    -4.9  0     0     1014.5   NA       0.0000   9999     0     0     0    
2019/07/08  23:12:00  BASE  1.5582   12   1.9992   17   -4.7  98    -4.9  0     0     1014.5   NA       0.0000   9999     0     0     0    
2019/07/08  23:13:00  BASE  1.48176  11   1.9992   17   -4.6  98    -4.9  0     0     1014.5   NA       0.0000   9999     0     0     0    
2019/07/08  23:14:00  BASE  1.42884  12   1.9992   17   -4.5  98    -4.9  0     0     1014.5   NA       0.0000   9999     0     0     0    
2019/07/08  23:15:00  BASE  1.24656  17   1.9992   17   -4.5  97    -4.8  0     0     1014.5   NA       0.0000   9999     0     0     0    
2019/07/08  23:16:00  BASE  1.14072  28   1.9992   17   -4.4  97    -4.8  0     0     1014.5   NA       0.0000   9999     0     0     0    
2019/07/08  23:17:00  BASE  1.1172   37   1.87572  14   -4.4  96    -4.9  0     0     1014.5   NA       0.0000   9999     0     0     0    
2019/07/08  23:18:00  BASE  0.93492  35   1.81692  7    -4.4  96    -5.0  0     0     1014.5   NA       0.0000   9999     0     0     0    
2019/07/08  23:19:00  BASE  0.4116   31   1.75224  14   -4.4  95    -5.1  0     0     1014.5   NA       0.0000   9999     0     0     0    
2019/07/08  23:20:00  BASE  0.0294   31   1.72284  18   -4.5  95    -5.2  0     0     1014.5   NA       0.0000   9999     0     0     0    
2019/07/08  23:21:00  BASE  0        31   1.57584  13   -4.6  94    -5.3  0     0     1014.5   NA       0.0000   9999     0     0     0    
2019/07/08  23:22:00  BASE  0        30   1.57584  13   -4.6  94    -5.5  0     0     1014.5   NA       0.0000   9999     0     0     0    
2019/07/08  23:23:00  BASE  0        29   1.48176  8    -4.7  93    -5.6  0     0     1014.4   NA       0.0000   9999     0     0     0    
2019/07/08  23:24:00  BASE  0        29   1.24068  43   -4.7  93    -5.6  0     0     1014.4   NA       0.0000   9999     0     0     0    
2019/07/08  23:25:00  BASE  0.03528  28   1.24068  43   -4.7  93    -5.6  0     0     1014.4   NA       0.0000   9999     0     0     0    
2019/07/08  23:26:00  BASE  0.3528   19   1.21128  44   -4.6  93    -5.5  0     0     1014.4   NA       0.0000   9999     0     0     0    
2019/07/08  23:27:00  BASE  0.59388  6    0.93492  29   -4.5  93    -5.4  0     0     1014.4   NA       0.0000   9999     0     0     0    
2019/07/08  23:28:00  BASE  0.6174   348  0.81732  332  -4.3  93    -5.3  0     0     1014.5   NA       0.0000   9999     0     0     0    
2019/07/08  23:29:00  BASE  0.33516  340  0.81732  332  -4.3  93    -5.2  0     0     1014.5   NA       0.0000   9999     0     0     0    
2019/07/08  23:30:00  BASE  0.13524  347  0.81732  332  -4.2  93    -5.3  0     0     1014.5   NA       0.0000   9999     0     0     0    
2019/07/08  23:31:00  BASE  0.30576  1    0.81732  332  -4.2  92    -5.3  0     0     1014.5   NA       0.0000   9999     0     0     0    
2019/07/08  23:32:00  BASE  0.54684  11   0.81732  6    -4.3  92    -5.4  0     0     1014.5   NA       0.0000   9999     0     0     0    
2019/07/08  23:33:00  BASE  0.66444  5    0.9702   350  -4.4  91    -5.5  0     0     1014.5   NA       0.0000   9999     0     0     0    
2019/07/08  23:34:00  BASE  0.75852  349  1.21128  320  -4.4  91    -5.6  0     0     1014.5   NA       0.0000   9999     0     0     0    
2019/07/08  23:35:00  BASE  0.84672  343  1.21128  320  -4.4  91    -5.7  0     0     1014.5   NA       0.0000   9999     0     0     0    
2019/07/08  23:36:00  BASE  0.72324  351  1.21128  320  -4.5  91    -5.7  0     0     1014.5   NA       0.0000   9999     0     0     0    
2019/07/08  23:37:00  BASE  0.68208  357  1.21128  320  -4.5  91    -5.7  0     0     1014.5   NA       0.0000   9999     0     0     0    
2019/07/08  23:38:00  BASE  0.82908  10   1.24068  22   -4.5  91    -5.8  0     0     1014.5   NA       0.0000   9999     0     0     0    
2019/07/08  23:39:00  BASE  1.22304  22   1.69344  36   -4.6  91    -5.8  0     0     1014.6   NA       0.0000   9999     0     0     0    
2019/07/08  23:40:00  BASE  1.64052  34   1.93452  44   -4.6  91    -5.9  0     0     1014.6   NA       0.0000   9999     0     0     0    
2019/07/08  23:41:00  BASE  1.82868  39   2.0286   34   -4.7  91    -6.0  0     0     1014.6   NA       0.0000   9999     0     0     0    
2019/07/08  23:42:00  BASE  1.7346   33   2.0286   34   -4.8  91    -6.1  0     0     1014.6   NA       0.0000   9999     0     0     0    
2019/07/08  23:43:00  BASE  1.56996  29   2.0286   34   -4.9  91    -6.1  0     0     1014.7   NA       0.0000   9999     0     0     0    
2019/07/08  23:44:00  BASE  1.55232  25   2.0286   34   -5.0  91    -6.2  0     0     1014.7   NA       0.0000   9999     0     0     0    
2019/07/08  23:45:00  BASE  1.56996  18   2.0286   34   -5.0  91    -6.2  0     0     1014.7   NA       0.0000   9999     0     0     0    
2019/07/08  23:46:00  BASE  1.57584  11   2.0286   34   -5.0  92    -6.1  0     0     1014.7   NA       0.0000   9999     0     0     0    
2019/07/08  23:47:00  BASE  1.55232  7    2.0286   34   -5.0  92    -6.1  0     0     1014.7   NA       0.0000   9999     0     0     0    
2019/07/08  23:48:00  BASE  1.53468  7    2.0286   34   -5.0  92    -6.1  0     0     1014.7   NA       0.0000   9999     0     0     0    
2019/07/08  23:49:00  BASE  1.62288  11   2.0286   34   -5.0  91    -6.2  0     0     1014.7   NA       0.0000   9999     0     0     0    
2019/07/08  23:50:00  BASE  1.69344  18   2.0286   34   -5.1  91    -6.3  0     0     1014.7   NA       0.0000   9999     0     0     0    
2019/07/08  23:51:00  BASE  1.57584  15   1.96392  20   -5.2  91    -6.4  0     0     1014.8   NA       0.0000   9999     0     0     0    
2019/07/08  23:52:00  BASE  1.32888  9    1.96392  20   -5.2  91    -6.4  0     0     1014.8   NA       0.0000   9999     0     0     0    
2019/07/08  23:53:00  BASE  1.18188  9    1.96392  20   -5.2  91    -6.3  0     0     1014.8   NA       0.0000   9999     0     0     0    
2019/07/08  23:54:00  BASE  1.18776  14   1.96392  20   -5.1  92    -6.3  0     0     1014.8   NA       0.0000   9999     0     0     0    
2019/07/08  23:55:00  BASE  1.30536  22   1.96392  20   -5.1  92    -6.3  0     0     1014.8   NA       0.0000   9999     0     0     0    
2019/07/08  23:56:00  BASE  1.34064  24   1.96392  20   -5.1  92    -6.2  0     0     1014.9   NA       0.0000   9999     0     0     0    
2019/07/08  23:57:00  BASE  1.39356  23   1.96392  20   -5.1  91    -6.3  0     0     1015.0   NA       0.0000   9999     0     0     0    
2019/07/08  23:58:00  BASE  1.4994   25   1.96392  20   -5.2  91    -6.4  0     0     1015.0   NA       0.0000   9999     0     0     0    
2019/07/08  23:59:00  BASE  1.38768  29   1.81692  29   -5.2  91    -6.4  0     0     1015.0   NA       0.0000   9999     0     0     0